<?xml version="1.0" encoding="UTF-8" standalone="no" ?>
<gpx xmlns="http://www.topografix.com/GPX/1/1" xmlns:xsi="http://www.w3.org/2001/XMLSchema-instance" xsi:schemaLocation="http://www.topografix.com/GPX/1/1 http://www.topografix.com/GPX/1/1/gpx.xsd" version="1.1" creator="VisuGPX - https://www.visugpx.com">
  <metadata>
    <name>ColCharbonièreMontRosset</name>
    <desc><![CDATA[Circuit réalisé au départ du chalet de ski de fond des Pars]]></desc>
  </metadata>
  <trk>
    <name><![CDATA[20180212102506-nJV6g]]></name>
    <trkseg>
      <trkpt lat="45.59157" lon="6.67091">
        <ele>1417</ele>
      </trkpt>
      <trkpt lat="45.59162" lon="6.67096">
        <ele>1417</ele>
      </trkpt>
      <trkpt lat="45.59164" lon="6.67092">
        <ele>1416</ele>
      </trkpt>
      <trkpt lat="45.59168" lon="6.67092">
        <ele>1417</ele>
        <time>2018-02-10T07:52:06Z</time>
      </trkpt>
      <trkpt lat="45.59181" lon="6.67094">
        <ele>1420</ele>
        <time>2018-02-10T07:52:18Z</time>
      </trkpt>
      <trkpt lat="45.59183" lon="6.67095">
        <ele>1421</ele>
        <time>2018-02-10T07:52:20Z</time>
      </trkpt>
      <trkpt lat="45.59185" lon="6.67096">
        <ele>1421</ele>
        <time>2018-02-10T07:52:22Z</time>
      </trkpt>
      <trkpt lat="45.59194" lon="6.67094">
        <ele>1423</ele>
        <time>2018-02-10T07:52:33Z</time>
      </trkpt>
      <trkpt lat="45.59196" lon="6.67094">
        <ele>1423</ele>
        <time>2018-02-10T07:52:36Z</time>
      </trkpt>
      <trkpt lat="45.59199" lon="6.67091">
        <ele>1423</ele>
        <time>2018-02-10T07:52:41Z</time>
      </trkpt>
      <trkpt lat="45.59207" lon="6.67089">
        <ele>1424</ele>
        <time>2018-02-10T07:52:47Z</time>
      </trkpt>
      <trkpt lat="45.59217" lon="6.67086">
        <ele>1424</ele>
        <time>2018-02-10T07:52:56Z</time>
      </trkpt>
      <trkpt lat="45.59218" lon="6.67086">
        <ele>1424</ele>
        <time>2018-02-10T07:52:58Z</time>
      </trkpt>
      <trkpt lat="45.59227" lon="6.67081">
        <ele>1407</ele>
        <time>2018-02-10T07:53:08Z</time>
      </trkpt>
      <trkpt lat="45.59226" lon="6.67076">
        <ele>1406</ele>
        <time>2018-02-10T07:53:50Z</time>
      </trkpt>
      <trkpt lat="45.59239" lon="6.67075">
        <ele>1409</ele>
        <time>2018-02-10T08:00:32Z</time>
      </trkpt>
      <trkpt lat="45.59249" lon="6.67077">
        <ele>1413</ele>
        <time>2018-02-10T08:01:50Z</time>
      </trkpt>
      <trkpt lat="45.59257" lon="6.67077">
        <ele>1412</ele>
        <time>2018-02-10T08:01:55Z</time>
      </trkpt>
      <trkpt lat="45.59276" lon="6.67074">
        <ele>1408</ele>
        <time>2018-02-10T08:02:08Z</time>
      </trkpt>
      <trkpt lat="45.59287" lon="6.67072">
        <ele>1408</ele>
        <time>2018-02-10T08:02:15Z</time>
      </trkpt>
      <trkpt lat="45.59304" lon="6.67074">
        <ele>1409</ele>
        <time>2018-02-10T08:02:27Z</time>
      </trkpt>
      <trkpt lat="45.59318" lon="6.67075">
        <ele>1412</ele>
        <time>2018-02-10T08:02:38Z</time>
      </trkpt>
      <trkpt lat="45.59332" lon="6.6708">
        <ele>1419</ele>
        <time>2018-02-10T08:02:49Z</time>
      </trkpt>
      <trkpt lat="45.59345" lon="6.67084">
        <ele>1429</ele>
        <time>2018-02-10T08:03:01Z</time>
      </trkpt>
      <trkpt lat="45.59356" lon="6.67083">
        <ele>1416</ele>
        <time>2018-02-10T08:03:11Z</time>
      </trkpt>
      <trkpt lat="45.59366" lon="6.67083">
        <ele>1415</ele>
        <time>2018-02-10T08:03:20Z</time>
      </trkpt>
      <trkpt lat="45.59375" lon="6.67081">
        <ele>1416</ele>
        <time>2018-02-10T08:03:26Z</time>
      </trkpt>
      <trkpt lat="45.59385" lon="6.67078">
        <ele>1417</ele>
        <time>2018-02-10T08:03:36Z</time>
      </trkpt>
      <trkpt lat="45.59388" lon="6.67076">
        <ele>1417</ele>
        <time>2018-02-10T08:03:40Z</time>
      </trkpt>
      <trkpt lat="45.59399" lon="6.67069">
        <ele>1418</ele>
        <time>2018-02-10T08:03:51Z</time>
      </trkpt>
      <trkpt lat="45.59408" lon="6.67063">
        <ele>1418</ele>
        <time>2018-02-10T08:04:01Z</time>
      </trkpt>
      <trkpt lat="45.59416" lon="6.67057">
        <ele>1416</ele>
        <time>2018-02-10T08:04:10Z</time>
      </trkpt>
      <trkpt lat="45.59424" lon="6.67051">
        <ele>1424</ele>
        <time>2018-02-10T08:04:21Z</time>
      </trkpt>
      <trkpt lat="45.59426" lon="6.67049">
        <ele>1423</ele>
        <time>2018-02-10T08:04:23Z</time>
      </trkpt>
      <trkpt lat="45.59438" lon="6.67043">
        <ele>1423</ele>
        <time>2018-02-10T08:04:35Z</time>
      </trkpt>
      <trkpt lat="45.59449" lon="6.67039">
        <ele>1423</ele>
        <time>2018-02-10T08:04:48Z</time>
      </trkpt>
      <trkpt lat="45.59459" lon="6.67035">
        <ele>1423</ele>
        <time>2018-02-10T08:04:58Z</time>
      </trkpt>
      <trkpt lat="45.59469" lon="6.67028">
        <ele>1423</ele>
        <time>2018-02-10T08:05:08Z</time>
      </trkpt>
      <trkpt lat="45.5948" lon="6.67015">
        <ele>1422</ele>
        <time>2018-02-10T08:05:21Z</time>
      </trkpt>
      <trkpt lat="45.59489" lon="6.67009">
        <ele>1421</ele>
        <time>2018-02-10T08:05:30Z</time>
      </trkpt>
      <trkpt lat="45.59499" lon="6.67003">
        <ele>1419</ele>
        <time>2018-02-10T08:05:42Z</time>
      </trkpt>
      <trkpt lat="45.59508" lon="6.66998">
        <ele>1419</ele>
        <time>2018-02-10T08:05:51Z</time>
      </trkpt>
      <trkpt lat="45.5952" lon="6.66995">
        <ele>1420</ele>
        <time>2018-02-10T08:06:03Z</time>
      </trkpt>
      <trkpt lat="45.59529" lon="6.66995">
        <ele>1421</ele>
        <time>2018-02-10T08:06:13Z</time>
      </trkpt>
      <trkpt lat="45.59539" lon="6.66997">
        <ele>1422</ele>
        <time>2018-02-10T08:06:23Z</time>
      </trkpt>
      <trkpt lat="45.5955" lon="6.67">
        <ele>1424</ele>
        <time>2018-02-10T08:06:34Z</time>
      </trkpt>
      <trkpt lat="45.59559" lon="6.67">
        <ele>1436</ele>
        <time>2018-02-10T08:06:43Z</time>
      </trkpt>
      <trkpt lat="45.59568" lon="6.67">
        <ele>1435</ele>
        <time>2018-02-10T08:06:52Z</time>
      </trkpt>
      <trkpt lat="45.59571" lon="6.66999">
        <ele>1428</ele>
        <time>2018-02-10T08:06:56Z</time>
      </trkpt>
      <trkpt lat="45.59582" lon="6.66999">
        <ele>1430</ele>
        <time>2018-02-10T08:07:07Z</time>
      </trkpt>
      <trkpt lat="45.59593" lon="6.67001">
        <ele>1438</ele>
        <time>2018-02-10T08:07:18Z</time>
      </trkpt>
      <trkpt lat="45.59601" lon="6.67006">
        <ele>1442</ele>
        <time>2018-02-10T08:07:29Z</time>
      </trkpt>
      <trkpt lat="45.59602" lon="6.67006">
        <ele>1442</ele>
        <time>2018-02-10T08:07:30Z</time>
      </trkpt>
      <trkpt lat="45.59611" lon="6.67011">
        <ele>1445</ele>
        <time>2018-02-10T08:07:39Z</time>
      </trkpt>
      <trkpt lat="45.59622" lon="6.67014">
        <ele>1447</ele>
        <time>2018-02-10T08:07:51Z</time>
      </trkpt>
      <trkpt lat="45.59631" lon="6.67015">
        <ele>1448</ele>
        <time>2018-02-10T08:08:03Z</time>
      </trkpt>
      <trkpt lat="45.5964" lon="6.67007">
        <ele>1447</ele>
        <time>2018-02-10T08:08:15Z</time>
      </trkpt>
      <trkpt lat="45.59641" lon="6.67002">
        <ele>1447</ele>
        <time>2018-02-10T08:08:19Z</time>
      </trkpt>
      <trkpt lat="45.59641" lon="6.66986">
        <ele>1441</ele>
        <time>2018-02-10T08:08:29Z</time>
      </trkpt>
      <trkpt lat="45.59637" lon="6.66971">
        <ele>1440</ele>
        <time>2018-02-10T08:08:41Z</time>
      </trkpt>
      <trkpt lat="45.59634" lon="6.66954">
        <ele>1441</ele>
        <time>2018-02-10T08:08:55Z</time>
      </trkpt>
      <trkpt lat="45.59633" lon="6.6694">
        <ele>1441</ele>
        <time>2018-02-10T08:09:07Z</time>
      </trkpt>
      <trkpt lat="45.59634" lon="6.66925">
        <ele>1442</ele>
        <time>2018-02-10T08:09:18Z</time>
      </trkpt>
      <trkpt lat="45.59636" lon="6.66908">
        <ele>1447</ele>
        <time>2018-02-10T08:09:31Z</time>
      </trkpt>
      <trkpt lat="45.59637" lon="6.66907">
        <ele>1447</ele>
        <time>2018-02-10T08:09:32Z</time>
      </trkpt>
      <trkpt lat="45.59637" lon="6.66892">
        <ele>1447</ele>
        <time>2018-02-10T08:09:45Z</time>
      </trkpt>
      <trkpt lat="45.59638" lon="6.66876">
        <ele>1448</ele>
        <time>2018-02-10T08:09:57Z</time>
      </trkpt>
      <trkpt lat="45.59637" lon="6.6686">
        <ele>1448</ele>
        <time>2018-02-10T08:10:11Z</time>
      </trkpt>
      <trkpt lat="45.59638" lon="6.66844">
        <ele>1449</ele>
        <time>2018-02-10T08:10:23Z</time>
      </trkpt>
      <trkpt lat="45.59638" lon="6.6683">
        <ele>1459</ele>
        <time>2018-02-10T08:10:43Z</time>
      </trkpt>
      <trkpt lat="45.59642" lon="6.66822">
        <ele>1460</ele>
        <time>2018-02-10T08:10:57Z</time>
      </trkpt>
      <trkpt lat="45.59645" lon="6.66812">
        <ele>1460</ele>
        <time>2018-02-10T08:11:06Z</time>
      </trkpt>
      <trkpt lat="45.5965" lon="6.66805">
        <ele>1461</ele>
        <time>2018-02-10T08:11:17Z</time>
      </trkpt>
      <trkpt lat="45.59652" lon="6.66798">
        <ele>1462</ele>
        <time>2018-02-10T08:11:27Z</time>
      </trkpt>
      <trkpt lat="45.5965" lon="6.66784">
        <ele>1465</ele>
        <time>2018-02-10T08:11:54Z</time>
      </trkpt>
      <trkpt lat="45.59646" lon="6.66777">
        <ele>1466</ele>
        <time>2018-02-10T08:12:17Z</time>
      </trkpt>
      <trkpt lat="45.59644" lon="6.66773">
        <ele>1466</ele>
        <time>2018-02-10T08:12:23Z</time>
      </trkpt>
      <trkpt lat="45.59649" lon="6.66773">
        <ele>1466</ele>
        <time>2018-02-10T08:12:32Z</time>
      </trkpt>
      <trkpt lat="45.59657" lon="6.66775">
        <ele>1466</ele>
        <time>2018-02-10T08:12:42Z</time>
      </trkpt>
      <trkpt lat="45.59662" lon="6.66774">
        <ele>1467</ele>
        <time>2018-02-10T08:13:52Z</time>
      </trkpt>
      <trkpt lat="45.59671" lon="6.66775">
        <ele>1474</ele>
        <time>2018-02-10T08:14:51Z</time>
      </trkpt>
      <trkpt lat="45.59679" lon="6.66781">
        <ele>1474</ele>
        <time>2018-02-10T08:15:02Z</time>
      </trkpt>
      <trkpt lat="45.59689" lon="6.66789">
        <ele>1474</ele>
        <time>2018-02-10T08:15:14Z</time>
      </trkpt>
      <trkpt lat="45.59698" lon="6.66799">
        <ele>1474</ele>
        <time>2018-02-10T08:15:28Z</time>
      </trkpt>
      <trkpt lat="45.59707" lon="6.66807">
        <ele>1474</ele>
        <time>2018-02-10T08:15:39Z</time>
      </trkpt>
      <trkpt lat="45.59711" lon="6.66812">
        <ele>1474</ele>
        <time>2018-02-10T08:15:46Z</time>
      </trkpt>
      <trkpt lat="45.59718" lon="6.66819">
        <ele>1475</ele>
        <time>2018-02-10T08:15:55Z</time>
      </trkpt>
      <trkpt lat="45.59719" lon="6.66821">
        <ele>1475</ele>
        <time>2018-02-10T08:15:58Z</time>
      </trkpt>
      <trkpt lat="45.59725" lon="6.66835">
        <ele>1469</ele>
        <time>2018-02-10T08:16:11Z</time>
      </trkpt>
      <trkpt lat="45.59728" lon="6.66846">
        <ele>1469</ele>
        <time>2018-02-10T08:16:21Z</time>
      </trkpt>
      <trkpt lat="45.59728" lon="6.66855">
        <ele>1469</ele>
        <time>2018-02-10T08:16:29Z</time>
      </trkpt>
      <trkpt lat="45.5973" lon="6.66869">
        <ele>1468</ele>
        <time>2018-02-10T08:16:41Z</time>
      </trkpt>
      <trkpt lat="45.5973" lon="6.66875">
        <ele>1468</ele>
        <time>2018-02-10T08:16:47Z</time>
      </trkpt>
      <trkpt lat="45.59731" lon="6.6689">
        <ele>1468</ele>
        <time>2018-02-10T08:16:58Z</time>
      </trkpt>
      <trkpt lat="45.59731" lon="6.66907">
        <ele>1469</ele>
        <time>2018-02-10T08:17:10Z</time>
      </trkpt>
      <trkpt lat="45.59732" lon="6.66921">
        <ele>1466</ele>
        <time>2018-02-10T08:17:21Z</time>
      </trkpt>
      <trkpt lat="45.59736" lon="6.66936">
        <ele>1465</ele>
        <time>2018-02-10T08:17:33Z</time>
      </trkpt>
      <trkpt lat="45.59744" lon="6.66951">
        <ele>1463</ele>
        <time>2018-02-10T08:17:46Z</time>
      </trkpt>
      <trkpt lat="45.59754" lon="6.66956">
        <ele>1472</ele>
        <time>2018-02-10T08:17:57Z</time>
      </trkpt>
      <trkpt lat="45.59764" lon="6.66953">
        <ele>1473</ele>
        <time>2018-02-10T08:18:08Z</time>
      </trkpt>
      <trkpt lat="45.59768" lon="6.66945">
        <ele>1474</ele>
        <time>2018-02-10T08:18:18Z</time>
      </trkpt>
      <trkpt lat="45.59773" lon="6.66939">
        <ele>1474</ele>
        <time>2018-02-10T08:18:27Z</time>
      </trkpt>
      <trkpt lat="45.59777" lon="6.66937">
        <ele>1475</ele>
        <time>2018-02-10T08:18:36Z</time>
      </trkpt>
      <trkpt lat="45.59785" lon="6.66935">
        <ele>1475</ele>
        <time>2018-02-10T08:18:50Z</time>
      </trkpt>
      <trkpt lat="45.59795" lon="6.66933">
        <ele>1476</ele>
        <time>2018-02-10T08:19:04Z</time>
      </trkpt>
      <trkpt lat="45.59804" lon="6.66928">
        <ele>1478</ele>
        <time>2018-02-10T08:19:16Z</time>
      </trkpt>
      <trkpt lat="45.59809" lon="6.66923">
        <ele>1479</ele>
        <time>2018-02-10T08:19:25Z</time>
      </trkpt>
      <trkpt lat="45.59814" lon="6.66915">
        <ele>1486</ele>
        <time>2018-02-10T08:19:42Z</time>
      </trkpt>
      <trkpt lat="45.59821" lon="6.66911">
        <ele>1487</ele>
        <time>2018-02-10T08:19:50Z</time>
      </trkpt>
      <trkpt lat="45.59828" lon="6.66908">
        <ele>1487</ele>
        <time>2018-02-10T08:20:00Z</time>
      </trkpt>
      <trkpt lat="45.59831" lon="6.66901">
        <ele>1487</ele>
        <time>2018-02-10T08:20:09Z</time>
      </trkpt>
      <trkpt lat="45.59832" lon="6.66897">
        <ele>1487</ele>
        <time>2018-02-10T08:20:13Z</time>
      </trkpt>
      <trkpt lat="45.59837" lon="6.66893">
        <ele>1499</ele>
        <time>2018-02-10T08:20:22Z</time>
      </trkpt>
      <trkpt lat="45.59844" lon="6.66891">
        <ele>1500</ele>
        <time>2018-02-10T08:20:35Z</time>
      </trkpt>
      <trkpt lat="45.5985" lon="6.66889">
        <ele>1501</ele>
        <time>2018-02-10T08:20:45Z</time>
      </trkpt>
      <trkpt lat="45.59856" lon="6.66891">
        <ele>1502</ele>
        <time>2018-02-10T08:20:56Z</time>
      </trkpt>
      <trkpt lat="45.59863" lon="6.66892">
        <ele>1503</ele>
        <time>2018-02-10T08:21:05Z</time>
      </trkpt>
      <trkpt lat="45.59869" lon="6.66892">
        <ele>1504</ele>
        <time>2018-02-10T08:21:16Z</time>
      </trkpt>
      <trkpt lat="45.59869" lon="6.66885">
        <ele>1505</ele>
        <time>2018-02-10T08:21:25Z</time>
      </trkpt>
      <trkpt lat="45.59867" lon="6.66878">
        <ele>1505</ele>
        <time>2018-02-10T08:21:38Z</time>
      </trkpt>
      <trkpt lat="45.59865" lon="6.6687">
        <ele>1506</ele>
        <time>2018-02-10T08:21:48Z</time>
      </trkpt>
      <trkpt lat="45.59863" lon="6.66859">
        <ele>1506</ele>
        <time>2018-02-10T08:21:58Z</time>
      </trkpt>
      <trkpt lat="45.5986" lon="6.66849">
        <ele>1506</ele>
        <time>2018-02-10T08:22:12Z</time>
      </trkpt>
      <trkpt lat="45.59859" lon="6.66844">
        <ele>1506</ele>
        <time>2018-02-10T08:22:22Z</time>
      </trkpt>
      <trkpt lat="45.59858" lon="6.66842">
        <ele>1506</ele>
        <time>2018-02-10T08:22:30Z</time>
      </trkpt>
      <trkpt lat="45.59861" lon="6.66842">
        <ele>1507</ele>
        <time>2018-02-10T08:22:40Z</time>
      </trkpt>
      <trkpt lat="45.59867" lon="6.66847">
        <ele>1508</ele>
        <time>2018-02-10T08:22:52Z</time>
      </trkpt>
      <trkpt lat="45.59872" lon="6.66851">
        <ele>1508</ele>
        <time>2018-02-10T08:23:01Z</time>
      </trkpt>
      <trkpt lat="45.59878" lon="6.66856">
        <ele>1509</ele>
        <time>2018-02-10T08:23:13Z</time>
      </trkpt>
      <trkpt lat="45.59883" lon="6.66858">
        <ele>1510</ele>
        <time>2018-02-10T08:23:23Z</time>
      </trkpt>
      <trkpt lat="45.5989" lon="6.6686">
        <ele>1511</ele>
        <time>2018-02-10T08:23:35Z</time>
      </trkpt>
      <trkpt lat="45.59896" lon="6.66862">
        <ele>1511</ele>
        <time>2018-02-10T08:23:45Z</time>
      </trkpt>
      <trkpt lat="45.59896" lon="6.66863">
        <ele>1511</ele>
        <time>2018-02-10T08:23:47Z</time>
      </trkpt>
      <trkpt lat="45.59896" lon="6.66859">
        <ele>1512</ele>
        <time>2018-02-10T08:23:55Z</time>
      </trkpt>
      <trkpt lat="45.59895" lon="6.66851">
        <ele>1513</ele>
        <time>2018-02-10T08:24:06Z</time>
      </trkpt>
      <trkpt lat="45.59893" lon="6.66843">
        <ele>1514</ele>
        <time>2018-02-10T08:24:19Z</time>
      </trkpt>
      <trkpt lat="45.59891" lon="6.66835">
        <ele>1514</ele>
        <time>2018-02-10T08:24:30Z</time>
      </trkpt>
      <trkpt lat="45.59889" lon="6.66828">
        <ele>1524</ele>
        <time>2018-02-10T08:24:40Z</time>
      </trkpt>
      <trkpt lat="45.59889" lon="6.66824">
        <ele>1524</ele>
        <time>2018-02-10T08:24:49Z</time>
      </trkpt>
      <trkpt lat="45.59888" lon="6.66817">
        <ele>1524</ele>
        <time>2018-02-10T08:24:57Z</time>
      </trkpt>
      <trkpt lat="45.59886" lon="6.66807">
        <ele>1524</ele>
        <time>2018-02-10T08:25:08Z</time>
      </trkpt>
      <trkpt lat="45.59884" lon="6.66797">
        <ele>1525</ele>
        <time>2018-02-10T08:25:18Z</time>
      </trkpt>
      <trkpt lat="45.59882" lon="6.66789">
        <ele>1525</ele>
        <time>2018-02-10T08:26:24Z</time>
      </trkpt>
      <trkpt lat="45.5988" lon="6.66777">
        <ele>1526</ele>
        <time>2018-02-10T08:26:34Z</time>
      </trkpt>
      <trkpt lat="45.59879" lon="6.66769">
        <ele>1527</ele>
        <time>2018-02-10T08:26:42Z</time>
      </trkpt>
      <trkpt lat="45.59878" lon="6.66763">
        <ele>1527</ele>
        <time>2018-02-10T08:26:47Z</time>
      </trkpt>
      <trkpt lat="45.59876" lon="6.66752">
        <ele>1527</ele>
        <time>2018-02-10T08:26:57Z</time>
      </trkpt>
      <trkpt lat="45.59876" lon="6.66743">
        <ele>1539</ele>
        <time>2018-02-10T08:27:07Z</time>
      </trkpt>
      <trkpt lat="45.59877" lon="6.66742">
        <ele>1539</ele>
        <time>2018-02-10T08:27:08Z</time>
      </trkpt>
      <trkpt lat="45.59876" lon="6.66734">
        <ele>1540</ele>
        <time>2018-02-10T08:27:17Z</time>
      </trkpt>
      <trkpt lat="45.59877" lon="6.66729">
        <ele>1540</ele>
        <time>2018-02-10T08:27:29Z</time>
      </trkpt>
      <trkpt lat="45.59877" lon="6.6672">
        <ele>1541</ele>
        <time>2018-02-10T08:27:37Z</time>
      </trkpt>
      <trkpt lat="45.59876" lon="6.66708">
        <ele>1543</ele>
        <time>2018-02-10T08:27:47Z</time>
      </trkpt>
      <trkpt lat="45.59876" lon="6.66696">
        <ele>1544</ele>
        <time>2018-02-10T08:27:57Z</time>
      </trkpt>
      <trkpt lat="45.59876" lon="6.66687">
        <ele>1545</ele>
        <time>2018-02-10T08:28:07Z</time>
      </trkpt>
      <trkpt lat="45.59875" lon="6.6668">
        <ele>1545</ele>
        <time>2018-02-10T08:28:14Z</time>
      </trkpt>
      <trkpt lat="45.59873" lon="6.66668">
        <ele>1546</ele>
        <time>2018-02-10T08:28:25Z</time>
      </trkpt>
      <trkpt lat="45.59874" lon="6.66668">
        <ele>1546</ele>
        <time>2018-02-10T08:28:30Z</time>
      </trkpt>
      <trkpt lat="45.59881" lon="6.66669">
        <ele>1547</ele>
        <time>2018-02-10T08:28:40Z</time>
      </trkpt>
      <trkpt lat="45.59886" lon="6.6667">
        <ele>1548</ele>
        <time>2018-02-10T08:28:49Z</time>
      </trkpt>
      <trkpt lat="45.59892" lon="6.66672">
        <ele>1549</ele>
        <time>2018-02-10T08:28:59Z</time>
      </trkpt>
      <trkpt lat="45.59896" lon="6.66676">
        <ele>1550</ele>
        <time>2018-02-10T08:29:05Z</time>
      </trkpt>
      <trkpt lat="45.599" lon="6.66679">
        <ele>1551</ele>
        <time>2018-02-10T08:29:13Z</time>
      </trkpt>
      <trkpt lat="45.599" lon="6.66672">
        <ele>1552</ele>
        <time>2018-02-10T08:29:19Z</time>
      </trkpt>
      <trkpt lat="45.59899" lon="6.66661">
        <ele>1562</ele>
        <time>2018-02-10T08:29:30Z</time>
      </trkpt>
      <trkpt lat="45.59898" lon="6.66657">
        <ele>1562</ele>
        <time>2018-02-10T08:29:40Z</time>
      </trkpt>
      <trkpt lat="45.59898" lon="6.66653">
        <ele>1563</ele>
        <time>2018-02-10T08:33:08Z</time>
      </trkpt>
      <trkpt lat="45.59897" lon="6.66644">
        <ele>1563</ele>
        <time>2018-02-10T08:33:21Z</time>
      </trkpt>
      <trkpt lat="45.59895" lon="6.66635">
        <ele>1564</ele>
        <time>2018-02-10T08:33:30Z</time>
      </trkpt>
      <trkpt lat="45.59894" lon="6.66628">
        <ele>1565</ele>
        <time>2018-02-10T08:33:40Z</time>
      </trkpt>
      <trkpt lat="45.59891" lon="6.66619">
        <ele>1567</ele>
        <time>2018-02-10T08:33:52Z</time>
      </trkpt>
      <trkpt lat="45.5989" lon="6.66612">
        <ele>1568</ele>
        <time>2018-02-10T08:34:03Z</time>
      </trkpt>
      <trkpt lat="45.5989" lon="6.66603">
        <ele>1569</ele>
        <time>2018-02-10T08:34:12Z</time>
      </trkpt>
      <trkpt lat="45.5989" lon="6.66591">
        <ele>1571</ele>
        <time>2018-02-10T08:34:27Z</time>
      </trkpt>
      <trkpt lat="45.5989" lon="6.66583">
        <ele>1571</ele>
        <time>2018-02-10T08:34:36Z</time>
      </trkpt>
      <trkpt lat="45.5989" lon="6.66572">
        <ele>1585</ele>
        <time>2018-02-10T08:34:47Z</time>
      </trkpt>
      <trkpt lat="45.5989" lon="6.66564">
        <ele>1586</ele>
        <time>2018-02-10T08:34:58Z</time>
      </trkpt>
      <trkpt lat="45.59889" lon="6.66553">
        <ele>1588</ele>
        <time>2018-02-10T08:35:09Z</time>
      </trkpt>
      <trkpt lat="45.59888" lon="6.66547">
        <ele>1588</ele>
        <time>2018-02-10T08:35:20Z</time>
      </trkpt>
      <trkpt lat="45.59889" lon="6.66539">
        <ele>1590</ele>
        <time>2018-02-10T08:35:31Z</time>
      </trkpt>
      <trkpt lat="45.5989" lon="6.66536">
        <ele>1590</ele>
        <time>2018-02-10T08:35:39Z</time>
      </trkpt>
      <trkpt lat="45.59895" lon="6.66538">
        <ele>1590</ele>
        <time>2018-02-10T08:35:48Z</time>
      </trkpt>
      <trkpt lat="45.59899" lon="6.66542">
        <ele>1590</ele>
        <time>2018-02-10T08:35:59Z</time>
      </trkpt>
      <trkpt lat="45.59903" lon="6.66542">
        <ele>1590</ele>
        <time>2018-02-10T08:36:08Z</time>
      </trkpt>
      <trkpt lat="45.59907" lon="6.66544">
        <ele>1589</ele>
        <time>2018-02-10T08:36:19Z</time>
      </trkpt>
      <trkpt lat="45.59907" lon="6.66541">
        <ele>1590</ele>
        <time>2018-02-10T08:36:29Z</time>
      </trkpt>
      <trkpt lat="45.59908" lon="6.66539">
        <ele>1590</ele>
        <time>2018-02-10T08:36:40Z</time>
      </trkpt>
      <trkpt lat="45.5991" lon="6.66535">
        <ele>1591</ele>
        <time>2018-02-10T08:36:52Z</time>
      </trkpt>
      <trkpt lat="45.59909" lon="6.66529">
        <ele>1592</ele>
        <time>2018-02-10T08:36:59Z</time>
      </trkpt>
      <trkpt lat="45.59908" lon="6.66521">
        <ele>1594</ele>
        <time>2018-02-10T08:37:09Z</time>
      </trkpt>
      <trkpt lat="45.5991" lon="6.6652">
        <ele>1594</ele>
        <time>2018-02-10T08:37:18Z</time>
      </trkpt>
      <trkpt lat="45.5991" lon="6.6652">
        <ele>1594</ele>
        <time>2018-02-10T08:37:22Z</time>
      </trkpt>
      <trkpt lat="45.59916" lon="6.66523">
        <ele>1594</ele>
        <time>2018-02-10T08:37:32Z</time>
      </trkpt>
      <trkpt lat="45.59919" lon="6.66521">
        <ele>1607</ele>
        <time>2018-02-10T08:37:41Z</time>
      </trkpt>
      <trkpt lat="45.59919" lon="6.66519">
        <ele>1607</ele>
        <time>2018-02-10T08:37:50Z</time>
      </trkpt>
      <trkpt lat="45.59919" lon="6.66514">
        <ele>1606</ele>
        <time>2018-02-10T08:37:59Z</time>
      </trkpt>
      <trkpt lat="45.59919" lon="6.66513">
        <ele>1606</ele>
        <time>2018-02-10T08:38:05Z</time>
      </trkpt>
      <trkpt lat="45.59919" lon="6.66511">
        <ele>1606</ele>
        <time>2018-02-10T08:38:18Z</time>
      </trkpt>
      <trkpt lat="45.59918" lon="6.66512">
        <ele>1606</ele>
        <time>2018-02-10T08:38:32Z</time>
      </trkpt>
      <trkpt lat="45.5992" lon="6.66511">
        <ele>1606</ele>
        <time>2018-02-10T08:38:41Z</time>
      </trkpt>
      <trkpt lat="45.5992" lon="6.66509">
        <ele>1605</ele>
        <time>2018-02-10T08:38:49Z</time>
      </trkpt>
      <trkpt lat="45.59922" lon="6.66508">
        <ele>1606</ele>
        <time>2018-02-10T08:38:56Z</time>
      </trkpt>
      <trkpt lat="45.59923" lon="6.66508">
        <ele>1606</ele>
        <time>2018-02-10T08:39:03Z</time>
      </trkpt>
      <trkpt lat="45.59923" lon="6.66506">
        <ele>1605</ele>
        <time>2018-02-10T08:39:05Z</time>
      </trkpt>
      <trkpt lat="45.59921" lon="6.66501">
        <ele>1604</ele>
        <time>2018-02-10T08:39:14Z</time>
      </trkpt>
      <trkpt lat="45.59924" lon="6.66498">
        <ele>1609</ele>
        <time>2018-02-10T08:39:24Z</time>
      </trkpt>
      <trkpt lat="45.59924" lon="6.66496">
        <ele>1610</ele>
        <time>2018-02-10T08:39:31Z</time>
      </trkpt>
      <trkpt lat="45.59925" lon="6.66495">
        <ele>1611</ele>
        <time>2018-02-10T08:39:37Z</time>
      </trkpt>
      <trkpt lat="45.59926" lon="6.66495">
        <ele>1611</ele>
        <time>2018-02-10T08:39:47Z</time>
      </trkpt>
      <trkpt lat="45.59928" lon="6.66496">
        <ele>1612</ele>
        <time>2018-02-10T08:39:58Z</time>
      </trkpt>
      <trkpt lat="45.59928" lon="6.66492">
        <ele>1614</ele>
        <time>2018-02-10T08:40:05Z</time>
      </trkpt>
      <trkpt lat="45.59928" lon="6.6649">
        <ele>1615</ele>
        <time>2018-02-10T08:40:12Z</time>
      </trkpt>
      <trkpt lat="45.59928" lon="6.66487">
        <ele>1616</ele>
        <time>2018-02-10T08:40:16Z</time>
      </trkpt>
      <trkpt lat="45.59926" lon="6.66476">
        <ele>1619</ele>
        <time>2018-02-10T08:40:26Z</time>
      </trkpt>
      <trkpt lat="45.59927" lon="6.66474">
        <ele>1620</ele>
        <time>2018-02-10T08:40:38Z</time>
      </trkpt>
      <trkpt lat="45.59925" lon="6.66469">
        <ele>1621</ele>
        <time>2018-02-10T08:40:57Z</time>
      </trkpt>
      <trkpt lat="45.59924" lon="6.66461">
        <ele>1623</ele>
        <time>2018-02-10T08:41:07Z</time>
      </trkpt>
      <trkpt lat="45.59923" lon="6.66448">
        <ele>1624</ele>
        <time>2018-02-10T08:41:18Z</time>
      </trkpt>
      <trkpt lat="45.59923" lon="6.66441">
        <ele>1624</ele>
        <time>2018-02-10T08:41:29Z</time>
      </trkpt>
      <trkpt lat="45.59923" lon="6.66442">
        <ele>1624</ele>
        <time>2018-02-10T08:41:42Z</time>
      </trkpt>
      <trkpt lat="45.59926" lon="6.66447">
        <ele>1624</ele>
        <time>2018-02-10T08:41:52Z</time>
      </trkpt>
      <trkpt lat="45.59928" lon="6.66449">
        <ele>1624</ele>
        <time>2018-02-10T08:42:01Z</time>
      </trkpt>
      <trkpt lat="45.59929" lon="6.6645">
        <ele>1624</ele>
        <time>2018-02-10T08:42:10Z</time>
      </trkpt>
      <trkpt lat="45.59929" lon="6.66449">
        <ele>1624</ele>
        <time>2018-02-10T08:42:24Z</time>
      </trkpt>
      <trkpt lat="45.59929" lon="6.66447">
        <ele>1625</ele>
        <time>2018-02-10T08:42:35Z</time>
      </trkpt>
      <trkpt lat="45.5993" lon="6.66441">
        <ele>1625</ele>
        <time>2018-02-10T08:42:44Z</time>
      </trkpt>
      <trkpt lat="45.59931" lon="6.66441">
        <ele>1625</ele>
        <time>2018-02-10T08:42:54Z</time>
      </trkpt>
      <trkpt lat="45.59932" lon="6.66445">
        <ele>1625</ele>
        <time>2018-02-10T08:43:04Z</time>
      </trkpt>
      <trkpt lat="45.59933" lon="6.66441">
        <ele>1625</ele>
        <time>2018-02-10T08:43:13Z</time>
      </trkpt>
      <trkpt lat="45.59933" lon="6.66438">
        <ele>1625</ele>
        <time>2018-02-10T08:43:23Z</time>
      </trkpt>
      <trkpt lat="45.59935" lon="6.66442">
        <ele>1626</ele>
        <time>2018-02-10T08:43:32Z</time>
      </trkpt>
      <trkpt lat="45.59936" lon="6.66443">
        <ele>1626</ele>
        <time>2018-02-10T08:43:40Z</time>
      </trkpt>
      <trkpt lat="45.59937" lon="6.66439">
        <ele>1626</ele>
        <time>2018-02-10T08:43:56Z</time>
      </trkpt>
      <trkpt lat="45.59936" lon="6.66441">
        <ele>1626</ele>
        <time>2018-02-10T08:44:14Z</time>
      </trkpt>
      <trkpt lat="45.59935" lon="6.66445">
        <ele>1625</ele>
        <time>2018-02-10T08:44:32Z</time>
      </trkpt>
      <trkpt lat="45.59939" lon="6.66446">
        <ele>1626</ele>
        <time>2018-02-10T08:44:41Z</time>
      </trkpt>
      <trkpt lat="45.59939" lon="6.66444">
        <ele>1626</ele>
        <time>2018-02-10T08:44:49Z</time>
      </trkpt>
      <trkpt lat="45.59942" lon="6.66443">
        <ele>1627</ele>
        <time>2018-02-10T08:44:57Z</time>
      </trkpt>
      <trkpt lat="45.59942" lon="6.66443">
        <ele>1627</ele>
        <time>2018-02-10T08:44:58Z</time>
      </trkpt>
      <trkpt lat="45.59944" lon="6.66438">
        <ele>1627</ele>
        <time>2018-02-10T08:45:06Z</time>
      </trkpt>
      <trkpt lat="45.59946" lon="6.66435">
        <ele>1628</ele>
        <time>2018-02-10T08:45:14Z</time>
      </trkpt>
      <trkpt lat="45.59945" lon="6.66436">
        <ele>1627</ele>
        <time>2018-02-10T08:45:24Z</time>
      </trkpt>
      <trkpt lat="45.59946" lon="6.66437">
        <ele>1628</ele>
        <time>2018-02-10T08:45:36Z</time>
      </trkpt>
      <trkpt lat="45.59947" lon="6.6644">
        <ele>1628</ele>
        <time>2018-02-10T08:45:46Z</time>
      </trkpt>
      <trkpt lat="45.59948" lon="6.66443">
        <ele>1628</ele>
        <time>2018-02-10T08:45:57Z</time>
      </trkpt>
      <trkpt lat="45.59946" lon="6.66445">
        <ele>1627</ele>
        <time>2018-02-10T08:46:13Z</time>
      </trkpt>
      <trkpt lat="45.59949" lon="6.66446">
        <ele>1628</ele>
        <time>2018-02-10T08:46:35Z</time>
      </trkpt>
      <trkpt lat="45.59952" lon="6.66444">
        <ele>1629</ele>
        <time>2018-02-10T08:46:46Z</time>
      </trkpt>
      <trkpt lat="45.59954" lon="6.66442">
        <ele>1629</ele>
        <time>2018-02-10T08:46:56Z</time>
      </trkpt>
      <trkpt lat="45.59955" lon="6.66442">
        <ele>1629</ele>
        <time>2018-02-10T08:47:06Z</time>
      </trkpt>
      <trkpt lat="45.59957" lon="6.66443">
        <ele>1630</ele>
        <time>2018-02-10T08:47:14Z</time>
      </trkpt>
      <trkpt lat="45.59957" lon="6.66443">
        <ele>1630</ele>
        <time>2018-02-10T08:47:25Z</time>
      </trkpt>
      <trkpt lat="45.59957" lon="6.66443">
        <ele>1630</ele>
        <time>2018-02-10T08:47:26Z</time>
      </trkpt>
      <trkpt lat="45.59959" lon="6.66445">
        <ele>1630</ele>
        <time>2018-02-10T08:47:34Z</time>
      </trkpt>
      <trkpt lat="45.59963" lon="6.66446">
        <ele>1631</ele>
        <time>2018-02-10T08:47:46Z</time>
      </trkpt>
      <trkpt lat="45.59964" lon="6.66444">
        <ele>1631</ele>
        <time>2018-02-10T08:47:52Z</time>
      </trkpt>
      <trkpt lat="45.59966" lon="6.66439">
        <ele>1632</ele>
        <time>2018-02-10T08:48:02Z</time>
      </trkpt>
      <trkpt lat="45.59967" lon="6.6644">
        <ele>1632</ele>
        <time>2018-02-10T08:48:12Z</time>
      </trkpt>
      <trkpt lat="45.5997" lon="6.66441">
        <ele>1633</ele>
        <time>2018-02-10T08:48:22Z</time>
      </trkpt>
      <trkpt lat="45.59972" lon="6.66437">
        <ele>1634</ele>
        <time>2018-02-10T08:48:31Z</time>
      </trkpt>
      <trkpt lat="45.59973" lon="6.6643">
        <ele>1635</ele>
        <time>2018-02-10T08:48:43Z</time>
      </trkpt>
      <trkpt lat="45.59973" lon="6.66426">
        <ele>1635</ele>
        <time>2018-02-10T08:48:56Z</time>
      </trkpt>
      <trkpt lat="45.59972" lon="6.66421">
        <ele>1635</ele>
        <time>2018-02-10T08:49:01Z</time>
      </trkpt>
      <trkpt lat="45.59972" lon="6.6641">
        <ele>1642</ele>
        <time>2018-02-10T08:49:11Z</time>
      </trkpt>
      <trkpt lat="45.59974" lon="6.66404">
        <ele>1642</ele>
        <time>2018-02-10T08:49:22Z</time>
      </trkpt>
      <trkpt lat="45.59975" lon="6.66397">
        <ele>1643</ele>
        <time>2018-02-10T08:49:32Z</time>
      </trkpt>
      <trkpt lat="45.59977" lon="6.66393">
        <ele>1643</ele>
        <time>2018-02-10T08:49:42Z</time>
      </trkpt>
      <trkpt lat="45.59978" lon="6.6639">
        <ele>1643</ele>
        <time>2018-02-10T08:49:52Z</time>
      </trkpt>
      <trkpt lat="45.59979" lon="6.66389">
        <ele>1643</ele>
        <time>2018-02-10T08:50:05Z</time>
      </trkpt>
      <trkpt lat="45.59977" lon="6.66388">
        <ele>1643</ele>
        <time>2018-02-10T08:50:29Z</time>
      </trkpt>
      <trkpt lat="45.59978" lon="6.66387">
        <ele>1643</ele>
        <time>2018-02-10T08:50:49Z</time>
      </trkpt>
      <trkpt lat="45.59977" lon="6.66385">
        <ele>1643</ele>
        <time>2018-02-10T08:51:12Z</time>
      </trkpt>
      <trkpt lat="45.59978" lon="6.66386">
        <ele>1643</ele>
        <time>2018-02-10T08:51:27Z</time>
      </trkpt>
      <trkpt lat="45.59979" lon="6.66387">
        <ele>1643</ele>
        <time>2018-02-10T08:51:48Z</time>
      </trkpt>
      <trkpt lat="45.59982" lon="6.66391">
        <ele>1643</ele>
        <time>2018-02-10T08:51:57Z</time>
      </trkpt>
      <trkpt lat="45.59982" lon="6.66393">
        <ele>1643</ele>
        <time>2018-02-10T08:52:00Z</time>
      </trkpt>
      <trkpt lat="45.59986" lon="6.66401">
        <ele>1645</ele>
        <time>2018-02-10T08:52:09Z</time>
      </trkpt>
      <trkpt lat="45.59991" lon="6.66414">
        <ele>1647</ele>
        <time>2018-02-10T08:52:20Z</time>
      </trkpt>
      <trkpt lat="45.59995" lon="6.66425">
        <ele>1644</ele>
        <time>2018-02-10T08:52:29Z</time>
      </trkpt>
      <trkpt lat="45.59996" lon="6.6643">
        <ele>1642</ele>
        <time>2018-02-10T08:52:34Z</time>
      </trkpt>
      <trkpt lat="45.59997" lon="6.66452">
        <ele>1636</ele>
        <time>2018-02-10T08:53:20Z</time>
      </trkpt>
      <trkpt lat="45.59999" lon="6.66452">
        <ele>1636</ele>
        <time>2018-02-10T08:53:35Z</time>
      </trkpt>
      <trkpt lat="45.60004" lon="6.66429">
        <ele>1659</ele>
        <time>2018-02-10T08:54:19Z</time>
      </trkpt>
      <trkpt lat="45.60004" lon="6.66414">
        <ele>1655</ele>
        <time>2018-02-10T08:54:30Z</time>
      </trkpt>
      <trkpt lat="45.60005" lon="6.66396">
        <ele>1665</ele>
        <time>2018-02-10T08:54:41Z</time>
      </trkpt>
      <trkpt lat="45.60004" lon="6.66379">
        <ele>1668</ele>
        <time>2018-02-10T08:54:52Z</time>
      </trkpt>
      <trkpt lat="45.60003" lon="6.66365">
        <ele>1668</ele>
        <time>2018-02-10T08:55:01Z</time>
      </trkpt>
      <trkpt lat="45.60002" lon="6.66358">
        <ele>1666</ele>
        <time>2018-02-10T08:55:06Z</time>
      </trkpt>
      <trkpt lat="45.59999" lon="6.66338">
        <ele>1652</ele>
        <time>2018-02-10T08:55:18Z</time>
      </trkpt>
      <trkpt lat="45.59999" lon="6.66321">
        <ele>1655</ele>
        <time>2018-02-10T08:55:29Z</time>
      </trkpt>
      <trkpt lat="45.6" lon="6.66302">
        <ele>1656</ele>
        <time>2018-02-10T08:55:41Z</time>
      </trkpt>
      <trkpt lat="45.59999" lon="6.66286">
        <ele>1658</ele>
        <time>2018-02-10T08:55:52Z</time>
      </trkpt>
      <trkpt lat="45.6" lon="6.66271">
        <ele>1671</ele>
        <time>2018-02-10T08:56:02Z</time>
      </trkpt>
      <trkpt lat="45.60001" lon="6.66258">
        <ele>1668</ele>
        <time>2018-02-10T08:56:11Z</time>
      </trkpt>
      <trkpt lat="45.6" lon="6.66237">
        <ele>1669</ele>
        <time>2018-02-10T08:56:24Z</time>
      </trkpt>
      <trkpt lat="45.60002" lon="6.66227">
        <ele>1677</ele>
        <time>2018-02-10T08:56:32Z</time>
      </trkpt>
      <trkpt lat="45.60002" lon="6.66208">
        <ele>1681</ele>
        <time>2018-02-10T08:56:44Z</time>
      </trkpt>
      <trkpt lat="45.60001" lon="6.66192">
        <ele>1682</ele>
        <time>2018-02-10T08:56:55Z</time>
      </trkpt>
      <trkpt lat="45.60001" lon="6.66191">
        <ele>1683</ele>
        <time>2018-02-10T08:56:56Z</time>
      </trkpt>
      <trkpt lat="45.60004" lon="6.66187">
        <ele>1683</ele>
        <time>2018-02-10T08:57:00Z</time>
      </trkpt>
      <trkpt lat="45.60009" lon="6.66187">
        <ele>1683</ele>
        <time>2018-02-10T08:57:06Z</time>
      </trkpt>
      <trkpt lat="45.60011" lon="6.6619">
        <ele>1683</ele>
        <time>2018-02-10T08:57:09Z</time>
      </trkpt>
      <trkpt lat="45.60014" lon="6.66207">
        <ele>1682</ele>
        <time>2018-02-10T08:57:21Z</time>
      </trkpt>
      <trkpt lat="45.60015" lon="6.66213">
        <ele>1682</ele>
        <time>2018-02-10T08:57:25Z</time>
      </trkpt>
      <trkpt lat="45.60022" lon="6.66224">
        <ele>1681</ele>
        <time>2018-02-10T08:57:36Z</time>
      </trkpt>
      <trkpt lat="45.60025" lon="6.6623">
        <ele>1681</ele>
        <time>2018-02-10T08:57:47Z</time>
      </trkpt>
      <trkpt lat="45.60027" lon="6.66235">
        <ele>1681</ele>
        <time>2018-02-10T08:57:57Z</time>
      </trkpt>
      <trkpt lat="45.60027" lon="6.66236">
        <ele>1681</ele>
        <time>2018-02-10T08:58:07Z</time>
      </trkpt>
      <trkpt lat="45.60032" lon="6.66234">
        <ele>1682</ele>
        <time>2018-02-10T08:58:20Z</time>
      </trkpt>
      <trkpt lat="45.60033" lon="6.66226">
        <ele>1683</ele>
        <time>2018-02-10T08:58:29Z</time>
      </trkpt>
      <trkpt lat="45.60034" lon="6.66222">
        <ele>1684</ele>
        <time>2018-02-10T08:58:34Z</time>
      </trkpt>
      <trkpt lat="45.60039" lon="6.66229">
        <ele>1685</ele>
        <time>2018-02-10T08:58:44Z</time>
      </trkpt>
      <trkpt lat="45.60044" lon="6.66229">
        <ele>1686</ele>
        <time>2018-02-10T08:58:51Z</time>
      </trkpt>
      <trkpt lat="45.60044" lon="6.66217">
        <ele>1686</ele>
        <time>2018-02-10T08:59:02Z</time>
      </trkpt>
      <trkpt lat="45.60045" lon="6.6621">
        <ele>1687</ele>
        <time>2018-02-10T08:59:08Z</time>
      </trkpt>
      <trkpt lat="45.60047" lon="6.66199">
        <ele>1688</ele>
        <time>2018-02-10T08:59:18Z</time>
      </trkpt>
      <trkpt lat="45.60047" lon="6.66187">
        <ele>1688</ele>
        <time>2018-02-10T08:59:30Z</time>
      </trkpt>
      <trkpt lat="45.60047" lon="6.66179">
        <ele>1689</ele>
        <time>2018-02-10T08:59:40Z</time>
      </trkpt>
      <trkpt lat="45.60048" lon="6.66179">
        <ele>1689</ele>
        <time>2018-02-10T08:59:46Z</time>
      </trkpt>
      <trkpt lat="45.60051" lon="6.66186">
        <ele>1689</ele>
        <time>2018-02-10T08:59:55Z</time>
      </trkpt>
      <trkpt lat="45.60054" lon="6.6619">
        <ele>1689</ele>
        <time>2018-02-10T09:00:03Z</time>
      </trkpt>
      <trkpt lat="45.60061" lon="6.66197">
        <ele>1690</ele>
        <time>2018-02-10T09:00:13Z</time>
      </trkpt>
      <trkpt lat="45.60064" lon="6.662">
        <ele>1690</ele>
        <time>2018-02-10T09:00:22Z</time>
      </trkpt>
      <trkpt lat="45.60068" lon="6.66204">
        <ele>1690</ele>
        <time>2018-02-10T09:00:31Z</time>
      </trkpt>
      <trkpt lat="45.60073" lon="6.66211">
        <ele>1691</ele>
        <time>2018-02-10T09:00:43Z</time>
      </trkpt>
      <trkpt lat="45.60075" lon="6.66216">
        <ele>1691</ele>
        <time>2018-02-10T09:00:53Z</time>
      </trkpt>
      <trkpt lat="45.60078" lon="6.66222">
        <ele>1691</ele>
        <time>2018-02-10T09:01:03Z</time>
      </trkpt>
      <trkpt lat="45.60081" lon="6.66229">
        <ele>1692</ele>
        <time>2018-02-10T09:01:14Z</time>
      </trkpt>
      <trkpt lat="45.60084" lon="6.66227">
        <ele>1715</ele>
        <time>2018-02-10T09:01:25Z</time>
      </trkpt>
      <trkpt lat="45.60087" lon="6.66219">
        <ele>1718</ele>
        <time>2018-02-10T09:01:35Z</time>
      </trkpt>
      <trkpt lat="45.60089" lon="6.66215">
        <ele>1718</ele>
        <time>2018-02-10T09:01:40Z</time>
      </trkpt>
      <trkpt lat="45.6009" lon="6.66204">
        <ele>1719</ele>
        <time>2018-02-10T09:01:49Z</time>
      </trkpt>
      <trkpt lat="45.60089" lon="6.66188">
        <ele>1716</ele>
        <time>2018-02-10T09:02:01Z</time>
      </trkpt>
      <trkpt lat="45.60087" lon="6.66174">
        <ele>1709</ele>
        <time>2018-02-10T09:02:12Z</time>
      </trkpt>
      <trkpt lat="45.60085" lon="6.66159">
        <ele>1710</ele>
        <time>2018-02-10T09:02:24Z</time>
      </trkpt>
      <trkpt lat="45.60082" lon="6.66148">
        <ele>1701</ele>
        <time>2018-02-10T09:02:34Z</time>
      </trkpt>
      <trkpt lat="45.6008" lon="6.66135">
        <ele>1702</ele>
        <time>2018-02-10T09:02:46Z</time>
      </trkpt>
      <trkpt lat="45.60077" lon="6.66123">
        <ele>1703</ele>
        <time>2018-02-10T09:02:57Z</time>
      </trkpt>
      <trkpt lat="45.60074" lon="6.6611">
        <ele>1705</ele>
        <time>2018-02-10T09:03:10Z</time>
      </trkpt>
      <trkpt lat="45.60073" lon="6.66108">
        <ele>1706</ele>
        <time>2018-02-10T09:03:12Z</time>
      </trkpt>
      <trkpt lat="45.60072" lon="6.66102">
        <ele>1707</ele>
        <time>2018-02-10T09:03:16Z</time>
      </trkpt>
      <trkpt lat="45.60068" lon="6.66087">
        <ele>1709</ele>
        <time>2018-02-10T09:03:28Z</time>
      </trkpt>
      <trkpt lat="45.60066" lon="6.66079">
        <ele>1717</ele>
        <time>2018-02-10T09:03:36Z</time>
      </trkpt>
      <trkpt lat="45.60062" lon="6.66066">
        <ele>1717</ele>
        <time>2018-02-10T09:03:48Z</time>
      </trkpt>
      <trkpt lat="45.60057" lon="6.66058">
        <ele>1717</ele>
        <time>2018-02-10T09:03:57Z</time>
      </trkpt>
      <trkpt lat="45.6005" lon="6.66048">
        <ele>1718</ele>
        <time>2018-02-10T09:04:10Z</time>
      </trkpt>
      <trkpt lat="45.60045" lon="6.66038">
        <ele>1719</ele>
        <time>2018-02-10T09:04:18Z</time>
      </trkpt>
      <trkpt lat="45.60042" lon="6.66027">
        <ele>1719</ele>
        <time>2018-02-10T09:04:29Z</time>
      </trkpt>
      <trkpt lat="45.60039" lon="6.66017">
        <ele>1720</ele>
        <time>2018-02-10T09:04:39Z</time>
      </trkpt>
      <trkpt lat="45.60036" lon="6.66006">
        <ele>1721</ele>
        <time>2018-02-10T09:04:48Z</time>
      </trkpt>
      <trkpt lat="45.60035" lon="6.66001">
        <ele>1721</ele>
        <time>2018-02-10T09:04:53Z</time>
      </trkpt>
      <trkpt lat="45.60033" lon="6.65986">
        <ele>1732</ele>
        <time>2018-02-10T09:05:05Z</time>
      </trkpt>
      <trkpt lat="45.6003" lon="6.65972">
        <ele>1733</ele>
        <time>2018-02-10T09:05:16Z</time>
      </trkpt>
      <trkpt lat="45.60031" lon="6.6596">
        <ele>1735</ele>
        <time>2018-02-10T09:05:28Z</time>
      </trkpt>
      <trkpt lat="45.60034" lon="6.65957">
        <ele>1735</ele>
        <time>2018-02-10T09:05:32Z</time>
      </trkpt>
      <trkpt lat="45.60041" lon="6.65964">
        <ele>1735</ele>
        <time>2018-02-10T09:05:43Z</time>
      </trkpt>
      <trkpt lat="45.60047" lon="6.65977">
        <ele>1734</ele>
        <time>2018-02-10T09:05:55Z</time>
      </trkpt>
      <trkpt lat="45.6005" lon="6.65982">
        <ele>1734</ele>
        <time>2018-02-10T09:06:02Z</time>
      </trkpt>
      <trkpt lat="45.60056" lon="6.65988">
        <ele>1734</ele>
        <time>2018-02-10T09:06:10Z</time>
      </trkpt>
      <trkpt lat="45.60062" lon="6.65996">
        <ele>1734</ele>
        <time>2018-02-10T09:06:21Z</time>
      </trkpt>
      <trkpt lat="45.6007" lon="6.66002">
        <ele>1727</ele>
        <time>2018-02-10T09:06:33Z</time>
      </trkpt>
      <trkpt lat="45.60071" lon="6.66003">
        <ele>1728</ele>
        <time>2018-02-10T09:06:34Z</time>
      </trkpt>
      <trkpt lat="45.60079" lon="6.66007">
        <ele>1729</ele>
        <time>2018-02-10T09:06:47Z</time>
      </trkpt>
      <trkpt lat="45.60081" lon="6.66">
        <ele>1734</ele>
        <time>2018-02-10T09:06:59Z</time>
      </trkpt>
      <trkpt lat="45.6009" lon="6.65997">
        <ele>1741</ele>
        <time>2018-02-10T09:07:35Z</time>
      </trkpt>
      <trkpt lat="45.60089" lon="6.65992">
        <ele>1742</ele>
        <time>2018-02-10T09:07:42Z</time>
      </trkpt>
      <trkpt lat="45.60088" lon="6.65991">
        <ele>1743</ele>
        <time>2018-02-10T09:07:43Z</time>
      </trkpt>
      <trkpt lat="45.60081" lon="6.6598">
        <ele>1735</ele>
        <time>2018-02-10T09:07:56Z</time>
      </trkpt>
      <trkpt lat="45.60077" lon="6.65971">
        <ele>1736</ele>
        <time>2018-02-10T09:08:06Z</time>
      </trkpt>
      <trkpt lat="45.60073" lon="6.65957">
        <ele>1737</ele>
        <time>2018-02-10T09:08:18Z</time>
      </trkpt>
      <trkpt lat="45.6007" lon="6.65943">
        <ele>1739</ele>
        <time>2018-02-10T09:08:30Z</time>
      </trkpt>
      <trkpt lat="45.60069" lon="6.65938">
        <ele>1739</ele>
        <time>2018-02-10T09:08:35Z</time>
      </trkpt>
      <trkpt lat="45.60068" lon="6.65923">
        <ele>1741</ele>
        <time>2018-02-10T09:08:47Z</time>
      </trkpt>
      <trkpt lat="45.60065" lon="6.65909">
        <ele>1749</ele>
        <time>2018-02-10T09:09:01Z</time>
      </trkpt>
      <trkpt lat="45.6006" lon="6.65897">
        <ele>1750</ele>
        <time>2018-02-10T09:09:11Z</time>
      </trkpt>
      <trkpt lat="45.6006" lon="6.65887">
        <ele>1750</ele>
        <time>2018-02-10T09:09:19Z</time>
      </trkpt>
      <trkpt lat="45.60066" lon="6.65882">
        <ele>1751</ele>
        <time>2018-02-10T09:09:29Z</time>
      </trkpt>
      <trkpt lat="45.60076" lon="6.65895">
        <ele>1749</ele>
        <time>2018-02-10T09:09:43Z</time>
      </trkpt>
      <trkpt lat="45.60079" lon="6.65902">
        <ele>1749</ele>
        <time>2018-02-10T09:09:51Z</time>
      </trkpt>
      <trkpt lat="45.60085" lon="6.65909">
        <ele>1752</ele>
        <time>2018-02-10T09:10:01Z</time>
      </trkpt>
      <trkpt lat="45.60093" lon="6.65913">
        <ele>1753</ele>
        <time>2018-02-10T09:10:12Z</time>
      </trkpt>
      <trkpt lat="45.60093" lon="6.6591">
        <ele>1754</ele>
        <time>2018-02-10T09:10:15Z</time>
      </trkpt>
      <trkpt lat="45.60093" lon="6.65899">
        <ele>1758</ele>
        <time>2018-02-10T09:10:28Z</time>
      </trkpt>
      <trkpt lat="45.60092" lon="6.65892">
        <ele>1759</ele>
        <time>2018-02-10T09:10:36Z</time>
      </trkpt>
      <trkpt lat="45.6009" lon="6.65877">
        <ele>1762</ele>
        <time>2018-02-10T09:10:48Z</time>
      </trkpt>
      <trkpt lat="45.6009" lon="6.65861">
        <ele>1763</ele>
        <time>2018-02-10T09:11:01Z</time>
      </trkpt>
      <trkpt lat="45.6009" lon="6.65852">
        <ele>1762</ele>
        <time>2018-02-10T09:11:10Z</time>
      </trkpt>
      <trkpt lat="45.60092" lon="6.65838">
        <ele>1761</ele>
        <time>2018-02-10T09:11:22Z</time>
      </trkpt>
      <trkpt lat="45.60092" lon="6.65828">
        <ele>1764</ele>
        <time>2018-02-10T09:11:33Z</time>
      </trkpt>
      <trkpt lat="45.60092" lon="6.65814">
        <ele>1768</ele>
        <time>2018-02-10T09:11:45Z</time>
      </trkpt>
      <trkpt lat="45.60092" lon="6.65812">
        <ele>1768</ele>
        <time>2018-02-10T09:11:46Z</time>
      </trkpt>
      <trkpt lat="45.60092" lon="6.65801">
        <ele>1771</ele>
        <time>2018-02-10T09:11:58Z</time>
      </trkpt>
      <trkpt lat="45.60093" lon="6.65797">
        <ele>1771</ele>
        <time>2018-02-10T09:12:02Z</time>
      </trkpt>
      <trkpt lat="45.60093" lon="6.65782">
        <ele>1772</ele>
        <time>2018-02-10T09:12:14Z</time>
      </trkpt>
      <trkpt lat="45.60093" lon="6.65769">
        <ele>1772</ele>
        <time>2018-02-10T09:12:25Z</time>
      </trkpt>
      <trkpt lat="45.60093" lon="6.65757">
        <ele>1772</ele>
        <time>2018-02-10T09:12:36Z</time>
      </trkpt>
      <trkpt lat="45.60097" lon="6.65746">
        <ele>1776</ele>
        <time>2018-02-10T09:12:47Z</time>
      </trkpt>
      <trkpt lat="45.60105" lon="6.65747">
        <ele>1779</ele>
        <time>2018-02-10T09:12:58Z</time>
      </trkpt>
      <trkpt lat="45.60109" lon="6.65756">
        <ele>1774</ele>
        <time>2018-02-10T09:13:10Z</time>
      </trkpt>
      <trkpt lat="45.60113" lon="6.6576">
        <ele>1775</ele>
        <time>2018-02-10T09:13:20Z</time>
      </trkpt>
      <trkpt lat="45.60113" lon="6.65756">
        <ele>1775</ele>
        <time>2018-02-10T09:13:25Z</time>
      </trkpt>
      <trkpt lat="45.60115" lon="6.6575">
        <ele>1782</ele>
        <time>2018-02-10T09:13:34Z</time>
      </trkpt>
      <trkpt lat="45.60117" lon="6.65738">
        <ele>1783</ele>
        <time>2018-02-10T09:13:46Z</time>
      </trkpt>
      <trkpt lat="45.60118" lon="6.65726">
        <ele>1784</ele>
        <time>2018-02-10T09:14:01Z</time>
      </trkpt>
      <trkpt lat="45.60118" lon="6.65721">
        <ele>1784</ele>
        <time>2018-02-10T09:14:07Z</time>
      </trkpt>
      <trkpt lat="45.6012" lon="6.6571">
        <ele>1785</ele>
        <time>2018-02-10T09:14:17Z</time>
      </trkpt>
      <trkpt lat="45.60121" lon="6.65704">
        <ele>1786</ele>
        <time>2018-02-10T09:14:29Z</time>
      </trkpt>
      <trkpt lat="45.60124" lon="6.65703">
        <ele>1786</ele>
        <time>2018-02-10T09:14:46Z</time>
      </trkpt>
      <trkpt lat="45.60122" lon="6.65703">
        <ele>1786</ele>
        <time>2018-02-10T09:15:10Z</time>
      </trkpt>
      <trkpt lat="45.60124" lon="6.65703">
        <ele>1786</ele>
        <time>2018-02-10T09:15:24Z</time>
      </trkpt>
      <trkpt lat="45.60126" lon="6.65704">
        <ele>1786</ele>
        <time>2018-02-10T09:15:44Z</time>
      </trkpt>
      <trkpt lat="45.60122" lon="6.65702">
        <ele>1786</ele>
        <time>2018-02-10T09:16:10Z</time>
      </trkpt>
      <trkpt lat="45.60122" lon="6.65704">
        <ele>1786</ele>
        <time>2018-02-10T09:16:36Z</time>
      </trkpt>
      <trkpt lat="45.60121" lon="6.657">
        <ele>1786</ele>
        <time>2018-02-10T09:17:00Z</time>
      </trkpt>
      <trkpt lat="45.60125" lon="6.65703">
        <ele>1786</ele>
        <time>2018-02-10T09:17:27Z</time>
      </trkpt>
      <trkpt lat="45.60124" lon="6.657">
        <ele>1786</ele>
        <time>2018-02-10T09:17:46Z</time>
      </trkpt>
      <trkpt lat="45.60127" lon="6.65691">
        <ele>1787</ele>
        <time>2018-02-10T09:17:57Z</time>
      </trkpt>
      <trkpt lat="45.6013" lon="6.65679">
        <ele>1788</ele>
        <time>2018-02-10T09:18:10Z</time>
      </trkpt>
      <trkpt lat="45.60132" lon="6.65668">
        <ele>1789</ele>
        <time>2018-02-10T09:18:22Z</time>
      </trkpt>
      <trkpt lat="45.6014" lon="6.65661">
        <ele>1797</ele>
        <time>2018-02-10T09:18:36Z</time>
      </trkpt>
      <trkpt lat="45.60148" lon="6.65655">
        <ele>1797</ele>
        <time>2018-02-10T09:18:50Z</time>
      </trkpt>
      <trkpt lat="45.60151" lon="6.65649">
        <ele>1798</ele>
        <time>2018-02-10T09:19:00Z</time>
      </trkpt>
      <trkpt lat="45.60154" lon="6.65642">
        <ele>1798</ele>
        <time>2018-02-10T09:19:12Z</time>
      </trkpt>
      <trkpt lat="45.60154" lon="6.65633">
        <ele>1799</ele>
        <time>2018-02-10T09:19:21Z</time>
      </trkpt>
      <trkpt lat="45.60151" lon="6.65621">
        <ele>1800</ele>
        <time>2018-02-10T09:19:32Z</time>
      </trkpt>
      <trkpt lat="45.60147" lon="6.65614">
        <ele>1801</ele>
        <time>2018-02-10T09:19:42Z</time>
      </trkpt>
      <trkpt lat="45.60147" lon="6.65607">
        <ele>1801</ele>
        <time>2018-02-10T09:19:55Z</time>
      </trkpt>
      <trkpt lat="45.60154" lon="6.65599">
        <ele>1802</ele>
        <time>2018-02-10T09:20:09Z</time>
      </trkpt>
      <trkpt lat="45.60161" lon="6.65594">
        <ele>1804</ele>
        <time>2018-02-10T09:20:22Z</time>
      </trkpt>
      <trkpt lat="45.60164" lon="6.65591">
        <ele>1804</ele>
        <time>2018-02-10T09:20:36Z</time>
      </trkpt>
      <trkpt lat="45.60167" lon="6.65589">
        <ele>1808</ele>
        <time>2018-02-10T09:20:52Z</time>
      </trkpt>
      <trkpt lat="45.6017" lon="6.65581">
        <ele>1809</ele>
        <time>2018-02-10T09:21:01Z</time>
      </trkpt>
      <trkpt lat="45.60174" lon="6.65577">
        <ele>1812</ele>
        <time>2018-02-10T09:21:11Z</time>
      </trkpt>
      <trkpt lat="45.60177" lon="6.65574">
        <ele>1814</ele>
        <time>2018-02-10T09:21:21Z</time>
      </trkpt>
      <trkpt lat="45.60182" lon="6.65568">
        <ele>1817</ele>
        <time>2018-02-10T09:21:31Z</time>
      </trkpt>
      <trkpt lat="45.60187" lon="6.65568">
        <ele>1819</ele>
        <time>2018-02-10T09:21:40Z</time>
      </trkpt>
      <trkpt lat="45.60193" lon="6.6557">
        <ele>1820</ele>
        <time>2018-02-10T09:21:52Z</time>
      </trkpt>
      <trkpt lat="45.602" lon="6.65577">
        <ele>1821</ele>
        <time>2018-02-10T09:22:04Z</time>
      </trkpt>
      <trkpt lat="45.60201" lon="6.65587">
        <ele>1817</ele>
        <time>2018-02-10T09:22:17Z</time>
      </trkpt>
      <trkpt lat="45.60203" lon="6.65595">
        <ele>1817</ele>
        <time>2018-02-10T09:22:26Z</time>
      </trkpt>
      <trkpt lat="45.60206" lon="6.65601">
        <ele>1818</ele>
        <time>2018-02-10T09:22:36Z</time>
      </trkpt>
      <trkpt lat="45.60208" lon="6.656">
        <ele>1818</ele>
        <time>2018-02-10T09:22:43Z</time>
      </trkpt>
      <trkpt lat="45.60211" lon="6.65595">
        <ele>1819</ele>
        <time>2018-02-10T09:22:54Z</time>
      </trkpt>
      <trkpt lat="45.60214" lon="6.65596">
        <ele>1820</ele>
        <time>2018-02-10T09:23:04Z</time>
      </trkpt>
      <trkpt lat="45.60216" lon="6.65603">
        <ele>1820</ele>
        <time>2018-02-10T09:23:16Z</time>
      </trkpt>
      <trkpt lat="45.6022" lon="6.65608">
        <ele>1820</ele>
        <time>2018-02-10T09:23:27Z</time>
      </trkpt>
      <trkpt lat="45.60222" lon="6.65603">
        <ele>1821</ele>
        <time>2018-02-10T09:23:37Z</time>
      </trkpt>
      <trkpt lat="45.60225" lon="6.65598">
        <ele>1822</ele>
        <time>2018-02-10T09:23:48Z</time>
      </trkpt>
      <trkpt lat="45.60229" lon="6.65591">
        <ele>1824</ele>
        <time>2018-02-10T09:23:58Z</time>
      </trkpt>
      <trkpt lat="45.60233" lon="6.65586">
        <ele>1826</ele>
        <time>2018-02-10T09:24:06Z</time>
      </trkpt>
      <trkpt lat="45.60238" lon="6.65581">
        <ele>1830</ele>
        <time>2018-02-10T09:24:19Z</time>
      </trkpt>
      <trkpt lat="45.60244" lon="6.65577">
        <ele>1831</ele>
        <time>2018-02-10T09:24:30Z</time>
      </trkpt>
      <trkpt lat="45.60248" lon="6.65572">
        <ele>1831</ele>
        <time>2018-02-10T09:24:42Z</time>
      </trkpt>
      <trkpt lat="45.60252" lon="6.65567">
        <ele>1841</ele>
        <time>2018-02-10T09:24:54Z</time>
      </trkpt>
      <trkpt lat="45.60256" lon="6.65565">
        <ele>1842</ele>
        <time>2018-02-10T09:25:04Z</time>
      </trkpt>
      <trkpt lat="45.6026" lon="6.65559">
        <ele>1844</ele>
        <time>2018-02-10T09:25:16Z</time>
      </trkpt>
      <trkpt lat="45.60264" lon="6.65553">
        <ele>1845</ele>
        <time>2018-02-10T09:25:27Z</time>
      </trkpt>
      <trkpt lat="45.60269" lon="6.65547">
        <ele>1846</ele>
        <time>2018-02-10T09:25:40Z</time>
      </trkpt>
      <trkpt lat="45.60276" lon="6.65541">
        <ele>1847</ele>
        <time>2018-02-10T09:25:51Z</time>
      </trkpt>
      <trkpt lat="45.60281" lon="6.65537">
        <ele>1848</ele>
        <time>2018-02-10T09:26:04Z</time>
      </trkpt>
      <trkpt lat="45.60288" lon="6.65532">
        <ele>1849</ele>
        <time>2018-02-10T09:26:16Z</time>
      </trkpt>
      <trkpt lat="45.60294" lon="6.65528">
        <ele>1850</ele>
        <time>2018-02-10T09:26:27Z</time>
      </trkpt>
      <trkpt lat="45.60296" lon="6.65525">
        <ele>1850</ele>
        <time>2018-02-10T09:26:30Z</time>
      </trkpt>
      <trkpt lat="45.60302" lon="6.65516">
        <ele>1851</ele>
        <time>2018-02-10T09:26:41Z</time>
      </trkpt>
      <trkpt lat="45.60307" lon="6.65508">
        <ele>1853</ele>
        <time>2018-02-10T09:26:53Z</time>
      </trkpt>
      <trkpt lat="45.60315" lon="6.65496">
        <ele>1856</ele>
        <time>2018-02-10T09:27:16Z</time>
      </trkpt>
      <trkpt lat="45.60328" lon="6.65484">
        <ele>1858</ele>
        <time>2018-02-10T09:27:38Z</time>
      </trkpt>
      <trkpt lat="45.60342" lon="6.65476">
        <ele>1870</ele>
        <time>2018-02-10T09:28:00Z</time>
      </trkpt>
      <trkpt lat="45.60347" lon="6.6547">
        <ele>1871</ele>
        <time>2018-02-10T09:28:12Z</time>
      </trkpt>
      <trkpt lat="45.60354" lon="6.65459">
        <ele>1873</ele>
        <time>2018-02-10T09:28:35Z</time>
      </trkpt>
      <trkpt lat="45.6036" lon="6.65455">
        <ele>1874</ele>
        <time>2018-02-10T09:28:47Z</time>
      </trkpt>
      <trkpt lat="45.60364" lon="6.65466">
        <ele>1874</ele>
        <time>2018-02-10T09:29:01Z</time>
      </trkpt>
      <trkpt lat="45.60367" lon="6.65475">
        <ele>1874</ele>
        <time>2018-02-10T09:29:13Z</time>
      </trkpt>
      <trkpt lat="45.60383" lon="6.65483">
        <ele>1876</ele>
        <time>2018-02-10T09:29:37Z</time>
      </trkpt>
      <trkpt lat="45.60389" lon="6.65486">
        <ele>1877</ele>
        <time>2018-02-10T09:29:48Z</time>
      </trkpt>
      <trkpt lat="45.60394" lon="6.65488">
        <ele>1879</ele>
        <time>2018-02-10T09:29:59Z</time>
      </trkpt>
      <trkpt lat="45.60406" lon="6.65495">
        <ele>1881</ele>
        <time>2018-02-10T09:30:20Z</time>
      </trkpt>
      <trkpt lat="45.60411" lon="6.65497">
        <ele>1883</ele>
        <time>2018-02-10T09:30:33Z</time>
      </trkpt>
      <trkpt lat="45.6042" lon="6.65496">
        <ele>1888</ele>
        <time>2018-02-10T09:30:43Z</time>
      </trkpt>
      <trkpt lat="45.60423" lon="6.65493">
        <ele>1890</ele>
        <time>2018-02-10T09:30:53Z</time>
      </trkpt>
      <trkpt lat="45.60427" lon="6.65487">
        <ele>1893</ele>
        <time>2018-02-10T09:31:05Z</time>
      </trkpt>
      <trkpt lat="45.6043" lon="6.65474">
        <ele>1896</ele>
        <time>2018-02-10T09:31:27Z</time>
      </trkpt>
      <trkpt lat="45.60426" lon="6.65458">
        <ele>1897</ele>
        <time>2018-02-10T09:31:49Z</time>
      </trkpt>
      <trkpt lat="45.6042" lon="6.65441">
        <ele>1896</ele>
        <time>2018-02-10T09:32:25Z</time>
      </trkpt>
      <trkpt lat="45.60418" lon="6.65437">
        <ele>1896</ele>
        <time>2018-02-10T09:32:52Z</time>
      </trkpt>
      <trkpt lat="45.60418" lon="6.65435">
        <ele>1895</ele>
        <time>2018-02-10T09:33:05Z</time>
      </trkpt>
      <trkpt lat="45.60411" lon="6.65426">
        <ele>1885</ele>
        <time>2018-02-10T09:33:43Z</time>
      </trkpt>
      <trkpt lat="45.60408" lon="6.65417">
        <ele>1886</ele>
        <time>2018-02-10T09:33:54Z</time>
      </trkpt>
      <trkpt lat="45.60408" lon="6.65415">
        <ele>1889</ele>
        <time>2018-02-10T09:34:03Z</time>
      </trkpt>
      <trkpt lat="45.60406" lon="6.65412">
        <ele>1889</ele>
        <time>2018-02-10T09:34:51Z</time>
      </trkpt>
      <trkpt lat="45.60409" lon="6.65405">
        <ele>1889</ele>
        <time>2018-02-10T09:35:03Z</time>
      </trkpt>
      <trkpt lat="45.60411" lon="6.65403">
        <ele>1889</ele>
        <time>2018-02-10T09:35:12Z</time>
      </trkpt>
      <trkpt lat="45.60413" lon="6.65402">
        <ele>1890</ele>
        <time>2018-02-10T09:35:25Z</time>
      </trkpt>
      <trkpt lat="45.60413" lon="6.65401">
        <ele>1890</ele>
        <time>2018-02-10T09:35:45Z</time>
      </trkpt>
      <trkpt lat="45.60409" lon="6.65406">
        <ele>1889</ele>
        <time>2018-02-10T09:36:07Z</time>
      </trkpt>
      <trkpt lat="45.60409" lon="6.65405">
        <ele>1889</ele>
        <time>2018-02-10T09:36:20Z</time>
      </trkpt>
      <trkpt lat="45.6041" lon="6.65402">
        <ele>1889</ele>
        <time>2018-02-10T09:36:47Z</time>
      </trkpt>
      <trkpt lat="45.60411" lon="6.65402">
        <ele>1889</ele>
        <time>2018-02-10T09:36:57Z</time>
      </trkpt>
      <trkpt lat="45.60411" lon="6.65402">
        <ele>1889</ele>
        <time>2018-02-10T09:37:09Z</time>
      </trkpt>
      <trkpt lat="45.60412" lon="6.65402">
        <ele>1890</ele>
        <time>2018-02-10T09:37:16Z</time>
      </trkpt>
      <trkpt lat="45.60412" lon="6.65402">
        <ele>1890</ele>
        <time>2018-02-10T09:37:34Z</time>
      </trkpt>
      <trkpt lat="45.60409" lon="6.65405">
        <ele>1889</ele>
        <time>2018-02-10T09:38:20Z</time>
      </trkpt>
      <trkpt lat="45.60412" lon="6.65399">
        <ele>1890</ele>
        <time>2018-02-10T09:38:45Z</time>
      </trkpt>
      <trkpt lat="45.60413" lon="6.654">
        <ele>1890</ele>
        <time>2018-02-10T09:39:00Z</time>
      </trkpt>
      <trkpt lat="45.60422" lon="6.65401">
        <ele>1901</ele>
        <time>2018-02-10T09:39:19Z</time>
      </trkpt>
      <trkpt lat="45.60431" lon="6.65398">
        <ele>1905</ele>
        <time>2018-02-10T09:39:31Z</time>
      </trkpt>
      <trkpt lat="45.60437" lon="6.65394">
        <ele>1907</ele>
        <time>2018-02-10T09:39:41Z</time>
      </trkpt>
      <trkpt lat="45.60443" lon="6.6539">
        <ele>1909</ele>
        <time>2018-02-10T09:39:53Z</time>
      </trkpt>
      <trkpt lat="45.60446" lon="6.65386">
        <ele>1910</ele>
        <time>2018-02-10T09:40:03Z</time>
      </trkpt>
      <trkpt lat="45.60449" lon="6.65383">
        <ele>1911</ele>
        <time>2018-02-10T09:40:18Z</time>
      </trkpt>
      <trkpt lat="45.60449" lon="6.65371">
        <ele>1913</ele>
        <time>2018-02-10T09:40:31Z</time>
      </trkpt>
      <trkpt lat="45.60446" lon="6.65361">
        <ele>1913</ele>
        <time>2018-02-10T09:40:42Z</time>
      </trkpt>
      <trkpt lat="45.60446" lon="6.65358">
        <ele>1913</ele>
        <time>2018-02-10T09:40:51Z</time>
      </trkpt>
      <trkpt lat="45.60444" lon="6.65356">
        <ele>1913</ele>
        <time>2018-02-10T09:41:08Z</time>
      </trkpt>
      <trkpt lat="45.60444" lon="6.65355">
        <ele>1913</ele>
        <time>2018-02-10T09:41:19Z</time>
      </trkpt>
      <trkpt lat="45.6044" lon="6.6535">
        <ele>1913</ele>
        <time>2018-02-10T09:41:30Z</time>
      </trkpt>
      <trkpt lat="45.60438" lon="6.65349">
        <ele>1913</ele>
        <time>2018-02-10T09:41:40Z</time>
      </trkpt>
      <trkpt lat="45.60437" lon="6.65346">
        <ele>1913</ele>
        <time>2018-02-10T09:41:49Z</time>
      </trkpt>
      <trkpt lat="45.60434" lon="6.65338">
        <ele>1912</ele>
        <time>2018-02-10T09:42:03Z</time>
      </trkpt>
      <trkpt lat="45.60434" lon="6.65335">
        <ele>1912</ele>
        <time>2018-02-10T09:42:12Z</time>
      </trkpt>
      <trkpt lat="45.60434" lon="6.65332">
        <ele>1919</ele>
        <time>2018-02-10T09:42:21Z</time>
      </trkpt>
      <trkpt lat="45.60434" lon="6.65331">
        <ele>1920</ele>
        <time>2018-02-10T09:42:30Z</time>
      </trkpt>
      <trkpt lat="45.60431" lon="6.65327">
        <ele>1919</ele>
        <time>2018-02-10T09:42:40Z</time>
      </trkpt>
      <trkpt lat="45.60429" lon="6.6532">
        <ele>1920</ele>
        <time>2018-02-10T09:42:50Z</time>
      </trkpt>
      <trkpt lat="45.60429" lon="6.65316">
        <ele>1921</ele>
        <time>2018-02-10T09:42:59Z</time>
      </trkpt>
      <trkpt lat="45.60428" lon="6.65312">
        <ele>1922</ele>
        <time>2018-02-10T09:43:07Z</time>
      </trkpt>
      <trkpt lat="45.60429" lon="6.65307">
        <ele>1924</ele>
        <time>2018-02-10T09:43:14Z</time>
      </trkpt>
      <trkpt lat="45.60431" lon="6.65301">
        <ele>1925</ele>
        <time>2018-02-10T09:43:23Z</time>
      </trkpt>
      <trkpt lat="45.60433" lon="6.65297">
        <ele>1926</ele>
        <time>2018-02-10T09:43:32Z</time>
      </trkpt>
      <trkpt lat="45.60436" lon="6.65292">
        <ele>1927</ele>
        <time>2018-02-10T09:43:44Z</time>
      </trkpt>
      <trkpt lat="45.6044" lon="6.6529">
        <ele>1928</ele>
        <time>2018-02-10T09:43:53Z</time>
      </trkpt>
      <trkpt lat="45.60442" lon="6.6529">
        <ele>1928</ele>
        <time>2018-02-10T09:44:05Z</time>
      </trkpt>
      <trkpt lat="45.60444" lon="6.65289">
        <ele>1928</ele>
        <time>2018-02-10T09:44:15Z</time>
      </trkpt>
      <trkpt lat="45.60451" lon="6.6529">
        <ele>1929</ele>
        <time>2018-02-10T09:44:26Z</time>
      </trkpt>
      <trkpt lat="45.6046" lon="6.65291">
        <ele>1930</ele>
        <time>2018-02-10T09:44:38Z</time>
      </trkpt>
      <trkpt lat="45.60466" lon="6.65292">
        <ele>1931</ele>
        <time>2018-02-10T09:44:46Z</time>
      </trkpt>
      <trkpt lat="45.60473" lon="6.65293">
        <ele>1931</ele>
        <time>2018-02-10T09:44:58Z</time>
      </trkpt>
      <trkpt lat="45.60482" lon="6.65295">
        <ele>1932</ele>
        <time>2018-02-10T09:45:13Z</time>
      </trkpt>
      <trkpt lat="45.60495" lon="6.65297">
        <ele>1933</ele>
        <time>2018-02-10T09:45:29Z</time>
      </trkpt>
      <trkpt lat="45.60506" lon="6.65301">
        <ele>1943</ele>
        <time>2018-02-10T09:45:43Z</time>
      </trkpt>
      <trkpt lat="45.60512" lon="6.65303">
        <ele>1943</ele>
        <time>2018-02-10T09:45:53Z</time>
      </trkpt>
      <trkpt lat="45.60516" lon="6.65305">
        <ele>1943</ele>
        <time>2018-02-10T09:45:58Z</time>
      </trkpt>
      <trkpt lat="45.60518" lon="6.65307">
        <ele>1943</ele>
        <time>2018-02-10T09:46:01Z</time>
      </trkpt>
      <trkpt lat="45.60531" lon="6.6531">
        <ele>1945</ele>
        <time>2018-02-10T09:46:13Z</time>
      </trkpt>
      <trkpt lat="45.60538" lon="6.6531">
        <ele>1945</ele>
        <time>2018-02-10T09:46:21Z</time>
      </trkpt>
      <trkpt lat="45.60549" lon="6.6531">
        <ele>1946</ele>
        <time>2018-02-10T09:46:31Z</time>
      </trkpt>
      <trkpt lat="45.60559" lon="6.65311">
        <ele>1947</ele>
        <time>2018-02-10T09:46:42Z</time>
      </trkpt>
      <trkpt lat="45.60562" lon="6.65313">
        <ele>1948</ele>
        <time>2018-02-10T09:46:47Z</time>
      </trkpt>
      <trkpt lat="45.6057" lon="6.65313">
        <ele>1949</ele>
        <time>2018-02-10T09:46:57Z</time>
      </trkpt>
      <trkpt lat="45.60576" lon="6.65313">
        <ele>1949</ele>
        <time>2018-02-10T09:47:06Z</time>
      </trkpt>
      <trkpt lat="45.60583" lon="6.65316">
        <ele>1950</ele>
        <time>2018-02-10T09:47:17Z</time>
      </trkpt>
      <trkpt lat="45.60588" lon="6.65317">
        <ele>1956</ele>
        <time>2018-02-10T09:47:27Z</time>
      </trkpt>
      <trkpt lat="45.606" lon="6.65321">
        <ele>1957</ele>
        <time>2018-02-10T09:47:42Z</time>
      </trkpt>
      <trkpt lat="45.60607" lon="6.65321">
        <ele>1957</ele>
        <time>2018-02-10T09:47:53Z</time>
      </trkpt>
      <trkpt lat="45.60618" lon="6.65321">
        <ele>1958</ele>
        <time>2018-02-10T09:48:10Z</time>
      </trkpt>
      <trkpt lat="45.60631" lon="6.65322">
        <ele>1960</ele>
        <time>2018-02-10T09:48:22Z</time>
      </trkpt>
      <trkpt lat="45.60637" lon="6.65322">
        <ele>1960</ele>
        <time>2018-02-10T09:48:32Z</time>
      </trkpt>
      <trkpt lat="45.60645" lon="6.65323">
        <ele>1961</ele>
        <time>2018-02-10T09:48:44Z</time>
      </trkpt>
      <trkpt lat="45.60653" lon="6.65325">
        <ele>1962</ele>
        <time>2018-02-10T09:48:55Z</time>
      </trkpt>
      <trkpt lat="45.60662" lon="6.65325">
        <ele>1963</ele>
        <time>2018-02-10T09:49:08Z</time>
      </trkpt>
      <trkpt lat="45.6067" lon="6.65326">
        <ele>1967</ele>
        <time>2018-02-10T09:49:17Z</time>
      </trkpt>
      <trkpt lat="45.60678" lon="6.65328">
        <ele>1968</ele>
        <time>2018-02-10T09:49:27Z</time>
      </trkpt>
      <trkpt lat="45.60684" lon="6.65329">
        <ele>1969</ele>
        <time>2018-02-10T09:49:37Z</time>
      </trkpt>
      <trkpt lat="45.60691" lon="6.65332">
        <ele>1970</ele>
        <time>2018-02-10T09:49:50Z</time>
      </trkpt>
      <trkpt lat="45.60703" lon="6.65335">
        <ele>1973</ele>
        <time>2018-02-10T09:50:02Z</time>
      </trkpt>
      <trkpt lat="45.60713" lon="6.65336">
        <ele>1974</ele>
        <time>2018-02-10T09:50:14Z</time>
      </trkpt>
      <trkpt lat="45.60715" lon="6.65336">
        <ele>1974</ele>
        <time>2018-02-10T09:50:16Z</time>
      </trkpt>
      <trkpt lat="45.60722" lon="6.6534">
        <ele>1974</ele>
        <time>2018-02-10T09:50:26Z</time>
      </trkpt>
      <trkpt lat="45.60729" lon="6.65345">
        <ele>1974</ele>
        <time>2018-02-10T09:50:40Z</time>
      </trkpt>
      <trkpt lat="45.60733" lon="6.65349">
        <ele>1975</ele>
        <time>2018-02-10T09:50:51Z</time>
      </trkpt>
      <trkpt lat="45.60739" lon="6.65354">
        <ele>1975</ele>
        <time>2018-02-10T09:51:04Z</time>
      </trkpt>
      <trkpt lat="45.60748" lon="6.65362">
        <ele>1976</ele>
        <time>2018-02-10T09:51:16Z</time>
      </trkpt>
      <trkpt lat="45.60753" lon="6.65367">
        <ele>1982</ele>
        <time>2018-02-10T09:51:28Z</time>
      </trkpt>
      <trkpt lat="45.60757" lon="6.65373">
        <ele>1982</ele>
        <time>2018-02-10T09:51:39Z</time>
      </trkpt>
      <trkpt lat="45.60767" lon="6.65375">
        <ele>1983</ele>
        <time>2018-02-10T09:51:50Z</time>
      </trkpt>
      <trkpt lat="45.60773" lon="6.65374">
        <ele>1983</ele>
        <time>2018-02-10T09:52:01Z</time>
      </trkpt>
      <trkpt lat="45.60781" lon="6.6537">
        <ele>1984</ele>
        <time>2018-02-10T09:52:14Z</time>
      </trkpt>
      <trkpt lat="45.60791" lon="6.6537">
        <ele>1985</ele>
        <time>2018-02-10T09:52:28Z</time>
      </trkpt>
      <trkpt lat="45.60801" lon="6.65376">
        <ele>1985</ele>
        <time>2018-02-10T09:52:40Z</time>
      </trkpt>
      <trkpt lat="45.60808" lon="6.6538">
        <ele>1986</ele>
        <time>2018-02-10T09:52:49Z</time>
      </trkpt>
      <trkpt lat="45.60815" lon="6.65383">
        <ele>1986</ele>
        <time>2018-02-10T09:53:00Z</time>
      </trkpt>
      <trkpt lat="45.60826" lon="6.65386">
        <ele>1987</ele>
        <time>2018-02-10T09:53:12Z</time>
      </trkpt>
      <trkpt lat="45.60832" lon="6.65387">
        <ele>1987</ele>
        <time>2018-02-10T09:53:17Z</time>
      </trkpt>
      <trkpt lat="45.60842" lon="6.65391">
        <ele>1996</ele>
        <time>2018-02-10T09:53:28Z</time>
      </trkpt>
      <trkpt lat="45.6085" lon="6.65393">
        <ele>1997</ele>
        <time>2018-02-10T09:53:37Z</time>
      </trkpt>
      <trkpt lat="45.60857" lon="6.65394">
        <ele>1998</ele>
        <time>2018-02-10T09:53:47Z</time>
      </trkpt>
      <trkpt lat="45.60867" lon="6.65397">
        <ele>1999</ele>
        <time>2018-02-10T09:53:58Z</time>
      </trkpt>
      <trkpt lat="45.60872" lon="6.65398">
        <ele>2000</ele>
        <time>2018-02-10T09:54:07Z</time>
      </trkpt>
      <trkpt lat="45.6088" lon="6.654">
        <ele>2001</ele>
        <time>2018-02-10T09:54:17Z</time>
      </trkpt>
      <trkpt lat="45.60888" lon="6.65402">
        <ele>2002</ele>
        <time>2018-02-10T09:54:29Z</time>
      </trkpt>
      <trkpt lat="45.60896" lon="6.65404">
        <ele>2002</ele>
        <time>2018-02-10T09:54:39Z</time>
      </trkpt>
      <trkpt lat="45.60904" lon="6.65408">
        <ele>2003</ele>
        <time>2018-02-10T09:54:53Z</time>
      </trkpt>
      <trkpt lat="45.60911" lon="6.65409">
        <ele>2003</ele>
        <time>2018-02-10T09:55:05Z</time>
      </trkpt>
      <trkpt lat="45.60921" lon="6.65407">
        <ele>2010</ele>
        <time>2018-02-10T09:55:21Z</time>
      </trkpt>
      <trkpt lat="45.60929" lon="6.65409">
        <ele>2012</ele>
        <time>2018-02-10T09:55:32Z</time>
      </trkpt>
      <trkpt lat="45.60937" lon="6.65413">
        <ele>2014</ele>
        <time>2018-02-10T09:55:45Z</time>
      </trkpt>
      <trkpt lat="45.60943" lon="6.65415">
        <ele>2015</ele>
        <time>2018-02-10T09:55:58Z</time>
      </trkpt>
      <trkpt lat="45.60948" lon="6.65417">
        <ele>2018</ele>
        <time>2018-02-10T09:56:08Z</time>
      </trkpt>
      <trkpt lat="45.60953" lon="6.65418">
        <ele>2019</ele>
        <time>2018-02-10T09:56:18Z</time>
      </trkpt>
      <trkpt lat="45.60959" lon="6.65419">
        <ele>2020</ele>
        <time>2018-02-10T09:56:28Z</time>
      </trkpt>
      <trkpt lat="45.60967" lon="6.65421">
        <ele>2021</ele>
        <time>2018-02-10T09:56:41Z</time>
      </trkpt>
      <trkpt lat="45.60971" lon="6.65422">
        <ele>2021</ele>
        <time>2018-02-10T09:56:51Z</time>
      </trkpt>
      <trkpt lat="45.60976" lon="6.65424">
        <ele>2022</ele>
        <time>2018-02-10T09:57:01Z</time>
      </trkpt>
      <trkpt lat="45.60981" lon="6.65423">
        <ele>2022</ele>
        <time>2018-02-10T09:57:12Z</time>
      </trkpt>
      <trkpt lat="45.60986" lon="6.65423">
        <ele>2022</ele>
        <time>2018-02-10T09:57:22Z</time>
      </trkpt>
      <trkpt lat="45.60994" lon="6.65421">
        <ele>2022</ele>
        <time>2018-02-10T09:57:36Z</time>
      </trkpt>
      <trkpt lat="45.61001" lon="6.65421">
        <ele>2024</ele>
        <time>2018-02-10T09:57:48Z</time>
      </trkpt>
      <trkpt lat="45.61008" lon="6.6542">
        <ele>2026</ele>
        <time>2018-02-10T09:57:59Z</time>
      </trkpt>
      <trkpt lat="45.61019" lon="6.65417">
        <ele>2030</ele>
        <time>2018-02-10T09:58:10Z</time>
      </trkpt>
      <trkpt lat="45.61026" lon="6.65415">
        <ele>2031</ele>
        <time>2018-02-10T09:58:22Z</time>
      </trkpt>
      <trkpt lat="45.61034" lon="6.6541">
        <ele>2032</ele>
        <time>2018-02-10T09:58:36Z</time>
      </trkpt>
      <trkpt lat="45.61043" lon="6.65406">
        <ele>2034</ele>
        <time>2018-02-10T09:58:48Z</time>
      </trkpt>
      <trkpt lat="45.6105" lon="6.65402">
        <ele>2035</ele>
        <time>2018-02-10T09:59:02Z</time>
      </trkpt>
      <trkpt lat="45.61056" lon="6.654">
        <ele>2035</ele>
        <time>2018-02-10T09:59:14Z</time>
      </trkpt>
      <trkpt lat="45.61062" lon="6.65397">
        <ele>2035</ele>
        <time>2018-02-10T09:59:24Z</time>
      </trkpt>
      <trkpt lat="45.6107" lon="6.65397">
        <ele>2036</ele>
        <time>2018-02-10T09:59:34Z</time>
      </trkpt>
      <trkpt lat="45.61075" lon="6.65398">
        <ele>2035</ele>
        <time>2018-02-10T09:59:46Z</time>
      </trkpt>
      <trkpt lat="45.6108" lon="6.65398">
        <ele>2035</ele>
        <time>2018-02-10T09:59:57Z</time>
      </trkpt>
      <trkpt lat="45.61084" lon="6.65398">
        <ele>2042</ele>
        <time>2018-02-10T10:00:07Z</time>
      </trkpt>
      <trkpt lat="45.6109" lon="6.654">
        <ele>2042</ele>
        <time>2018-02-10T10:00:17Z</time>
      </trkpt>
      <trkpt lat="45.61094" lon="6.65402">
        <ele>2042</ele>
        <time>2018-02-10T10:00:28Z</time>
      </trkpt>
      <trkpt lat="45.61101" lon="6.65405">
        <ele>2043</ele>
        <time>2018-02-10T10:00:39Z</time>
      </trkpt>
      <trkpt lat="45.61107" lon="6.65408">
        <ele>2044</ele>
        <time>2018-02-10T10:00:52Z</time>
      </trkpt>
      <trkpt lat="45.61114" lon="6.6541">
        <ele>2046</ele>
        <time>2018-02-10T10:01:04Z</time>
      </trkpt>
      <trkpt lat="45.61121" lon="6.65412">
        <ele>2047</ele>
        <time>2018-02-10T10:01:15Z</time>
      </trkpt>
      <trkpt lat="45.61127" lon="6.65416">
        <ele>2048</ele>
        <time>2018-02-10T10:01:26Z</time>
      </trkpt>
      <trkpt lat="45.61133" lon="6.65418">
        <ele>2051</ele>
        <time>2018-02-10T10:01:38Z</time>
      </trkpt>
      <trkpt lat="45.6114" lon="6.65421">
        <ele>2052</ele>
        <time>2018-02-10T10:01:49Z</time>
      </trkpt>
      <trkpt lat="45.61147" lon="6.65424">
        <ele>2053</ele>
        <time>2018-02-10T10:02:01Z</time>
      </trkpt>
      <trkpt lat="45.61153" lon="6.65426">
        <ele>2053</ele>
        <time>2018-02-10T10:02:13Z</time>
      </trkpt>
      <trkpt lat="45.6116" lon="6.65429">
        <ele>2053</ele>
        <time>2018-02-10T10:02:23Z</time>
      </trkpt>
      <trkpt lat="45.61165" lon="6.65433">
        <ele>2054</ele>
        <time>2018-02-10T10:02:36Z</time>
      </trkpt>
      <trkpt lat="45.61167" lon="6.65434">
        <ele>2061</ele>
        <time>2018-02-10T10:02:48Z</time>
      </trkpt>
      <trkpt lat="45.61171" lon="6.65442">
        <ele>2064</ele>
        <time>2018-02-10T10:02:58Z</time>
      </trkpt>
      <trkpt lat="45.61175" lon="6.65447">
        <ele>2066</ele>
        <time>2018-02-10T10:03:08Z</time>
      </trkpt>
      <trkpt lat="45.6118" lon="6.65449">
        <ele>2067</ele>
        <time>2018-02-10T10:03:18Z</time>
      </trkpt>
      <trkpt lat="45.61186" lon="6.65453">
        <ele>2068</ele>
        <time>2018-02-10T10:03:29Z</time>
      </trkpt>
      <trkpt lat="45.61191" lon="6.65457">
        <ele>2069</ele>
        <time>2018-02-10T10:03:42Z</time>
      </trkpt>
      <trkpt lat="45.61197" lon="6.6546">
        <ele>2070</ele>
        <time>2018-02-10T10:03:52Z</time>
      </trkpt>
      <trkpt lat="45.61201" lon="6.65463">
        <ele>2070</ele>
        <time>2018-02-10T10:04:03Z</time>
      </trkpt>
      <trkpt lat="45.61204" lon="6.65469">
        <ele>2071</ele>
        <time>2018-02-10T10:04:14Z</time>
      </trkpt>
      <trkpt lat="45.61209" lon="6.65472">
        <ele>2072</ele>
        <time>2018-02-10T10:04:25Z</time>
      </trkpt>
      <trkpt lat="45.61214" lon="6.65472">
        <ele>2072</ele>
        <time>2018-02-10T10:04:35Z</time>
      </trkpt>
      <trkpt lat="45.61219" lon="6.65471">
        <ele>2073</ele>
        <time>2018-02-10T10:04:45Z</time>
      </trkpt>
      <trkpt lat="45.61225" lon="6.65472">
        <ele>2073</ele>
        <time>2018-02-10T10:04:56Z</time>
      </trkpt>
      <trkpt lat="45.6123" lon="6.65473">
        <ele>2074</ele>
        <time>2018-02-10T10:05:06Z</time>
      </trkpt>
      <trkpt lat="45.61236" lon="6.65476">
        <ele>2075</ele>
        <time>2018-02-10T10:05:17Z</time>
      </trkpt>
      <trkpt lat="45.61243" lon="6.65477">
        <ele>2076</ele>
        <time>2018-02-10T10:05:30Z</time>
      </trkpt>
      <trkpt lat="45.61249" lon="6.65479">
        <ele>2076</ele>
        <time>2018-02-10T10:05:40Z</time>
      </trkpt>
      <trkpt lat="45.61254" lon="6.65484">
        <ele>2087</ele>
        <time>2018-02-10T10:05:50Z</time>
      </trkpt>
      <trkpt lat="45.61259" lon="6.65487">
        <ele>2087</ele>
        <time>2018-02-10T10:06:02Z</time>
      </trkpt>
      <trkpt lat="45.61262" lon="6.65491">
        <ele>2087</ele>
        <time>2018-02-10T10:06:11Z</time>
      </trkpt>
      <trkpt lat="45.61268" lon="6.65496">
        <ele>2088</ele>
        <time>2018-02-10T10:06:23Z</time>
      </trkpt>
      <trkpt lat="45.61278" lon="6.65497">
        <ele>2091</ele>
        <time>2018-02-10T10:06:34Z</time>
      </trkpt>
      <trkpt lat="45.61282" lon="6.655">
        <ele>2097</ele>
        <time>2018-02-10T10:06:46Z</time>
      </trkpt>
      <trkpt lat="45.61283" lon="6.65503">
        <ele>2097</ele>
        <time>2018-02-10T10:06:51Z</time>
      </trkpt>
      <trkpt lat="45.61288" lon="6.65509">
        <ele>2099</ele>
        <time>2018-02-10T10:07:02Z</time>
      </trkpt>
      <trkpt lat="45.6129" lon="6.65515">
        <ele>2100</ele>
        <time>2018-02-10T10:07:13Z</time>
      </trkpt>
      <trkpt lat="45.61294" lon="6.65524">
        <ele>2101</ele>
        <time>2018-02-10T10:07:26Z</time>
      </trkpt>
      <trkpt lat="45.613" lon="6.65529">
        <ele>2102</ele>
        <time>2018-02-10T10:07:37Z</time>
      </trkpt>
      <trkpt lat="45.61306" lon="6.65535">
        <ele>2103</ele>
        <time>2018-02-10T10:07:49Z</time>
      </trkpt>
      <trkpt lat="45.61312" lon="6.65541">
        <ele>2104</ele>
        <time>2018-02-10T10:08:01Z</time>
      </trkpt>
      <trkpt lat="45.6132" lon="6.65543">
        <ele>2104</ele>
        <time>2018-02-10T10:08:12Z</time>
      </trkpt>
      <trkpt lat="45.61327" lon="6.65543">
        <ele>2105</ele>
        <time>2018-02-10T10:08:27Z</time>
      </trkpt>
      <trkpt lat="45.61332" lon="6.65543">
        <ele>2105</ele>
        <time>2018-02-10T10:08:38Z</time>
      </trkpt>
      <trkpt lat="45.61332" lon="6.65546">
        <ele>2105</ele>
        <time>2018-02-10T10:08:51Z</time>
      </trkpt>
      <trkpt lat="45.61333" lon="6.65542">
        <ele>2105</ele>
        <time>2018-02-10T10:09:17Z</time>
      </trkpt>
      <trkpt lat="45.61332" lon="6.65545">
        <ele>2105</ele>
        <time>2018-02-10T10:09:43Z</time>
      </trkpt>
      <trkpt lat="45.61335" lon="6.65545">
        <ele>2111</ele>
        <time>2018-02-10T10:10:11Z</time>
      </trkpt>
      <trkpt lat="45.61334" lon="6.65543">
        <ele>2111</ele>
        <time>2018-02-10T10:10:31Z</time>
      </trkpt>
      <trkpt lat="45.61338" lon="6.65543">
        <ele>2111</ele>
        <time>2018-02-10T10:10:54Z</time>
      </trkpt>
      <trkpt lat="45.61336" lon="6.65543">
        <ele>2111</ele>
        <time>2018-02-10T10:11:15Z</time>
      </trkpt>
      <trkpt lat="45.61334" lon="6.65545">
        <ele>2111</ele>
        <time>2018-02-10T10:11:33Z</time>
      </trkpt>
      <trkpt lat="45.61334" lon="6.65545">
        <ele>2111</ele>
        <time>2018-02-10T10:11:56Z</time>
      </trkpt>
      <trkpt lat="45.61336" lon="6.65543">
        <ele>2111</ele>
        <time>2018-02-10T10:12:21Z</time>
      </trkpt>
      <trkpt lat="45.61335" lon="6.65545">
        <ele>2111</ele>
        <time>2018-02-10T10:12:43Z</time>
      </trkpt>
      <trkpt lat="45.61336" lon="6.65545">
        <ele>2111</ele>
        <time>2018-02-10T10:12:54Z</time>
      </trkpt>
      <trkpt lat="45.61337" lon="6.65544">
        <ele>2111</ele>
        <time>2018-02-10T10:13:11Z</time>
      </trkpt>
      <trkpt lat="45.61338" lon="6.65542">
        <ele>2111</ele>
        <time>2018-02-10T10:13:20Z</time>
      </trkpt>
      <trkpt lat="45.61345" lon="6.65537">
        <ele>2111</ele>
        <time>2018-02-10T10:13:31Z</time>
      </trkpt>
      <trkpt lat="45.61351" lon="6.65534">
        <ele>2111</ele>
        <time>2018-02-10T10:13:41Z</time>
      </trkpt>
      <trkpt lat="45.61359" lon="6.65529">
        <ele>2111</ele>
        <time>2018-02-10T10:13:51Z</time>
      </trkpt>
      <trkpt lat="45.61367" lon="6.65523">
        <ele>2112</ele>
        <time>2018-02-10T10:14:06Z</time>
      </trkpt>
      <trkpt lat="45.61374" lon="6.65517">
        <ele>2112</ele>
        <time>2018-02-10T10:14:18Z</time>
      </trkpt>
      <trkpt lat="45.61382" lon="6.65511">
        <ele>2113</ele>
        <time>2018-02-10T10:14:30Z</time>
      </trkpt>
      <trkpt lat="45.61388" lon="6.65508">
        <ele>2114</ele>
        <time>2018-02-10T10:14:42Z</time>
      </trkpt>
      <trkpt lat="45.61395" lon="6.65504">
        <ele>2115</ele>
        <time>2018-02-10T10:14:53Z</time>
      </trkpt>
      <trkpt lat="45.614" lon="6.655">
        <ele>2116</ele>
        <time>2018-02-10T10:15:03Z</time>
      </trkpt>
      <trkpt lat="45.61405" lon="6.65499">
        <ele>2119</ele>
        <time>2018-02-10T10:15:13Z</time>
      </trkpt>
      <trkpt lat="45.61409" lon="6.65494">
        <ele>2119</ele>
        <time>2018-02-10T10:15:24Z</time>
      </trkpt>
      <trkpt lat="45.61414" lon="6.65487">
        <ele>2120</ele>
        <time>2018-02-10T10:15:36Z</time>
      </trkpt>
      <trkpt lat="45.61419" lon="6.65478">
        <ele>2130</ele>
        <time>2018-02-10T10:15:50Z</time>
      </trkpt>
      <trkpt lat="45.61423" lon="6.65475">
        <ele>2131</ele>
        <time>2018-02-10T10:16:01Z</time>
      </trkpt>
      <trkpt lat="45.61429" lon="6.65474">
        <ele>2132</ele>
        <time>2018-02-10T10:16:12Z</time>
      </trkpt>
      <trkpt lat="45.61437" lon="6.65471">
        <ele>2134</ele>
        <time>2018-02-10T10:16:28Z</time>
      </trkpt>
      <trkpt lat="45.61444" lon="6.65471">
        <ele>2135</ele>
        <time>2018-02-10T10:16:38Z</time>
      </trkpt>
      <trkpt lat="45.61447" lon="6.65466">
        <ele>2136</ele>
        <time>2018-02-10T10:16:50Z</time>
      </trkpt>
      <trkpt lat="45.61448" lon="6.65459">
        <ele>2136</ele>
        <time>2018-02-10T10:17:00Z</time>
      </trkpt>
      <trkpt lat="45.61448" lon="6.65453">
        <ele>2137</ele>
        <time>2018-02-10T10:17:10Z</time>
      </trkpt>
      <trkpt lat="45.61448" lon="6.65447">
        <ele>2137</ele>
        <time>2018-02-10T10:17:20Z</time>
      </trkpt>
      <trkpt lat="45.61453" lon="6.65445">
        <ele>2138</ele>
        <time>2018-02-10T10:17:31Z</time>
      </trkpt>
      <trkpt lat="45.61459" lon="6.65445">
        <ele>2139</ele>
        <time>2018-02-10T10:17:43Z</time>
      </trkpt>
      <trkpt lat="45.61465" lon="6.65447">
        <ele>2139</ele>
        <time>2018-02-10T10:17:55Z</time>
      </trkpt>
      <trkpt lat="45.61476" lon="6.65448">
        <ele>2141</ele>
        <time>2018-02-10T10:18:10Z</time>
      </trkpt>
      <trkpt lat="45.61483" lon="6.65448">
        <ele>2141</ele>
        <time>2018-02-10T10:18:22Z</time>
      </trkpt>
      <trkpt lat="45.61485" lon="6.65445">
        <ele>2142</ele>
        <time>2018-02-10T10:18:32Z</time>
      </trkpt>
      <trkpt lat="45.6149" lon="6.65446">
        <ele>2143</ele>
        <time>2018-02-10T10:18:42Z</time>
      </trkpt>
      <trkpt lat="45.61494" lon="6.65439">
        <ele>2144</ele>
        <time>2018-02-10T10:18:54Z</time>
      </trkpt>
      <trkpt lat="45.61494" lon="6.65427">
        <ele>2147</ele>
        <time>2018-02-10T10:19:07Z</time>
      </trkpt>
      <trkpt lat="45.61494" lon="6.6542">
        <ele>2149</ele>
        <time>2018-02-10T10:19:18Z</time>
      </trkpt>
      <trkpt lat="45.61494" lon="6.65412">
        <ele>2155</ele>
        <time>2018-02-10T10:19:27Z</time>
      </trkpt>
      <trkpt lat="45.61496" lon="6.65406">
        <ele>2156</ele>
        <time>2018-02-10T10:19:39Z</time>
      </trkpt>
      <trkpt lat="45.61503" lon="6.65403">
        <ele>2161</ele>
        <time>2018-02-10T10:19:53Z</time>
      </trkpt>
      <trkpt lat="45.61508" lon="6.65402">
        <ele>2163</ele>
        <time>2018-02-10T10:20:04Z</time>
      </trkpt>
      <trkpt lat="45.61513" lon="6.654">
        <ele>2164</ele>
        <time>2018-02-10T10:20:14Z</time>
      </trkpt>
      <trkpt lat="45.61518" lon="6.654">
        <ele>2165</ele>
        <time>2018-02-10T10:20:23Z</time>
      </trkpt>
      <trkpt lat="45.61523" lon="6.65399">
        <ele>2166</ele>
        <time>2018-02-10T10:20:34Z</time>
      </trkpt>
      <trkpt lat="45.61529" lon="6.654">
        <ele>2167</ele>
        <time>2018-02-10T10:20:44Z</time>
      </trkpt>
      <trkpt lat="45.61532" lon="6.65401">
        <ele>2168</ele>
        <time>2018-02-10T10:20:54Z</time>
      </trkpt>
      <trkpt lat="45.61537" lon="6.65404">
        <ele>2168</ele>
        <time>2018-02-10T10:21:05Z</time>
      </trkpt>
      <trkpt lat="45.61543" lon="6.65408">
        <ele>2169</ele>
        <time>2018-02-10T10:21:16Z</time>
      </trkpt>
      <trkpt lat="45.61547" lon="6.65412">
        <ele>2169</ele>
        <time>2018-02-10T10:21:27Z</time>
      </trkpt>
      <trkpt lat="45.6155" lon="6.65417">
        <ele>2159</ele>
        <time>2018-02-10T10:21:39Z</time>
      </trkpt>
      <trkpt lat="45.61553" lon="6.65424">
        <ele>2159</ele>
        <time>2018-02-10T10:21:49Z</time>
      </trkpt>
      <trkpt lat="45.61556" lon="6.65429">
        <ele>2159</ele>
        <time>2018-02-10T10:22:00Z</time>
      </trkpt>
      <trkpt lat="45.61558" lon="6.6543">
        <ele>2160</ele>
        <time>2018-02-10T10:22:04Z</time>
      </trkpt>
      <trkpt lat="45.61564" lon="6.65434">
        <ele>2160</ele>
        <time>2018-02-10T10:22:15Z</time>
      </trkpt>
      <trkpt lat="45.6157" lon="6.65434">
        <ele>2161</ele>
        <time>2018-02-10T10:22:26Z</time>
      </trkpt>
      <trkpt lat="45.61573" lon="6.6543">
        <ele>2163</ele>
        <time>2018-02-10T10:22:36Z</time>
      </trkpt>
      <trkpt lat="45.61577" lon="6.65425">
        <ele>2165</ele>
        <time>2018-02-10T10:22:47Z</time>
      </trkpt>
      <trkpt lat="45.61581" lon="6.6542">
        <ele>2168</ele>
        <time>2018-02-10T10:22:58Z</time>
      </trkpt>
      <trkpt lat="45.61585" lon="6.65415">
        <ele>2171</ele>
        <time>2018-02-10T10:23:07Z</time>
      </trkpt>
      <trkpt lat="45.6159" lon="6.65409">
        <ele>2175</ele>
        <time>2018-02-10T10:23:20Z</time>
      </trkpt>
      <trkpt lat="45.61595" lon="6.65401">
        <ele>2177</ele>
        <time>2018-02-10T10:23:31Z</time>
      </trkpt>
      <trkpt lat="45.616" lon="6.65393">
        <ele>2180</ele>
        <time>2018-02-10T10:23:44Z</time>
      </trkpt>
      <trkpt lat="45.61604" lon="6.65388">
        <ele>2181</ele>
        <time>2018-02-10T10:23:55Z</time>
      </trkpt>
      <trkpt lat="45.61608" lon="6.65382">
        <ele>2182</ele>
        <time>2018-02-10T10:24:07Z</time>
      </trkpt>
      <trkpt lat="45.6161" lon="6.65378">
        <ele>2183</ele>
        <time>2018-02-10T10:24:19Z</time>
      </trkpt>
      <trkpt lat="45.61616" lon="6.65378">
        <ele>2183</ele>
        <time>2018-02-10T10:24:28Z</time>
      </trkpt>
      <trkpt lat="45.61623" lon="6.65378">
        <ele>2184</ele>
        <time>2018-02-10T10:24:39Z</time>
      </trkpt>
      <trkpt lat="45.61632" lon="6.65377">
        <ele>2185</ele>
        <time>2018-02-10T10:24:54Z</time>
      </trkpt>
      <trkpt lat="45.61641" lon="6.65378">
        <ele>2185</ele>
        <time>2018-02-10T10:25:05Z</time>
      </trkpt>
      <trkpt lat="45.61649" lon="6.65376">
        <ele>2186</ele>
        <time>2018-02-10T10:25:16Z</time>
      </trkpt>
      <trkpt lat="45.61657" lon="6.65375">
        <ele>2186</ele>
        <time>2018-02-10T10:25:27Z</time>
      </trkpt>
      <trkpt lat="45.61662" lon="6.65378">
        <ele>2186</ele>
        <time>2018-02-10T10:25:37Z</time>
      </trkpt>
      <trkpt lat="45.61671" lon="6.65381">
        <ele>2195</ele>
        <time>2018-02-10T10:25:51Z</time>
      </trkpt>
      <trkpt lat="45.61677" lon="6.6538">
        <ele>2195</ele>
        <time>2018-02-10T10:26:02Z</time>
      </trkpt>
      <trkpt lat="45.61684" lon="6.65379">
        <ele>2196</ele>
        <time>2018-02-10T10:26:14Z</time>
      </trkpt>
      <trkpt lat="45.61691" lon="6.65376">
        <ele>2197</ele>
        <time>2018-02-10T10:26:27Z</time>
      </trkpt>
      <trkpt lat="45.61698" lon="6.65373">
        <ele>2198</ele>
        <time>2018-02-10T10:26:37Z</time>
      </trkpt>
      <trkpt lat="45.61704" lon="6.65367">
        <ele>2199</ele>
        <time>2018-02-10T10:26:51Z</time>
      </trkpt>
      <trkpt lat="45.6171" lon="6.65362">
        <ele>2200</ele>
        <time>2018-02-10T10:27:04Z</time>
      </trkpt>
      <trkpt lat="45.61717" lon="6.6536">
        <ele>2201</ele>
        <time>2018-02-10T10:27:14Z</time>
      </trkpt>
      <trkpt lat="45.61724" lon="6.65359">
        <ele>2201</ele>
        <time>2018-02-10T10:27:25Z</time>
      </trkpt>
      <trkpt lat="45.61732" lon="6.65359">
        <ele>2202</ele>
        <time>2018-02-10T10:27:38Z</time>
      </trkpt>
      <trkpt lat="45.61741" lon="6.6536">
        <ele>2203</ele>
        <time>2018-02-10T10:27:51Z</time>
      </trkpt>
      <trkpt lat="45.61749" lon="6.65361">
        <ele>2203</ele>
        <time>2018-02-10T10:28:04Z</time>
      </trkpt>
      <trkpt lat="45.61757" lon="6.65361">
        <ele>2219</ele>
        <time>2018-02-10T10:28:17Z</time>
      </trkpt>
      <trkpt lat="45.6176" lon="6.65364">
        <ele>2219</ele>
        <time>2018-02-10T10:28:28Z</time>
      </trkpt>
      <trkpt lat="45.61768" lon="6.65366">
        <ele>2220</ele>
        <time>2018-02-10T10:28:39Z</time>
      </trkpt>
      <trkpt lat="45.61771" lon="6.65365">
        <ele>2221</ele>
        <time>2018-02-10T10:28:48Z</time>
      </trkpt>
      <trkpt lat="45.61771" lon="6.65359">
        <ele>2221</ele>
        <time>2018-02-10T10:28:58Z</time>
      </trkpt>
      <trkpt lat="45.61774" lon="6.65354">
        <ele>2221</ele>
        <time>2018-02-10T10:29:08Z</time>
      </trkpt>
      <trkpt lat="45.61776" lon="6.65348">
        <ele>2222</ele>
        <time>2018-02-10T10:29:17Z</time>
      </trkpt>
      <trkpt lat="45.61778" lon="6.65344">
        <ele>2222</ele>
        <time>2018-02-10T10:29:26Z</time>
      </trkpt>
      <trkpt lat="45.61779" lon="6.65343">
        <ele>2223</ele>
        <time>2018-02-10T10:29:28Z</time>
      </trkpt>
      <trkpt lat="45.61782" lon="6.65334">
        <ele>2224</ele>
        <time>2018-02-10T10:29:41Z</time>
      </trkpt>
      <trkpt lat="45.61783" lon="6.65324">
        <ele>2231</ele>
        <time>2018-02-10T10:29:53Z</time>
      </trkpt>
      <trkpt lat="45.61782" lon="6.65317">
        <ele>2231</ele>
        <time>2018-02-10T10:30:04Z</time>
      </trkpt>
      <trkpt lat="45.61778" lon="6.6531">
        <ele>2231</ele>
        <time>2018-02-10T10:30:16Z</time>
      </trkpt>
      <trkpt lat="45.61775" lon="6.65301">
        <ele>2232</ele>
        <time>2018-02-10T10:30:28Z</time>
      </trkpt>
      <trkpt lat="45.61773" lon="6.65294">
        <ele>2232</ele>
        <time>2018-02-10T10:30:38Z</time>
      </trkpt>
      <trkpt lat="45.61773" lon="6.65288">
        <ele>2233</ele>
        <time>2018-02-10T10:30:48Z</time>
      </trkpt>
      <trkpt lat="45.61773" lon="6.65281">
        <ele>2233</ele>
        <time>2018-02-10T10:30:58Z</time>
      </trkpt>
      <trkpt lat="45.61772" lon="6.65274">
        <ele>2233</ele>
        <time>2018-02-10T10:31:08Z</time>
      </trkpt>
      <trkpt lat="45.61772" lon="6.65267">
        <ele>2233</ele>
        <time>2018-02-10T10:31:19Z</time>
      </trkpt>
      <trkpt lat="45.61771" lon="6.6526">
        <ele>2233</ele>
        <time>2018-02-10T10:31:28Z</time>
      </trkpt>
      <trkpt lat="45.61771" lon="6.65253">
        <ele>2233</ele>
        <time>2018-02-10T10:31:38Z</time>
      </trkpt>
      <trkpt lat="45.61771" lon="6.65244">
        <ele>2241</ele>
        <time>2018-02-10T10:31:49Z</time>
      </trkpt>
      <trkpt lat="45.61771" lon="6.65233">
        <ele>2243</ele>
        <time>2018-02-10T10:32:01Z</time>
      </trkpt>
      <trkpt lat="45.61771" lon="6.65226">
        <ele>2245</ele>
        <time>2018-02-10T10:32:12Z</time>
      </trkpt>
      <trkpt lat="45.61771" lon="6.65217">
        <ele>2246</ele>
        <time>2018-02-10T10:32:23Z</time>
      </trkpt>
      <trkpt lat="45.6177" lon="6.65207">
        <ele>2247</ele>
        <time>2018-02-10T10:32:34Z</time>
      </trkpt>
      <trkpt lat="45.6177" lon="6.652">
        <ele>2248</ele>
        <time>2018-02-10T10:32:44Z</time>
      </trkpt>
      <trkpt lat="45.6177" lon="6.65191">
        <ele>2249</ele>
        <time>2018-02-10T10:32:55Z</time>
      </trkpt>
      <trkpt lat="45.6177" lon="6.65181">
        <ele>2249</ele>
        <time>2018-02-10T10:33:08Z</time>
      </trkpt>
      <trkpt lat="45.6177" lon="6.65171">
        <ele>2249</ele>
        <time>2018-02-10T10:33:20Z</time>
      </trkpt>
      <trkpt lat="45.61769" lon="6.65162">
        <ele>2257</ele>
        <time>2018-02-10T10:33:29Z</time>
      </trkpt>
      <trkpt lat="45.61767" lon="6.65153">
        <ele>2259</ele>
        <time>2018-02-10T10:33:39Z</time>
      </trkpt>
      <trkpt lat="45.61765" lon="6.65144">
        <ele>2260</ele>
        <time>2018-02-10T10:33:51Z</time>
      </trkpt>
      <trkpt lat="45.61763" lon="6.65137">
        <ele>2262</ele>
        <time>2018-02-10T10:34:02Z</time>
      </trkpt>
      <trkpt lat="45.61762" lon="6.65129">
        <ele>2263</ele>
        <time>2018-02-10T10:34:12Z</time>
      </trkpt>
      <trkpt lat="45.61761" lon="6.65122">
        <ele>2264</ele>
        <time>2018-02-10T10:34:21Z</time>
      </trkpt>
      <trkpt lat="45.61759" lon="6.65118">
        <ele>2265</ele>
        <time>2018-02-10T10:34:30Z</time>
      </trkpt>
      <trkpt lat="45.61757" lon="6.6511">
        <ele>2265</ele>
        <time>2018-02-10T10:34:40Z</time>
      </trkpt>
      <trkpt lat="45.61757" lon="6.65109">
        <ele>2265</ele>
        <time>2018-02-10T10:34:41Z</time>
      </trkpt>
      <trkpt lat="45.61754" lon="6.651">
        <ele>2266</ele>
        <time>2018-02-10T10:34:51Z</time>
      </trkpt>
      <trkpt lat="45.61752" lon="6.65096">
        <ele>2266</ele>
        <time>2018-02-10T10:35:01Z</time>
      </trkpt>
      <trkpt lat="45.61748" lon="6.65091">
        <ele>2261</ele>
        <time>2018-02-10T10:35:10Z</time>
      </trkpt>
      <trkpt lat="45.61745" lon="6.65086">
        <ele>2262</ele>
        <time>2018-02-10T10:35:19Z</time>
      </trkpt>
      <trkpt lat="45.61741" lon="6.65076">
        <ele>2266</ele>
        <time>2018-02-10T10:35:35Z</time>
      </trkpt>
      <trkpt lat="45.61737" lon="6.65072">
        <ele>2266</ele>
        <time>2018-02-10T10:35:45Z</time>
      </trkpt>
      <trkpt lat="45.61736" lon="6.65069">
        <ele>2266</ele>
        <time>2018-02-10T10:35:50Z</time>
      </trkpt>
      <trkpt lat="45.61736" lon="6.65065">
        <ele>2267</ele>
        <time>2018-02-10T10:35:58Z</time>
      </trkpt>
      <trkpt lat="45.61739" lon="6.65064">
        <ele>2267</ele>
        <time>2018-02-10T10:36:10Z</time>
      </trkpt>
      <trkpt lat="45.61744" lon="6.65066">
        <ele>2267</ele>
        <time>2018-02-10T10:36:19Z</time>
      </trkpt>
      <trkpt lat="45.61749" lon="6.65065">
        <ele>2267</ele>
        <time>2018-02-10T10:36:29Z</time>
      </trkpt>
      <trkpt lat="45.61755" lon="6.65065">
        <ele>2276</ele>
        <time>2018-02-10T10:36:40Z</time>
      </trkpt>
      <trkpt lat="45.61757" lon="6.65064">
        <ele>2276</ele>
        <time>2018-02-10T10:36:58Z</time>
      </trkpt>
      <trkpt lat="45.61758" lon="6.65067">
        <ele>2275</ele>
        <time>2018-02-10T10:37:14Z</time>
      </trkpt>
      <trkpt lat="45.61763" lon="6.65066">
        <ele>2277</ele>
        <time>2018-02-10T10:37:24Z</time>
      </trkpt>
      <trkpt lat="45.6177" lon="6.65065">
        <ele>2278</ele>
        <time>2018-02-10T10:37:35Z</time>
      </trkpt>
      <trkpt lat="45.61773" lon="6.65064">
        <ele>2279</ele>
        <time>2018-02-10T10:37:46Z</time>
      </trkpt>
      <trkpt lat="45.61777" lon="6.65066">
        <ele>2280</ele>
        <time>2018-02-10T10:37:56Z</time>
      </trkpt>
      <trkpt lat="45.61782" lon="6.65064">
        <ele>2281</ele>
        <time>2018-02-10T10:38:07Z</time>
      </trkpt>
      <trkpt lat="45.61786" lon="6.65064">
        <ele>2282</ele>
        <time>2018-02-10T10:38:17Z</time>
      </trkpt>
      <trkpt lat="45.61792" lon="6.65064">
        <ele>2283</ele>
        <time>2018-02-10T10:38:28Z</time>
      </trkpt>
      <trkpt lat="45.61798" lon="6.65065">
        <ele>2284</ele>
        <time>2018-02-10T10:38:40Z</time>
      </trkpt>
      <trkpt lat="45.61804" lon="6.65065">
        <ele>2285</ele>
        <time>2018-02-10T10:38:53Z</time>
      </trkpt>
      <trkpt lat="45.6181" lon="6.65066">
        <ele>2286</ele>
        <time>2018-02-10T10:39:03Z</time>
      </trkpt>
      <trkpt lat="45.61812" lon="6.65068">
        <ele>2286</ele>
        <time>2018-02-10T10:39:13Z</time>
      </trkpt>
      <trkpt lat="45.61812" lon="6.65068">
        <ele>2286</ele>
        <time>2018-02-10T10:39:23Z</time>
      </trkpt>
      <trkpt lat="45.61809" lon="6.65063">
        <ele>2286</ele>
        <time>2018-02-10T10:39:32Z</time>
      </trkpt>
      <trkpt lat="45.61807" lon="6.65054">
        <ele>2286</ele>
        <time>2018-02-10T10:39:44Z</time>
      </trkpt>
      <trkpt lat="45.61807" lon="6.65048">
        <ele>2287</ele>
        <time>2018-02-10T10:39:54Z</time>
      </trkpt>
      <trkpt lat="45.61807" lon="6.65042">
        <ele>2287</ele>
        <time>2018-02-10T10:40:05Z</time>
      </trkpt>
      <trkpt lat="45.61805" lon="6.65036">
        <ele>2288</ele>
        <time>2018-02-10T10:40:15Z</time>
      </trkpt>
      <trkpt lat="45.61805" lon="6.65033">
        <ele>2288</ele>
        <time>2018-02-10T10:40:25Z</time>
      </trkpt>
      <trkpt lat="45.61811" lon="6.65031">
        <ele>2289</ele>
        <time>2018-02-10T10:40:35Z</time>
      </trkpt>
      <trkpt lat="45.61814" lon="6.65031">
        <ele>2290</ele>
        <time>2018-02-10T10:40:45Z</time>
      </trkpt>
      <trkpt lat="45.61818" lon="6.6503">
        <ele>2290</ele>
        <time>2018-02-10T10:40:55Z</time>
      </trkpt>
      <trkpt lat="45.61823" lon="6.65028">
        <ele>2291</ele>
        <time>2018-02-10T10:41:05Z</time>
      </trkpt>
      <trkpt lat="45.61827" lon="6.65028">
        <ele>2292</ele>
        <time>2018-02-10T10:41:14Z</time>
      </trkpt>
      <trkpt lat="45.61833" lon="6.6503">
        <ele>2292</ele>
        <time>2018-02-10T10:41:25Z</time>
      </trkpt>
      <trkpt lat="45.61839" lon="6.65034">
        <ele>2306</ele>
        <time>2018-02-10T10:41:36Z</time>
      </trkpt>
      <trkpt lat="45.61842" lon="6.6504">
        <ele>2306</ele>
        <time>2018-02-10T10:41:47Z</time>
      </trkpt>
      <trkpt lat="45.61847" lon="6.65046">
        <ele>2305</ele>
        <time>2018-02-10T10:41:58Z</time>
      </trkpt>
      <trkpt lat="45.61853" lon="6.65052">
        <ele>2306</ele>
        <time>2018-02-10T10:42:11Z</time>
      </trkpt>
      <trkpt lat="45.61856" lon="6.65056">
        <ele>2305</ele>
        <time>2018-02-10T10:42:21Z</time>
      </trkpt>
      <trkpt lat="45.61861" lon="6.65061">
        <ele>2306</ele>
        <time>2018-02-10T10:42:32Z</time>
      </trkpt>
      <trkpt lat="45.61863" lon="6.65067">
        <ele>2306</ele>
        <time>2018-02-10T10:42:43Z</time>
      </trkpt>
      <trkpt lat="45.61866" lon="6.65072">
        <ele>2306</ele>
        <time>2018-02-10T10:42:54Z</time>
      </trkpt>
      <trkpt lat="45.61868" lon="6.65068">
        <ele>2307</ele>
        <time>2018-02-10T10:43:02Z</time>
      </trkpt>
      <trkpt lat="45.61868" lon="6.65059">
        <ele>2307</ele>
        <time>2018-02-10T10:43:14Z</time>
      </trkpt>
      <trkpt lat="45.6187" lon="6.65057">
        <ele>2308</ele>
        <time>2018-02-10T10:43:23Z</time>
      </trkpt>
      <trkpt lat="45.61872" lon="6.65058">
        <ele>2308</ele>
        <time>2018-02-10T10:43:30Z</time>
      </trkpt>
      <trkpt lat="45.6188" lon="6.65063">
        <ele>2310</ele>
        <time>2018-02-10T10:43:42Z</time>
      </trkpt>
      <trkpt lat="45.61886" lon="6.65069">
        <ele>2311</ele>
        <time>2018-02-10T10:43:54Z</time>
      </trkpt>
      <trkpt lat="45.61891" lon="6.65075">
        <ele>2312</ele>
        <time>2018-02-10T10:44:06Z</time>
      </trkpt>
      <trkpt lat="45.61894" lon="6.6508">
        <ele>2313</ele>
        <time>2018-02-10T10:44:18Z</time>
      </trkpt>
      <trkpt lat="45.61898" lon="6.65086">
        <ele>2308</ele>
        <time>2018-02-10T10:44:29Z</time>
      </trkpt>
      <trkpt lat="45.61904" lon="6.65092">
        <ele>2310</ele>
        <time>2018-02-10T10:44:42Z</time>
      </trkpt>
      <trkpt lat="45.61908" lon="6.65099">
        <ele>2309</ele>
        <time>2018-02-10T10:44:53Z</time>
      </trkpt>
      <trkpt lat="45.6191" lon="6.65099">
        <ele>2309</ele>
        <time>2018-02-10T10:45:01Z</time>
      </trkpt>
      <trkpt lat="45.6191" lon="6.65093">
        <ele>2312</ele>
        <time>2018-02-10T10:45:11Z</time>
      </trkpt>
      <trkpt lat="45.61909" lon="6.65086">
        <ele>2314</ele>
        <time>2018-02-10T10:45:22Z</time>
      </trkpt>
      <trkpt lat="45.61912" lon="6.6508">
        <ele>2318</ele>
        <time>2018-02-10T10:45:32Z</time>
      </trkpt>
      <trkpt lat="45.61918" lon="6.6508">
        <ele>2322</ele>
        <time>2018-02-10T10:45:42Z</time>
      </trkpt>
      <trkpt lat="45.61921" lon="6.65082">
        <ele>2322</ele>
        <time>2018-02-10T10:45:52Z</time>
      </trkpt>
      <trkpt lat="45.61926" lon="6.65083">
        <ele>2324</ele>
        <time>2018-02-10T10:46:03Z</time>
      </trkpt>
      <trkpt lat="45.61931" lon="6.65083">
        <ele>2326</ele>
        <time>2018-02-10T10:46:13Z</time>
      </trkpt>
      <trkpt lat="45.61932" lon="6.65083">
        <ele>2326</ele>
        <time>2018-02-10T10:46:24Z</time>
      </trkpt>
      <trkpt lat="45.61932" lon="6.65084">
        <ele>2322</ele>
        <time>2018-02-10T10:46:43Z</time>
      </trkpt>
      <trkpt lat="45.61935" lon="6.65085">
        <ele>2323</ele>
        <time>2018-02-10T10:47:03Z</time>
      </trkpt>
      <trkpt lat="45.61934" lon="6.65085">
        <ele>2322</ele>
        <time>2018-02-10T10:47:21Z</time>
      </trkpt>
      <trkpt lat="45.61933" lon="6.65084">
        <ele>2322</ele>
        <time>2018-02-10T10:47:46Z</time>
      </trkpt>
      <trkpt lat="45.61932" lon="6.65082">
        <ele>2326</ele>
        <time>2018-02-10T10:48:10Z</time>
      </trkpt>
      <trkpt lat="45.61933" lon="6.65083">
        <ele>2326</ele>
        <time>2018-02-10T10:48:31Z</time>
      </trkpt>
      <trkpt lat="45.61932" lon="6.65084">
        <ele>2322</ele>
        <time>2018-02-10T10:48:56Z</time>
      </trkpt>
      <trkpt lat="45.61933" lon="6.65084">
        <ele>2322</ele>
        <time>2018-02-10T10:49:18Z</time>
      </trkpt>
      <trkpt lat="45.61933" lon="6.65083">
        <ele>2326</ele>
        <time>2018-02-10T10:49:42Z</time>
      </trkpt>
      <trkpt lat="45.61934" lon="6.65083">
        <ele>2326</ele>
        <time>2018-02-10T10:50:05Z</time>
      </trkpt>
      <trkpt lat="45.61932" lon="6.65084">
        <ele>2322</ele>
        <time>2018-02-10T10:50:24Z</time>
      </trkpt>
      <trkpt lat="45.61932" lon="6.65084">
        <ele>2322</ele>
        <time>2018-02-10T10:50:37Z</time>
      </trkpt>
      <trkpt lat="45.61932" lon="6.65084">
        <ele>2322</ele>
        <time>2018-02-10T10:51:01Z</time>
      </trkpt>
      <trkpt lat="45.61932" lon="6.65084">
        <ele>2322</ele>
        <time>2018-02-10T10:51:18Z</time>
      </trkpt>
      <trkpt lat="45.61931" lon="6.65084">
        <ele>2322</ele>
        <time>2018-02-10T10:51:42Z</time>
      </trkpt>
      <trkpt lat="45.61932" lon="6.65084">
        <ele>2322</ele>
        <time>2018-02-10T10:52:00Z</time>
      </trkpt>
      <trkpt lat="45.61931" lon="6.65085">
        <ele>2322</ele>
        <time>2018-02-10T10:52:16Z</time>
      </trkpt>
      <trkpt lat="45.61933" lon="6.65085">
        <ele>2322</ele>
        <time>2018-02-10T10:52:35Z</time>
      </trkpt>
      <trkpt lat="45.61934" lon="6.65083">
        <ele>2327</ele>
        <time>2018-02-10T10:52:51Z</time>
      </trkpt>
      <trkpt lat="45.61933" lon="6.65082">
        <ele>2326</ele>
        <time>2018-02-10T10:53:02Z</time>
      </trkpt>
      <trkpt lat="45.61942" lon="6.65082">
        <ele>2329</ele>
        <time>2018-02-10T10:53:13Z</time>
      </trkpt>
      <trkpt lat="45.61952" lon="6.65082">
        <ele>2331</ele>
        <time>2018-02-10T10:53:24Z</time>
      </trkpt>
      <trkpt lat="45.61962" lon="6.65081">
        <ele>2332</ele>
        <time>2018-02-10T10:53:36Z</time>
      </trkpt>
      <trkpt lat="45.61972" lon="6.65082">
        <ele>2334</ele>
        <time>2018-02-10T10:53:50Z</time>
      </trkpt>
      <trkpt lat="45.6198" lon="6.65083">
        <ele>2335</ele>
        <time>2018-02-10T10:54:03Z</time>
      </trkpt>
      <trkpt lat="45.61985" lon="6.65083">
        <ele>2336</ele>
        <time>2018-02-10T10:54:13Z</time>
      </trkpt>
      <trkpt lat="45.61991" lon="6.65084">
        <ele>2334</ele>
        <time>2018-02-10T10:54:24Z</time>
      </trkpt>
      <trkpt lat="45.61996" lon="6.65083">
        <ele>2337</ele>
        <time>2018-02-10T10:54:34Z</time>
      </trkpt>
      <trkpt lat="45.62002" lon="6.65081">
        <ele>2339</ele>
        <time>2018-02-10T10:54:45Z</time>
      </trkpt>
      <trkpt lat="45.62007" lon="6.65079">
        <ele>2341</ele>
        <time>2018-02-10T10:54:56Z</time>
      </trkpt>
      <trkpt lat="45.62016" lon="6.65076">
        <ele>2343</ele>
        <time>2018-02-10T10:55:08Z</time>
      </trkpt>
      <trkpt lat="45.62022" lon="6.65076">
        <ele>2344</ele>
        <time>2018-02-10T10:55:21Z</time>
      </trkpt>
      <trkpt lat="45.62029" lon="6.65076">
        <ele>2345</ele>
        <time>2018-02-10T10:55:33Z</time>
      </trkpt>
      <trkpt lat="45.62033" lon="6.65073">
        <ele>2345</ele>
        <time>2018-02-10T10:55:43Z</time>
      </trkpt>
      <trkpt lat="45.62037" lon="6.6507">
        <ele>2346</ele>
        <time>2018-02-10T10:55:53Z</time>
      </trkpt>
      <trkpt lat="45.62041" lon="6.65068">
        <ele>2346</ele>
        <time>2018-02-10T10:56:03Z</time>
      </trkpt>
      <trkpt lat="45.62045" lon="6.65063">
        <ele>2347</ele>
        <time>2018-02-10T10:56:14Z</time>
      </trkpt>
      <trkpt lat="45.6205" lon="6.65059">
        <ele>2347</ele>
        <time>2018-02-10T10:56:25Z</time>
      </trkpt>
      <trkpt lat="45.62056" lon="6.65056">
        <ele>2348</ele>
        <time>2018-02-10T10:56:35Z</time>
      </trkpt>
      <trkpt lat="45.62062" lon="6.6505">
        <ele>2348</ele>
        <time>2018-02-10T10:56:47Z</time>
      </trkpt>
      <trkpt lat="45.62067" lon="6.65047">
        <ele>2349</ele>
        <time>2018-02-10T10:56:57Z</time>
      </trkpt>
      <trkpt lat="45.62068" lon="6.65044">
        <ele>2349</ele>
        <time>2018-02-10T10:57:01Z</time>
      </trkpt>
      <trkpt lat="45.62073" lon="6.6504">
        <ele>2350</ele>
        <time>2018-02-10T10:57:07Z</time>
      </trkpt>
      <trkpt lat="45.62079" lon="6.65035">
        <ele>2351</ele>
        <time>2018-02-10T10:57:18Z</time>
      </trkpt>
      <trkpt lat="45.62087" lon="6.65032">
        <ele>2358</ele>
        <time>2018-02-10T10:57:29Z</time>
      </trkpt>
      <trkpt lat="45.62093" lon="6.65025">
        <ele>2359</ele>
        <time>2018-02-10T10:57:42Z</time>
      </trkpt>
      <trkpt lat="45.62099" lon="6.65017">
        <ele>2360</ele>
        <time>2018-02-10T10:57:56Z</time>
      </trkpt>
      <trkpt lat="45.62104" lon="6.65015">
        <ele>2360</ele>
        <time>2018-02-10T10:58:07Z</time>
      </trkpt>
      <trkpt lat="45.62109" lon="6.65014">
        <ele>2360</ele>
        <time>2018-02-10T10:58:17Z</time>
      </trkpt>
      <trkpt lat="45.62116" lon="6.65013">
        <ele>2361</ele>
        <time>2018-02-10T10:58:29Z</time>
      </trkpt>
      <trkpt lat="45.62123" lon="6.65013">
        <ele>2361</ele>
        <time>2018-02-10T10:58:41Z</time>
      </trkpt>
      <trkpt lat="45.62131" lon="6.6501">
        <ele>2362</ele>
        <time>2018-02-10T10:58:55Z</time>
      </trkpt>
      <trkpt lat="45.62138" lon="6.6501">
        <ele>2363</ele>
        <time>2018-02-10T10:59:07Z</time>
      </trkpt>
      <trkpt lat="45.62144" lon="6.65009">
        <ele>2364</ele>
        <time>2018-02-10T10:59:18Z</time>
      </trkpt>
      <trkpt lat="45.62149" lon="6.65009">
        <ele>2365</ele>
        <time>2018-02-10T10:59:29Z</time>
      </trkpt>
      <trkpt lat="45.6215" lon="6.65004">
        <ele>2366</ele>
        <time>2018-02-10T10:59:39Z</time>
      </trkpt>
      <trkpt lat="45.62149" lon="6.65">
        <ele>2372</ele>
        <time>2018-02-10T10:59:48Z</time>
      </trkpt>
      <trkpt lat="45.62148" lon="6.64993">
        <ele>2372</ele>
        <time>2018-02-10T10:59:58Z</time>
      </trkpt>
      <trkpt lat="45.62152" lon="6.64988">
        <ele>2372</ele>
        <time>2018-02-10T11:00:08Z</time>
      </trkpt>
      <trkpt lat="45.62157" lon="6.64986">
        <ele>2372</ele>
        <time>2018-02-10T11:00:18Z</time>
      </trkpt>
      <trkpt lat="45.62162" lon="6.64982">
        <ele>2373</ele>
        <time>2018-02-10T11:00:29Z</time>
      </trkpt>
      <trkpt lat="45.62165" lon="6.64979">
        <ele>2373</ele>
        <time>2018-02-10T11:00:40Z</time>
      </trkpt>
      <trkpt lat="45.62169" lon="6.64976">
        <ele>2380</ele>
        <time>2018-02-10T11:00:51Z</time>
      </trkpt>
      <trkpt lat="45.62175" lon="6.64972">
        <ele>2382</ele>
        <time>2018-02-10T11:01:02Z</time>
      </trkpt>
      <trkpt lat="45.6218" lon="6.6497">
        <ele>2382</ele>
        <time>2018-02-10T11:01:12Z</time>
      </trkpt>
      <trkpt lat="45.62187" lon="6.64966">
        <ele>2383</ele>
        <time>2018-02-10T11:01:24Z</time>
      </trkpt>
      <trkpt lat="45.62192" lon="6.64962">
        <ele>2384</ele>
        <time>2018-02-10T11:01:34Z</time>
      </trkpt>
      <trkpt lat="45.62198" lon="6.6496">
        <ele>2385</ele>
        <time>2018-02-10T11:01:45Z</time>
      </trkpt>
      <trkpt lat="45.62202" lon="6.6496">
        <ele>2385</ele>
        <time>2018-02-10T11:01:55Z</time>
      </trkpt>
      <trkpt lat="45.62205" lon="6.64958">
        <ele>2386</ele>
        <time>2018-02-10T11:02:08Z</time>
      </trkpt>
      <trkpt lat="45.62209" lon="6.64956">
        <ele>2386</ele>
        <time>2018-02-10T11:02:19Z</time>
      </trkpt>
      <trkpt lat="45.62214" lon="6.64956">
        <ele>2387</ele>
        <time>2018-02-10T11:02:29Z</time>
      </trkpt>
      <trkpt lat="45.62218" lon="6.64953">
        <ele>2387</ele>
        <time>2018-02-10T11:02:40Z</time>
      </trkpt>
      <trkpt lat="45.62222" lon="6.64951">
        <ele>2388</ele>
        <time>2018-02-10T11:02:50Z</time>
      </trkpt>
      <trkpt lat="45.62226" lon="6.64946">
        <ele>2389</ele>
        <time>2018-02-10T11:03:00Z</time>
      </trkpt>
      <trkpt lat="45.62229" lon="6.64941">
        <ele>2390</ele>
        <time>2018-02-10T11:03:11Z</time>
      </trkpt>
      <trkpt lat="45.62235" lon="6.64936">
        <ele>2391</ele>
        <time>2018-02-10T11:03:22Z</time>
      </trkpt>
      <trkpt lat="45.6224" lon="6.6493">
        <ele>2393</ele>
        <time>2018-02-10T11:03:33Z</time>
      </trkpt>
      <trkpt lat="45.62245" lon="6.64924">
        <ele>2395</ele>
        <time>2018-02-10T11:03:44Z</time>
      </trkpt>
      <trkpt lat="45.6225" lon="6.6492">
        <ele>2397</ele>
        <time>2018-02-10T11:03:55Z</time>
      </trkpt>
      <trkpt lat="45.62255" lon="6.64914">
        <ele>2401</ele>
        <time>2018-02-10T11:04:06Z</time>
      </trkpt>
      <trkpt lat="45.62258" lon="6.64909">
        <ele>2403</ele>
        <time>2018-02-10T11:04:15Z</time>
      </trkpt>
      <trkpt lat="45.62262" lon="6.64903">
        <ele>2404</ele>
        <time>2018-02-10T11:04:25Z</time>
      </trkpt>
      <trkpt lat="45.62264" lon="6.64899">
        <ele>2405</ele>
        <time>2018-02-10T11:04:35Z</time>
      </trkpt>
      <trkpt lat="45.62267" lon="6.64892">
        <ele>2406</ele>
        <time>2018-02-10T11:04:45Z</time>
      </trkpt>
      <trkpt lat="45.62268" lon="6.64887">
        <ele>2406</ele>
        <time>2018-02-10T11:04:55Z</time>
      </trkpt>
      <trkpt lat="45.62269" lon="6.64884">
        <ele>2406</ele>
        <time>2018-02-10T11:05:03Z</time>
      </trkpt>
      <trkpt lat="45.62272" lon="6.6488">
        <ele>2406</ele>
        <time>2018-02-10T11:05:13Z</time>
      </trkpt>
      <trkpt lat="45.62273" lon="6.64876">
        <ele>2407</ele>
        <time>2018-02-10T11:05:21Z</time>
      </trkpt>
      <trkpt lat="45.62276" lon="6.64871">
        <ele>2407</ele>
        <time>2018-02-10T11:05:32Z</time>
      </trkpt>
      <trkpt lat="45.6228" lon="6.64867">
        <ele>2407</ele>
        <time>2018-02-10T11:05:42Z</time>
      </trkpt>
      <trkpt lat="45.62283" lon="6.64864">
        <ele>2408</ele>
        <time>2018-02-10T11:05:52Z</time>
      </trkpt>
      <trkpt lat="45.62285" lon="6.64863">
        <ele>2408</ele>
        <time>2018-02-10T11:06:02Z</time>
      </trkpt>
      <trkpt lat="45.62289" lon="6.6486">
        <ele>2408</ele>
        <time>2018-02-10T11:06:17Z</time>
      </trkpt>
      <trkpt lat="45.62295" lon="6.64859">
        <ele>2409</ele>
        <time>2018-02-10T11:06:29Z</time>
      </trkpt>
      <trkpt lat="45.62299" lon="6.64858">
        <ele>2410</ele>
        <time>2018-02-10T11:06:39Z</time>
      </trkpt>
      <trkpt lat="45.62305" lon="6.64856">
        <ele>2411</ele>
        <time>2018-02-10T11:06:50Z</time>
      </trkpt>
      <trkpt lat="45.6231" lon="6.64853">
        <ele>2412</ele>
        <time>2018-02-10T11:07:02Z</time>
      </trkpt>
      <trkpt lat="45.62314" lon="6.6485">
        <ele>2413</ele>
        <time>2018-02-10T11:07:12Z</time>
      </trkpt>
      <trkpt lat="45.62318" lon="6.64846">
        <ele>2414</ele>
        <time>2018-02-10T11:07:23Z</time>
      </trkpt>
      <trkpt lat="45.62322" lon="6.64843">
        <ele>2415</ele>
        <time>2018-02-10T11:07:33Z</time>
      </trkpt>
      <trkpt lat="45.62322" lon="6.64844">
        <ele>2415</ele>
        <time>2018-02-10T11:07:50Z</time>
      </trkpt>
      <trkpt lat="45.62322" lon="6.64844">
        <ele>2415</ele>
        <time>2018-02-10T11:08:08Z</time>
      </trkpt>
      <trkpt lat="45.62325" lon="6.64841">
        <ele>2416</ele>
        <time>2018-02-10T11:08:18Z</time>
      </trkpt>
      <trkpt lat="45.62329" lon="6.64836">
        <ele>2418</ele>
        <time>2018-02-10T11:08:30Z</time>
      </trkpt>
      <trkpt lat="45.62333" lon="6.64831">
        <ele>2419</ele>
        <time>2018-02-10T11:08:40Z</time>
      </trkpt>
      <trkpt lat="45.62336" lon="6.64827">
        <ele>2422</ele>
        <time>2018-02-10T11:08:50Z</time>
      </trkpt>
      <trkpt lat="45.62338" lon="6.64822">
        <ele>2422</ele>
        <time>2018-02-10T11:09:00Z</time>
      </trkpt>
      <trkpt lat="45.62341" lon="6.64816">
        <ele>2423</ele>
        <time>2018-02-10T11:09:11Z</time>
      </trkpt>
      <trkpt lat="45.62345" lon="6.6481">
        <ele>2424</ele>
        <time>2018-02-10T11:09:22Z</time>
      </trkpt>
      <trkpt lat="45.62348" lon="6.64804">
        <ele>2424</ele>
        <time>2018-02-10T11:09:32Z</time>
      </trkpt>
      <trkpt lat="45.62351" lon="6.64798">
        <ele>2424</ele>
        <time>2018-02-10T11:09:43Z</time>
      </trkpt>
      <trkpt lat="45.62353" lon="6.64791">
        <ele>2424</ele>
        <time>2018-02-10T11:09:53Z</time>
      </trkpt>
      <trkpt lat="45.62356" lon="6.64787">
        <ele>2424</ele>
        <time>2018-02-10T11:10:04Z</time>
      </trkpt>
      <trkpt lat="45.6236" lon="6.64781">
        <ele>2424</ele>
        <time>2018-02-10T11:10:15Z</time>
      </trkpt>
      <trkpt lat="45.62365" lon="6.64779">
        <ele>2425</ele>
        <time>2018-02-10T11:10:26Z</time>
      </trkpt>
      <trkpt lat="45.6237" lon="6.64778">
        <ele>2425</ele>
        <time>2018-02-10T11:10:37Z</time>
      </trkpt>
      <trkpt lat="45.62375" lon="6.6478">
        <ele>2425</ele>
        <time>2018-02-10T11:10:47Z</time>
      </trkpt>
      <trkpt lat="45.62376" lon="6.64782">
        <ele>2426</ele>
        <time>2018-02-10T11:10:55Z</time>
      </trkpt>
      <trkpt lat="45.62376" lon="6.6478">
        <ele>2426</ele>
        <time>2018-02-10T11:11:08Z</time>
      </trkpt>
      <trkpt lat="45.62376" lon="6.64781">
        <ele>2426</ele>
        <time>2018-02-10T11:11:59Z</time>
      </trkpt>
      <trkpt lat="45.62384" lon="6.64785">
        <ele>2426</ele>
        <time>2018-02-10T11:15:22Z</time>
      </trkpt>
      <trkpt lat="45.62391" lon="6.64787">
        <ele>2427</ele>
        <time>2018-02-10T11:15:32Z</time>
      </trkpt>
      <trkpt lat="45.62395" lon="6.64789">
        <ele>2427</ele>
        <time>2018-02-10T11:15:45Z</time>
      </trkpt>
      <trkpt lat="45.62402" lon="6.64791">
        <ele>2428</ele>
        <time>2018-02-10T11:15:59Z</time>
      </trkpt>
      <trkpt lat="45.62411" lon="6.64794">
        <ele>2429</ele>
        <time>2018-02-10T11:16:11Z</time>
      </trkpt>
      <trkpt lat="45.62419" lon="6.64797">
        <ele>2438</ele>
        <time>2018-02-10T11:16:23Z</time>
      </trkpt>
      <trkpt lat="45.62427" lon="6.64799">
        <ele>2438</ele>
        <time>2018-02-10T11:16:33Z</time>
      </trkpt>
      <trkpt lat="45.62436" lon="6.648">
        <ele>2439</ele>
        <time>2018-02-10T11:16:42Z</time>
      </trkpt>
      <trkpt lat="45.62443" lon="6.64801">
        <ele>2439</ele>
        <time>2018-02-10T11:16:53Z</time>
      </trkpt>
      <trkpt lat="45.62444" lon="6.648">
        <ele>2439</ele>
        <time>2018-02-10T11:16:54Z</time>
      </trkpt>
      <trkpt lat="45.62445" lon="6.64801">
        <ele>2439</ele>
        <time>2018-02-10T11:16:56Z</time>
      </trkpt>
      <trkpt lat="45.62454" lon="6.64804">
        <ele>2440</ele>
        <time>2018-02-10T11:17:07Z</time>
      </trkpt>
      <trkpt lat="45.62462" lon="6.64806">
        <ele>2441</ele>
        <time>2018-02-10T11:17:19Z</time>
      </trkpt>
      <trkpt lat="45.62468" lon="6.64807">
        <ele>2441</ele>
        <time>2018-02-10T11:17:29Z</time>
      </trkpt>
      <trkpt lat="45.62476" lon="6.6481">
        <ele>2442</ele>
        <time>2018-02-10T11:17:43Z</time>
      </trkpt>
      <trkpt lat="45.62481" lon="6.64811">
        <ele>2442</ele>
        <time>2018-02-10T11:17:55Z</time>
      </trkpt>
      <trkpt lat="45.62487" lon="6.64811">
        <ele>2443</ele>
        <time>2018-02-10T11:18:06Z</time>
      </trkpt>
      <trkpt lat="45.62492" lon="6.64807">
        <ele>2443</ele>
        <time>2018-02-10T11:18:17Z</time>
      </trkpt>
      <trkpt lat="45.62498" lon="6.64801">
        <ele>2443</ele>
        <time>2018-02-10T11:18:30Z</time>
      </trkpt>
      <trkpt lat="45.62503" lon="6.64797">
        <ele>2453</ele>
        <time>2018-02-10T11:18:41Z</time>
      </trkpt>
      <trkpt lat="45.62511" lon="6.64796">
        <ele>2453</ele>
        <time>2018-02-10T11:18:54Z</time>
      </trkpt>
      <trkpt lat="45.62515" lon="6.64798">
        <ele>2454</ele>
        <time>2018-02-10T11:19:03Z</time>
      </trkpt>
      <trkpt lat="45.6252" lon="6.64802">
        <ele>2454</ele>
        <time>2018-02-10T11:19:13Z</time>
      </trkpt>
      <trkpt lat="45.62521" lon="6.64803">
        <ele>2454</ele>
        <time>2018-02-10T11:19:15Z</time>
      </trkpt>
      <trkpt lat="45.62527" lon="6.64808">
        <ele>2455</ele>
        <time>2018-02-10T11:19:28Z</time>
      </trkpt>
      <trkpt lat="45.62534" lon="6.64808">
        <ele>2456</ele>
        <time>2018-02-10T11:19:39Z</time>
      </trkpt>
      <trkpt lat="45.62543" lon="6.64808">
        <ele>2457</ele>
        <time>2018-02-10T11:19:52Z</time>
      </trkpt>
      <trkpt lat="45.62551" lon="6.64806">
        <ele>2458</ele>
        <time>2018-02-10T11:20:02Z</time>
      </trkpt>
      <trkpt lat="45.62559" lon="6.648">
        <ele>2459</ele>
        <time>2018-02-10T11:20:14Z</time>
      </trkpt>
      <trkpt lat="45.62565" lon="6.64796">
        <ele>2459</ele>
        <time>2018-02-10T11:20:26Z</time>
      </trkpt>
      <trkpt lat="45.62572" lon="6.6479">
        <ele>2460</ele>
        <time>2018-02-10T11:20:38Z</time>
      </trkpt>
      <trkpt lat="45.6258" lon="6.64784">
        <ele>2460</ele>
        <time>2018-02-10T11:20:51Z</time>
      </trkpt>
      <trkpt lat="45.62585" lon="6.64781">
        <ele>2472</ele>
        <time>2018-02-10T11:21:02Z</time>
      </trkpt>
      <trkpt lat="45.62589" lon="6.64781">
        <ele>2472</ele>
        <time>2018-02-10T11:21:11Z</time>
      </trkpt>
      <trkpt lat="45.62594" lon="6.64781">
        <ele>2472</ele>
        <time>2018-02-10T11:21:21Z</time>
      </trkpt>
      <trkpt lat="45.62597" lon="6.64781">
        <ele>2472</ele>
        <time>2018-02-10T11:21:31Z</time>
      </trkpt>
      <trkpt lat="45.62599" lon="6.6478">
        <ele>2473</ele>
        <time>2018-02-10T11:21:46Z</time>
      </trkpt>
      <trkpt lat="45.62603" lon="6.64781">
        <ele>2473</ele>
        <time>2018-02-10T11:21:56Z</time>
      </trkpt>
      <trkpt lat="45.62605" lon="6.64783">
        <ele>2474</ele>
        <time>2018-02-10T11:22:06Z</time>
      </trkpt>
      <trkpt lat="45.6261" lon="6.64786">
        <ele>2474</ele>
        <time>2018-02-10T11:22:15Z</time>
      </trkpt>
      <trkpt lat="45.62615" lon="6.64787">
        <ele>2475</ele>
        <time>2018-02-10T11:22:25Z</time>
      </trkpt>
      <trkpt lat="45.6262" lon="6.64789">
        <ele>2476</ele>
        <time>2018-02-10T11:22:36Z</time>
      </trkpt>
      <trkpt lat="45.62624" lon="6.64792">
        <ele>2476</ele>
        <time>2018-02-10T11:22:47Z</time>
      </trkpt>
      <trkpt lat="45.62628" lon="6.64793">
        <ele>2477</ele>
        <time>2018-02-10T11:22:56Z</time>
      </trkpt>
      <trkpt lat="45.62631" lon="6.64792">
        <ele>2477</ele>
        <time>2018-02-10T11:23:05Z</time>
      </trkpt>
      <trkpt lat="45.62635" lon="6.64792">
        <ele>2477</ele>
        <time>2018-02-10T11:23:14Z</time>
      </trkpt>
      <trkpt lat="45.6264" lon="6.64791">
        <ele>2478</ele>
        <time>2018-02-10T11:23:24Z</time>
      </trkpt>
      <trkpt lat="45.62644" lon="6.64789">
        <ele>2478</ele>
        <time>2018-02-10T11:23:34Z</time>
      </trkpt>
      <trkpt lat="45.62648" lon="6.64787">
        <ele>2479</ele>
        <time>2018-02-10T11:23:45Z</time>
      </trkpt>
      <trkpt lat="45.62652" lon="6.64785">
        <ele>2479</ele>
        <time>2018-02-10T11:23:55Z</time>
      </trkpt>
      <trkpt lat="45.62656" lon="6.64782">
        <ele>2479</ele>
        <time>2018-02-10T11:24:06Z</time>
      </trkpt>
      <trkpt lat="45.6266" lon="6.64781">
        <ele>2480</ele>
        <time>2018-02-10T11:24:15Z</time>
      </trkpt>
      <trkpt lat="45.62665" lon="6.64777">
        <ele>2480</ele>
        <time>2018-02-10T11:24:27Z</time>
      </trkpt>
      <trkpt lat="45.62669" lon="6.64776">
        <ele>2488</ele>
        <time>2018-02-10T11:24:38Z</time>
      </trkpt>
      <trkpt lat="45.62674" lon="6.64773">
        <ele>2488</ele>
        <time>2018-02-10T11:24:48Z</time>
      </trkpt>
      <trkpt lat="45.62678" lon="6.64769">
        <ele>2488</ele>
        <time>2018-02-10T11:24:58Z</time>
      </trkpt>
      <trkpt lat="45.62682" lon="6.64766">
        <ele>2488</ele>
        <time>2018-02-10T11:25:08Z</time>
      </trkpt>
      <trkpt lat="45.62687" lon="6.64763">
        <ele>2488</ele>
        <time>2018-02-10T11:25:20Z</time>
      </trkpt>
      <trkpt lat="45.62691" lon="6.64759">
        <ele>2489</ele>
        <time>2018-02-10T11:25:30Z</time>
      </trkpt>
      <trkpt lat="45.62694" lon="6.64754">
        <ele>2489</ele>
        <time>2018-02-10T11:25:41Z</time>
      </trkpt>
      <trkpt lat="45.62695" lon="6.64751">
        <ele>2489</ele>
        <time>2018-02-10T11:25:51Z</time>
      </trkpt>
      <trkpt lat="45.62695" lon="6.6475">
        <ele>2497</ele>
        <time>2018-02-10T11:26:04Z</time>
      </trkpt>
      <trkpt lat="45.62698" lon="6.64754">
        <ele>2490</ele>
        <time>2018-02-10T11:26:11Z</time>
      </trkpt>
      <trkpt lat="45.62699" lon="6.6476">
        <ele>2490</ele>
        <time>2018-02-10T11:26:24Z</time>
      </trkpt>
      <trkpt lat="45.62701" lon="6.64767">
        <ele>2490</ele>
        <time>2018-02-10T11:26:35Z</time>
      </trkpt>
      <trkpt lat="45.62707" lon="6.64765">
        <ele>2490</ele>
        <time>2018-02-10T11:26:54Z</time>
      </trkpt>
      <trkpt lat="45.62712" lon="6.64764">
        <ele>2491</ele>
        <time>2018-02-10T11:27:06Z</time>
      </trkpt>
      <trkpt lat="45.62719" lon="6.64765">
        <ele>2492</ele>
        <time>2018-02-10T11:33:03Z</time>
      </trkpt>
      <trkpt lat="45.62719" lon="6.64766">
        <ele>2492</ele>
        <time>2018-02-10T11:33:27Z</time>
      </trkpt>
      <trkpt lat="45.62721" lon="6.64767">
        <ele>2492</ele>
        <time>2018-02-10T11:33:52Z</time>
      </trkpt>
      <trkpt lat="45.62722" lon="6.64766">
        <ele>2492</ele>
        <time>2018-02-10T11:41:49Z</time>
      </trkpt>
      <trkpt lat="45.62731" lon="6.64775">
        <ele>2492</ele>
        <time>2018-02-10T11:41:53Z</time>
      </trkpt>
      <trkpt lat="45.62735" lon="6.64784">
        <ele>2491</ele>
        <time>2018-02-10T11:41:56Z</time>
      </trkpt>
      <trkpt lat="45.62745" lon="6.64791">
        <ele>2490</ele>
        <time>2018-02-10T11:42:02Z</time>
      </trkpt>
      <trkpt lat="45.62748" lon="6.64809">
        <ele>2487</ele>
        <time>2018-02-10T11:42:09Z</time>
      </trkpt>
      <trkpt lat="45.6275" lon="6.64814">
        <ele>2487</ele>
        <time>2018-02-10T11:42:13Z</time>
      </trkpt>
      <trkpt lat="45.62746" lon="6.64821">
        <ele>2484</ele>
        <time>2018-02-10T11:42:16Z</time>
      </trkpt>
      <trkpt lat="45.6274" lon="6.64824">
        <ele>2484</ele>
        <time>2018-02-10T11:42:21Z</time>
      </trkpt>
      <trkpt lat="45.62737" lon="6.64823">
        <ele>2485</ele>
        <time>2018-02-10T11:42:59Z</time>
      </trkpt>
      <trkpt lat="45.62741" lon="6.64837">
        <ele>2478</ele>
        <time>2018-02-10T11:45:43Z</time>
      </trkpt>
      <trkpt lat="45.62738" lon="6.64843">
        <ele>2477</ele>
        <time>2018-02-10T11:45:45Z</time>
      </trkpt>
      <trkpt lat="45.62738" lon="6.64849">
        <ele>2476</ele>
        <time>2018-02-10T11:45:46Z</time>
      </trkpt>
      <trkpt lat="45.62741" lon="6.64853">
        <ele>2476</ele>
        <time>2018-02-10T11:45:47Z</time>
      </trkpt>
      <trkpt lat="45.62747" lon="6.64857">
        <ele>2475</ele>
        <time>2018-02-10T11:45:49Z</time>
      </trkpt>
      <trkpt lat="45.62748" lon="6.64861">
        <ele>2474</ele>
        <time>2018-02-10T11:45:50Z</time>
      </trkpt>
      <trkpt lat="45.62743" lon="6.64878">
        <ele>2471</ele>
        <time>2018-02-10T11:45:53Z</time>
      </trkpt>
      <trkpt lat="45.62742" lon="6.64883">
        <ele>2470</ele>
        <time>2018-02-10T11:45:54Z</time>
      </trkpt>
      <trkpt lat="45.62743" lon="6.64888">
        <ele>2468</ele>
        <time>2018-02-10T11:45:55Z</time>
      </trkpt>
      <trkpt lat="45.62745" lon="6.64891">
        <ele>2467</ele>
        <time>2018-02-10T11:45:56Z</time>
      </trkpt>
      <trkpt lat="45.6275" lon="6.64892">
        <ele>2466</ele>
        <time>2018-02-10T11:45:57Z</time>
      </trkpt>
      <trkpt lat="45.62755" lon="6.64891">
        <ele>2458</ele>
        <time>2018-02-10T11:45:59Z</time>
      </trkpt>
      <trkpt lat="45.62755" lon="6.64898">
        <ele>2456</ele>
        <time>2018-02-10T11:46:00Z</time>
      </trkpt>
      <trkpt lat="45.62755" lon="6.64903">
        <ele>2455</ele>
        <time>2018-02-10T11:46:01Z</time>
      </trkpt>
      <trkpt lat="45.62754" lon="6.64907">
        <ele>2454</ele>
        <time>2018-02-10T11:46:02Z</time>
      </trkpt>
      <trkpt lat="45.62757" lon="6.64914">
        <ele>2454</ele>
        <time>2018-02-10T11:46:03Z</time>
      </trkpt>
      <trkpt lat="45.6277" lon="6.64921">
        <ele>2444</ele>
        <time>2018-02-10T11:46:06Z</time>
      </trkpt>
      <trkpt lat="45.62773" lon="6.64924">
        <ele>2443</ele>
        <time>2018-02-10T11:46:07Z</time>
      </trkpt>
      <trkpt lat="45.62777" lon="6.64934">
        <ele>2441</ele>
        <time>2018-02-10T11:46:08Z</time>
      </trkpt>
      <trkpt lat="45.62793" lon="6.64965">
        <ele>2436</ele>
        <time>2018-02-10T11:46:12Z</time>
      </trkpt>
      <trkpt lat="45.62809" lon="6.64973">
        <ele>2433</ele>
        <time>2018-02-10T11:46:15Z</time>
      </trkpt>
      <trkpt lat="45.62818" lon="6.64989">
        <ele>2427</ele>
        <time>2018-02-10T11:46:18Z</time>
      </trkpt>
      <trkpt lat="45.62829" lon="6.65011">
        <ele>2419</ele>
        <time>2018-02-10T11:46:22Z</time>
      </trkpt>
      <trkpt lat="45.6284" lon="6.65009">
        <ele>2409</ele>
        <time>2018-02-10T11:46:28Z</time>
      </trkpt>
      <trkpt lat="45.62838" lon="6.65007">
        <ele>2410</ele>
        <time>2018-02-10T11:46:42Z</time>
      </trkpt>
      <trkpt lat="45.62839" lon="6.65006">
        <ele>2410</ele>
        <time>2018-02-10T11:46:53Z</time>
      </trkpt>
      <trkpt lat="45.62841" lon="6.65007">
        <ele>2409</ele>
        <time>2018-02-10T11:47:05Z</time>
      </trkpt>
      <trkpt lat="45.62843" lon="6.65011">
        <ele>2408</ele>
        <time>2018-02-10T11:47:07Z</time>
      </trkpt>
      <trkpt lat="45.62852" lon="6.65031">
        <ele>2403</ele>
        <time>2018-02-10T11:47:11Z</time>
      </trkpt>
      <trkpt lat="45.62857" lon="6.65043">
        <ele>2401</ele>
        <time>2018-02-10T11:47:13Z</time>
      </trkpt>
      <trkpt lat="45.62864" lon="6.65051">
        <ele>2399</ele>
        <time>2018-02-10T11:47:15Z</time>
      </trkpt>
      <trkpt lat="45.62867" lon="6.65069">
        <ele>2397</ele>
        <time>2018-02-10T11:47:18Z</time>
      </trkpt>
      <trkpt lat="45.62874" lon="6.65079">
        <ele>2395</ele>
        <time>2018-02-10T11:47:21Z</time>
      </trkpt>
      <trkpt lat="45.62878" lon="6.65093">
        <ele>2380</ele>
        <time>2018-02-10T11:47:24Z</time>
      </trkpt>
      <trkpt lat="45.62881" lon="6.65092">
        <ele>2379</ele>
        <time>2018-02-10T11:47:25Z</time>
      </trkpt>
      <trkpt lat="45.62886" lon="6.65092">
        <ele>2378</ele>
        <time>2018-02-10T11:47:32Z</time>
      </trkpt>
      <trkpt lat="45.62887" lon="6.65092">
        <ele>2378</ele>
        <time>2018-02-10T11:47:33Z</time>
      </trkpt>
      <trkpt lat="45.62903" lon="6.6509">
        <ele>2377</ele>
        <time>2018-02-10T11:47:41Z</time>
      </trkpt>
      <trkpt lat="45.62905" lon="6.6509">
        <ele>2377</ele>
        <time>2018-02-10T11:47:42Z</time>
      </trkpt>
      <trkpt lat="45.62908" lon="6.65105">
        <ele>2375</ele>
        <time>2018-02-10T11:47:46Z</time>
      </trkpt>
      <trkpt lat="45.62909" lon="6.65114">
        <ele>2373</ele>
        <time>2018-02-10T11:47:48Z</time>
      </trkpt>
      <trkpt lat="45.62913" lon="6.65131">
        <ele>2369</ele>
        <time>2018-02-10T11:47:52Z</time>
      </trkpt>
      <trkpt lat="45.62909" lon="6.65136">
        <ele>2367</ele>
        <time>2018-02-10T11:47:54Z</time>
      </trkpt>
      <trkpt lat="45.62908" lon="6.65144">
        <ele>2364</ele>
        <time>2018-02-10T11:48:52Z</time>
      </trkpt>
      <trkpt lat="45.62906" lon="6.65157">
        <ele>2357</ele>
        <time>2018-02-10T11:48:54Z</time>
      </trkpt>
      <trkpt lat="45.62904" lon="6.65172">
        <ele>2350</ele>
        <time>2018-02-10T11:48:57Z</time>
      </trkpt>
      <trkpt lat="45.62913" lon="6.65177">
        <ele>2348</ele>
        <time>2018-02-10T11:49:00Z</time>
      </trkpt>
      <trkpt lat="45.62916" lon="6.65186">
        <ele>2351</ele>
        <time>2018-02-10T11:49:02Z</time>
      </trkpt>
      <trkpt lat="45.62923" lon="6.65207">
        <ele>2330</ele>
        <time>2018-02-10T11:49:06Z</time>
      </trkpt>
      <trkpt lat="45.62919" lon="6.65214">
        <ele>2329</ele>
        <time>2018-02-10T11:49:11Z</time>
      </trkpt>
      <trkpt lat="45.62918" lon="6.65214">
        <ele>2329</ele>
        <time>2018-02-10T11:49:21Z</time>
      </trkpt>
      <trkpt lat="45.62929" lon="6.65232">
        <ele>2326</ele>
        <time>2018-02-10T11:49:26Z</time>
      </trkpt>
      <trkpt lat="45.62935" lon="6.65246">
        <ele>2325</ele>
        <time>2018-02-10T11:49:29Z</time>
      </trkpt>
      <trkpt lat="45.62943" lon="6.65258">
        <ele>2318</ele>
        <time>2018-02-10T11:49:32Z</time>
      </trkpt>
      <trkpt lat="45.62951" lon="6.65265">
        <ele>2317</ele>
        <time>2018-02-10T11:49:34Z</time>
      </trkpt>
      <trkpt lat="45.62955" lon="6.6527">
        <ele>2316</ele>
        <time>2018-02-10T11:49:35Z</time>
      </trkpt>
      <trkpt lat="45.62969" lon="6.65288">
        <ele>2314</ele>
        <time>2018-02-10T11:49:39Z</time>
      </trkpt>
      <trkpt lat="45.62976" lon="6.65298">
        <ele>2312</ele>
        <time>2018-02-10T11:49:41Z</time>
      </trkpt>
      <trkpt lat="45.62991" lon="6.65319">
        <ele>2305</ele>
        <time>2018-02-10T11:49:46Z</time>
      </trkpt>
      <trkpt lat="45.6299" lon="6.65323">
        <ele>2304</ele>
        <time>2018-02-10T11:49:47Z</time>
      </trkpt>
      <trkpt lat="45.62989" lon="6.65324">
        <ele>2304</ele>
        <time>2018-02-10T11:49:53Z</time>
      </trkpt>
      <trkpt lat="45.62993" lon="6.65337">
        <ele>2301</ele>
        <time>2018-02-10T11:51:21Z</time>
      </trkpt>
      <trkpt lat="45.63013" lon="6.65349">
        <ele>2285</ele>
        <time>2018-02-10T11:51:26Z</time>
      </trkpt>
      <trkpt lat="45.63023" lon="6.65362">
        <ele>2282</ele>
        <time>2018-02-10T11:51:29Z</time>
      </trkpt>
      <trkpt lat="45.63032" lon="6.65369">
        <ele>2279</ele>
        <time>2018-02-10T11:51:31Z</time>
      </trkpt>
      <trkpt lat="45.63037" lon="6.6538">
        <ele>2278</ele>
        <time>2018-02-10T11:51:33Z</time>
      </trkpt>
      <trkpt lat="45.63041" lon="6.65391">
        <ele>2277</ele>
        <time>2018-02-10T11:51:35Z</time>
      </trkpt>
      <trkpt lat="45.63048" lon="6.65402">
        <ele>2275</ele>
        <time>2018-02-10T11:51:37Z</time>
      </trkpt>
      <trkpt lat="45.63049" lon="6.65418">
        <ele>2273</ele>
        <time>2018-02-10T11:51:39Z</time>
      </trkpt>
      <trkpt lat="45.63053" lon="6.65428">
        <ele>2272</ele>
        <time>2018-02-10T11:52:42Z</time>
      </trkpt>
      <trkpt lat="45.63061" lon="6.65427">
        <ele>2269</ele>
        <time>2018-02-10T11:52:47Z</time>
      </trkpt>
      <trkpt lat="45.63063" lon="6.65432">
        <ele>2269</ele>
        <time>2018-02-10T11:52:49Z</time>
      </trkpt>
      <trkpt lat="45.63065" lon="6.65452">
        <ele>2270</ele>
        <time>2018-02-10T11:52:58Z</time>
      </trkpt>
      <trkpt lat="45.63066" lon="6.65462">
        <ele>2270</ele>
        <time>2018-02-10T11:53:08Z</time>
      </trkpt>
      <trkpt lat="45.63065" lon="6.65463">
        <ele>2270</ele>
        <time>2018-02-10T11:53:09Z</time>
      </trkpt>
      <trkpt lat="45.63072" lon="6.65468">
        <ele>2268</ele>
        <time>2018-02-10T11:53:14Z</time>
      </trkpt>
      <trkpt lat="45.6308" lon="6.65468">
        <ele>2267</ele>
        <time>2018-02-10T11:53:17Z</time>
      </trkpt>
      <trkpt lat="45.63082" lon="6.65476">
        <ele>2265</ele>
        <time>2018-02-10T11:53:19Z</time>
      </trkpt>
      <trkpt lat="45.63083" lon="6.65482">
        <ele>2263</ele>
        <time>2018-02-10T11:53:21Z</time>
      </trkpt>
      <trkpt lat="45.63085" lon="6.65491">
        <ele>2249</ele>
        <time>2018-02-10T11:53:30Z</time>
      </trkpt>
      <trkpt lat="45.63088" lon="6.65499">
        <ele>2250</ele>
        <time>2018-02-10T11:53:37Z</time>
      </trkpt>
      <trkpt lat="45.63094" lon="6.65497">
        <ele>2248</ele>
        <time>2018-02-10T11:53:40Z</time>
      </trkpt>
      <trkpt lat="45.63095" lon="6.65495">
        <ele>2247</ele>
        <time>2018-02-10T11:53:41Z</time>
      </trkpt>
      <trkpt lat="45.63096" lon="6.65492">
        <ele>2247</ele>
        <time>2018-02-10T11:53:44Z</time>
      </trkpt>
      <trkpt lat="45.63096" lon="6.65492">
        <ele>2246</ele>
        <time>2018-02-10T11:53:46Z</time>
      </trkpt>
      <trkpt lat="45.63107" lon="6.65501">
        <ele>2241</ele>
        <time>2018-02-10T11:53:50Z</time>
      </trkpt>
      <trkpt lat="45.6311" lon="6.65511">
        <ele>2240</ele>
        <time>2018-02-10T11:53:53Z</time>
      </trkpt>
      <trkpt lat="45.63116" lon="6.65524">
        <ele>2237</ele>
        <time>2018-02-10T11:53:59Z</time>
      </trkpt>
      <trkpt lat="45.63123" lon="6.6553">
        <ele>2236</ele>
        <time>2018-02-10T11:54:01Z</time>
      </trkpt>
      <trkpt lat="45.63141" lon="6.65555">
        <ele>2231</ele>
        <time>2018-02-10T11:54:05Z</time>
      </trkpt>
      <trkpt lat="45.63145" lon="6.65561">
        <ele>2230</ele>
        <time>2018-02-10T11:54:06Z</time>
      </trkpt>
      <trkpt lat="45.63155" lon="6.65582">
        <ele>2224</ele>
        <time>2018-02-10T11:54:10Z</time>
      </trkpt>
      <trkpt lat="45.63156" lon="6.65581">
        <ele>2224</ele>
        <time>2018-02-10T11:54:21Z</time>
      </trkpt>
      <trkpt lat="45.63158" lon="6.65583">
        <ele>2222</ele>
        <time>2018-02-10T11:54:32Z</time>
      </trkpt>
      <trkpt lat="45.63157" lon="6.65582">
        <ele>2223</ele>
        <time>2018-02-10T11:54:45Z</time>
      </trkpt>
      <trkpt lat="45.6316" lon="6.65589">
        <ele>2221</ele>
        <time>2018-02-10T11:54:50Z</time>
      </trkpt>
      <trkpt lat="45.63169" lon="6.65604">
        <ele>2214</ele>
        <time>2018-02-10T11:54:56Z</time>
      </trkpt>
      <trkpt lat="45.63168" lon="6.65611">
        <ele>2214</ele>
        <time>2018-02-10T11:54:58Z</time>
      </trkpt>
      <trkpt lat="45.6317" lon="6.65627">
        <ele>2212</ele>
        <time>2018-02-10T11:55:02Z</time>
      </trkpt>
      <trkpt lat="45.63169" lon="6.65627">
        <ele>2212</ele>
        <time>2018-02-10T11:55:03Z</time>
      </trkpt>
      <trkpt lat="45.63169" lon="6.65628">
        <ele>2212</ele>
        <time>2018-02-10T11:55:04Z</time>
      </trkpt>
      <trkpt lat="45.63168" lon="6.6564">
        <ele>2211</ele>
        <time>2018-02-10T11:55:09Z</time>
      </trkpt>
      <trkpt lat="45.63169" lon="6.6564">
        <ele>2211</ele>
        <time>2018-02-10T11:55:24Z</time>
      </trkpt>
      <trkpt lat="45.63169" lon="6.6564">
        <ele>2211</ele>
        <time>2018-02-10T11:55:26Z</time>
      </trkpt>
      <trkpt lat="45.63165" lon="6.6566">
        <ele>2215</ele>
        <time>2018-02-10T11:55:34Z</time>
      </trkpt>
      <trkpt lat="45.63159" lon="6.65678">
        <ele>2213</ele>
        <time>2018-02-10T11:55:39Z</time>
      </trkpt>
      <trkpt lat="45.63155" lon="6.65688">
        <ele>2213</ele>
        <time>2018-02-10T11:55:42Z</time>
      </trkpt>
      <trkpt lat="45.63151" lon="6.65702">
        <ele>2213</ele>
        <time>2018-02-10T11:55:47Z</time>
      </trkpt>
      <trkpt lat="45.63152" lon="6.65723">
        <ele>2208</ele>
        <time>2018-02-10T11:55:54Z</time>
      </trkpt>
      <trkpt lat="45.63154" lon="6.65735">
        <ele>2202</ele>
        <time>2018-02-10T11:55:57Z</time>
      </trkpt>
      <trkpt lat="45.63161" lon="6.65754">
        <ele>2189</ele>
        <time>2018-02-10T11:56:03Z</time>
      </trkpt>
      <trkpt lat="45.63163" lon="6.65762">
        <ele>2191</ele>
        <time>2018-02-10T11:56:06Z</time>
      </trkpt>
      <trkpt lat="45.63166" lon="6.6577">
        <ele>2193</ele>
        <time>2018-02-10T11:56:09Z</time>
      </trkpt>
      <trkpt lat="45.63184" lon="6.65787">
        <ele>2169</ele>
        <time>2018-02-10T11:56:22Z</time>
      </trkpt>
      <trkpt lat="45.63178" lon="6.65786">
        <ele>2170</ele>
        <time>2018-02-10T11:56:32Z</time>
      </trkpt>
      <trkpt lat="45.63188" lon="6.65784">
        <ele>2169</ele>
        <time>2018-02-10T11:57:21Z</time>
      </trkpt>
      <trkpt lat="45.63193" lon="6.65783">
        <ele>2169</ele>
        <time>2018-02-10T11:57:25Z</time>
      </trkpt>
      <trkpt lat="45.63198" lon="6.65798">
        <ele>2166</ele>
        <time>2018-02-10T11:58:25Z</time>
      </trkpt>
      <trkpt lat="45.63199" lon="6.65801">
        <ele>2166</ele>
        <time>2018-02-10T11:58:26Z</time>
      </trkpt>
      <trkpt lat="45.6321" lon="6.65802">
        <ele>2164</ele>
        <time>2018-02-10T11:58:31Z</time>
      </trkpt>
      <trkpt lat="45.63214" lon="6.65809">
        <ele>2162</ele>
        <time>2018-02-10T11:58:33Z</time>
      </trkpt>
      <trkpt lat="45.63214" lon="6.65814">
        <ele>2162</ele>
        <time>2018-02-10T11:58:35Z</time>
      </trkpt>
      <trkpt lat="45.63225" lon="6.65827">
        <ele>2156</ele>
        <time>2018-02-10T11:58:39Z</time>
      </trkpt>
      <trkpt lat="45.63229" lon="6.65838">
        <ele>2150</ele>
        <time>2018-02-10T11:58:41Z</time>
      </trkpt>
      <trkpt lat="45.63239" lon="6.6587">
        <ele>2151</ele>
        <time>2018-02-10T11:58:49Z</time>
      </trkpt>
      <trkpt lat="45.6324" lon="6.65876">
        <ele>2151</ele>
        <time>2018-02-10T11:58:54Z</time>
      </trkpt>
      <trkpt lat="45.63239" lon="6.65881">
        <ele>2151</ele>
        <time>2018-02-10T11:59:04Z</time>
      </trkpt>
      <trkpt lat="45.63239" lon="6.65882">
        <ele>2150</ele>
        <time>2018-02-10T11:59:05Z</time>
      </trkpt>
      <trkpt lat="45.63253" lon="6.6589">
        <ele>2137</ele>
        <time>2018-02-10T11:59:10Z</time>
      </trkpt>
      <trkpt lat="45.63255" lon="6.65901">
        <ele>2136</ele>
        <time>2018-02-10T11:59:13Z</time>
      </trkpt>
      <trkpt lat="45.63254" lon="6.65912">
        <ele>2136</ele>
        <time>2018-02-10T11:59:15Z</time>
      </trkpt>
      <trkpt lat="45.63258" lon="6.65944">
        <ele>2130</ele>
        <time>2018-02-10T11:59:20Z</time>
      </trkpt>
      <trkpt lat="45.63264" lon="6.65965">
        <ele>2129</ele>
        <time>2018-02-10T11:59:23Z</time>
      </trkpt>
      <trkpt lat="45.63266" lon="6.65975">
        <ele>2129</ele>
        <time>2018-02-10T11:59:24Z</time>
      </trkpt>
      <trkpt lat="45.6327" lon="6.65995">
        <ele>2129</ele>
        <time>2018-02-10T11:59:26Z</time>
      </trkpt>
      <trkpt lat="45.63272" lon="6.66009">
        <ele>2124</ele>
        <time>2018-02-10T11:59:28Z</time>
      </trkpt>
      <trkpt lat="45.6327" lon="6.66012">
        <ele>2124</ele>
        <time>2018-02-10T11:59:33Z</time>
      </trkpt>
      <trkpt lat="45.63273" lon="6.66013">
        <ele>2124</ele>
        <time>2018-02-10T12:00:09Z</time>
      </trkpt>
      <trkpt lat="45.63276" lon="6.66026">
        <ele>2122</ele>
        <time>2018-02-10T12:00:15Z</time>
      </trkpt>
      <trkpt lat="45.63276" lon="6.66028">
        <ele>2122</ele>
        <time>2018-02-10T12:00:16Z</time>
      </trkpt>
      <trkpt lat="45.63266" lon="6.6606">
        <ele>2122</ele>
        <time>2018-02-10T12:00:27Z</time>
      </trkpt>
      <trkpt lat="45.6326" lon="6.66086">
        <ele>2122</ele>
        <time>2018-02-10T12:00:36Z</time>
      </trkpt>
      <trkpt lat="45.63261" lon="6.66086">
        <ele>2121</ele>
        <time>2018-02-10T12:00:54Z</time>
      </trkpt>
      <trkpt lat="45.63257" lon="6.66101">
        <ele>2117</ele>
        <time>2018-02-10T12:01:05Z</time>
      </trkpt>
      <trkpt lat="45.63255" lon="6.6613">
        <ele>2109</ele>
        <time>2018-02-10T12:01:15Z</time>
      </trkpt>
      <trkpt lat="45.63252" lon="6.66154">
        <ele>2106</ele>
        <time>2018-02-10T12:01:26Z</time>
      </trkpt>
      <trkpt lat="45.63251" lon="6.66164">
        <ele>2104</ele>
        <time>2018-02-10T12:01:35Z</time>
      </trkpt>
      <trkpt lat="45.63245" lon="6.66182">
        <ele>2116</ele>
        <time>2018-02-10T12:01:46Z</time>
      </trkpt>
      <trkpt lat="45.63233" lon="6.66208">
        <ele>2121</ele>
        <time>2018-02-10T12:01:54Z</time>
      </trkpt>
      <trkpt lat="45.63224" lon="6.66234">
        <ele>2118</ele>
        <time>2018-02-10T12:02:02Z</time>
      </trkpt>
      <trkpt lat="45.63214" lon="6.66261">
        <ele>2104</ele>
        <time>2018-02-10T12:02:09Z</time>
      </trkpt>
      <trkpt lat="45.63203" lon="6.66285">
        <ele>2104</ele>
        <time>2018-02-10T12:02:15Z</time>
      </trkpt>
      <trkpt lat="45.63198" lon="6.66295">
        <ele>2102</ele>
        <time>2018-02-10T12:02:18Z</time>
      </trkpt>
      <trkpt lat="45.63185" lon="6.66319">
        <ele>2098</ele>
        <time>2018-02-10T12:02:28Z</time>
      </trkpt>
      <trkpt lat="45.63172" lon="6.66337">
        <ele>2089</ele>
        <time>2018-02-10T12:02:33Z</time>
      </trkpt>
      <trkpt lat="45.6317" lon="6.6634">
        <ele>2088</ele>
        <time>2018-02-10T12:02:34Z</time>
      </trkpt>
      <trkpt lat="45.63158" lon="6.6636">
        <ele>2094</ele>
        <time>2018-02-10T12:02:41Z</time>
      </trkpt>
      <trkpt lat="45.63153" lon="6.66368">
        <ele>2094</ele>
        <time>2018-02-10T12:02:44Z</time>
      </trkpt>
      <trkpt lat="45.63137" lon="6.66387">
        <ele>2092</ele>
        <time>2018-02-10T12:02:51Z</time>
      </trkpt>
      <trkpt lat="45.63133" lon="6.66392">
        <ele>2092</ele>
        <time>2018-02-10T12:02:53Z</time>
      </trkpt>
      <trkpt lat="45.63131" lon="6.66395">
        <ele>2092</ele>
        <time>2018-02-10T12:03:00Z</time>
      </trkpt>
      <trkpt lat="45.63131" lon="6.66397">
        <ele>2092</ele>
        <time>2018-02-10T12:03:12Z</time>
      </trkpt>
      <trkpt lat="45.63131" lon="6.66396">
        <ele>2092</ele>
        <time>2018-02-10T12:03:26Z</time>
      </trkpt>
      <trkpt lat="45.6313" lon="6.66396">
        <ele>2092</ele>
        <time>2018-02-10T12:03:46Z</time>
      </trkpt>
      <trkpt lat="45.63131" lon="6.66397">
        <ele>2091</ele>
        <time>2018-02-10T12:04:16Z</time>
      </trkpt>
      <trkpt lat="45.63127" lon="6.66399">
        <ele>2092</ele>
        <time>2018-02-10T12:04:27Z</time>
      </trkpt>
      <trkpt lat="45.63122" lon="6.66406">
        <ele>2092</ele>
        <time>2018-02-10T12:04:38Z</time>
      </trkpt>
      <trkpt lat="45.63118" lon="6.66412">
        <ele>2092</ele>
        <time>2018-02-10T12:04:47Z</time>
      </trkpt>
      <trkpt lat="45.63116" lon="6.66415">
        <ele>2092</ele>
        <time>2018-02-10T12:04:56Z</time>
      </trkpt>
      <trkpt lat="45.63116" lon="6.66417">
        <ele>2076</ele>
        <time>2018-02-10T12:05:05Z</time>
      </trkpt>
      <trkpt lat="45.63115" lon="6.66415">
        <ele>2092</ele>
        <time>2018-02-10T12:05:29Z</time>
      </trkpt>
      <trkpt lat="45.63111" lon="6.66421">
        <ele>2077</ele>
        <time>2018-02-10T12:07:39Z</time>
      </trkpt>
      <trkpt lat="45.63109" lon="6.66425">
        <ele>2077</ele>
        <time>2018-02-10T12:07:49Z</time>
      </trkpt>
      <trkpt lat="45.63108" lon="6.66429">
        <ele>2077</ele>
        <time>2018-02-10T12:07:58Z</time>
      </trkpt>
      <trkpt lat="45.63106" lon="6.6643">
        <ele>2078</ele>
        <time>2018-02-10T12:08:07Z</time>
      </trkpt>
      <trkpt lat="45.63104" lon="6.66434">
        <ele>2077</ele>
        <time>2018-02-10T12:08:25Z</time>
      </trkpt>
      <trkpt lat="45.63103" lon="6.66435">
        <ele>2078</ele>
        <time>2018-02-10T12:08:34Z</time>
      </trkpt>
      <trkpt lat="45.63103" lon="6.66433">
        <ele>2078</ele>
        <time>2018-02-10T12:08:58Z</time>
      </trkpt>
      <trkpt lat="45.63103" lon="6.66436">
        <ele>2077</ele>
        <time>2018-02-10T12:09:08Z</time>
      </trkpt>
      <trkpt lat="45.63103" lon="6.66436">
        <ele>2077</ele>
        <time>2018-02-10T12:09:26Z</time>
      </trkpt>
      <trkpt lat="45.63093" lon="6.66435">
        <ele>2079</ele>
        <time>2018-02-10T12:09:36Z</time>
      </trkpt>
      <trkpt lat="45.63077" lon="6.66436">
        <ele>2088</ele>
        <time>2018-02-10T12:09:43Z</time>
      </trkpt>
      <trkpt lat="45.63078" lon="6.66437">
        <ele>2088</ele>
        <time>2018-02-10T12:10:10Z</time>
      </trkpt>
      <trkpt lat="45.63086" lon="6.66437">
        <ele>2079</ele>
        <time>2018-02-10T12:17:40Z</time>
      </trkpt>
      <trkpt lat="45.63073" lon="6.66431">
        <ele>2088</ele>
        <time>2018-02-10T12:24:48Z</time>
      </trkpt>
      <trkpt lat="45.63061" lon="6.66437">
        <ele>2089</ele>
        <time>2018-02-10T12:25:29Z</time>
      </trkpt>
      <trkpt lat="45.63052" lon="6.66436">
        <ele>2089</ele>
        <time>2018-02-10T12:25:39Z</time>
      </trkpt>
      <trkpt lat="45.6305" lon="6.66435">
        <ele>2089</ele>
        <time>2018-02-10T12:25:42Z</time>
      </trkpt>
      <trkpt lat="45.63043" lon="6.66434">
        <ele>2090</ele>
        <time>2018-02-10T12:25:54Z</time>
      </trkpt>
      <trkpt lat="45.6303" lon="6.6643">
        <ele>2091</ele>
        <time>2018-02-10T12:26:05Z</time>
      </trkpt>
      <trkpt lat="45.63018" lon="6.66427">
        <ele>2093</ele>
        <time>2018-02-10T12:26:16Z</time>
      </trkpt>
      <trkpt lat="45.6301" lon="6.66425">
        <ele>2095</ele>
        <time>2018-02-10T12:26:24Z</time>
      </trkpt>
      <trkpt lat="45.63001" lon="6.6642">
        <ele>2098</ele>
        <time>2018-02-10T12:26:37Z</time>
      </trkpt>
      <trkpt lat="45.62993" lon="6.66415">
        <ele>2104</ele>
        <time>2018-02-10T12:26:48Z</time>
      </trkpt>
      <trkpt lat="45.62982" lon="6.66413">
        <ele>2110</ele>
        <time>2018-02-10T12:27:02Z</time>
      </trkpt>
      <trkpt lat="45.62976" lon="6.66412">
        <ele>2112</ele>
        <time>2018-02-10T12:27:13Z</time>
      </trkpt>
      <trkpt lat="45.62974" lon="6.66416">
        <ele>2112</ele>
        <time>2018-02-10T12:27:22Z</time>
      </trkpt>
      <trkpt lat="45.62971" lon="6.66416">
        <ele>2113</ele>
        <time>2018-02-10T12:27:33Z</time>
      </trkpt>
      <trkpt lat="45.6297" lon="6.66415">
        <ele>2113</ele>
        <time>2018-02-10T12:27:46Z</time>
      </trkpt>
      <trkpt lat="45.62969" lon="6.66412">
        <ele>2113</ele>
        <time>2018-02-10T12:27:59Z</time>
      </trkpt>
      <trkpt lat="45.62965" lon="6.66405">
        <ele>2115</ele>
        <time>2018-02-10T12:28:09Z</time>
      </trkpt>
      <trkpt lat="45.62962" lon="6.66401">
        <ele>2116</ele>
        <time>2018-02-10T12:28:19Z</time>
      </trkpt>
      <trkpt lat="45.62961" lon="6.66397">
        <ele>2116</ele>
        <time>2018-02-10T12:28:28Z</time>
      </trkpt>
      <trkpt lat="45.62959" lon="6.66392">
        <ele>2117</ele>
        <time>2018-02-10T12:28:39Z</time>
      </trkpt>
      <trkpt lat="45.62959" lon="6.66387">
        <ele>2118</ele>
        <time>2018-02-10T12:28:48Z</time>
      </trkpt>
      <trkpt lat="45.62956" lon="6.6638">
        <ele>2119</ele>
        <time>2018-02-10T12:28:59Z</time>
      </trkpt>
      <trkpt lat="45.62953" lon="6.66375">
        <ele>2119</ele>
        <time>2018-02-10T12:29:10Z</time>
      </trkpt>
      <trkpt lat="45.62949" lon="6.66371">
        <ele>2120</ele>
        <time>2018-02-10T12:29:19Z</time>
      </trkpt>
      <trkpt lat="45.62944" lon="6.66368">
        <ele>2121</ele>
        <time>2018-02-10T12:29:29Z</time>
      </trkpt>
      <trkpt lat="45.6294" lon="6.66368">
        <ele>2121</ele>
        <time>2018-02-10T12:29:40Z</time>
      </trkpt>
      <trkpt lat="45.62937" lon="6.66366">
        <ele>2121</ele>
        <time>2018-02-10T12:29:50Z</time>
      </trkpt>
      <trkpt lat="45.62934" lon="6.66366">
        <ele>2121</ele>
        <time>2018-02-10T12:30:01Z</time>
      </trkpt>
      <trkpt lat="45.62928" lon="6.66364">
        <ele>2122</ele>
        <time>2018-02-10T12:30:11Z</time>
      </trkpt>
      <trkpt lat="45.62926" lon="6.66363">
        <ele>2122</ele>
        <time>2018-02-10T12:30:19Z</time>
      </trkpt>
      <trkpt lat="45.62921" lon="6.66361">
        <ele>2122</ele>
        <time>2018-02-10T12:30:28Z</time>
      </trkpt>
      <trkpt lat="45.62917" lon="6.66359">
        <ele>2123</ele>
        <time>2018-02-10T12:30:41Z</time>
      </trkpt>
      <trkpt lat="45.62913" lon="6.66357">
        <ele>2132</ele>
        <time>2018-02-10T12:30:51Z</time>
      </trkpt>
      <trkpt lat="45.62908" lon="6.66352">
        <ele>2132</ele>
        <time>2018-02-10T12:31:04Z</time>
      </trkpt>
      <trkpt lat="45.62905" lon="6.66349">
        <ele>2132</ele>
        <time>2018-02-10T12:31:13Z</time>
      </trkpt>
      <trkpt lat="45.62901" lon="6.66349">
        <ele>2132</ele>
        <time>2018-02-10T12:31:23Z</time>
      </trkpt>
      <trkpt lat="45.62899" lon="6.66346">
        <ele>2133</ele>
        <time>2018-02-10T12:31:32Z</time>
      </trkpt>
      <trkpt lat="45.62896" lon="6.66345">
        <ele>2133</ele>
        <time>2018-02-10T12:31:42Z</time>
      </trkpt>
      <trkpt lat="45.62892" lon="6.66344">
        <ele>2134</ele>
        <time>2018-02-10T12:31:52Z</time>
      </trkpt>
      <trkpt lat="45.62888" lon="6.66341">
        <ele>2134</ele>
        <time>2018-02-10T12:32:02Z</time>
      </trkpt>
      <trkpt lat="45.62884" lon="6.66337">
        <ele>2135</ele>
        <time>2018-02-10T12:32:13Z</time>
      </trkpt>
      <trkpt lat="45.62882" lon="6.66332">
        <ele>2145</ele>
        <time>2018-02-10T12:32:23Z</time>
      </trkpt>
      <trkpt lat="45.62876" lon="6.66328">
        <ele>2147</ele>
        <time>2018-02-10T12:32:33Z</time>
      </trkpt>
      <trkpt lat="45.62873" lon="6.66325">
        <ele>2147</ele>
        <time>2018-02-10T12:32:43Z</time>
      </trkpt>
      <trkpt lat="45.62868" lon="6.66325">
        <ele>2148</ele>
        <time>2018-02-10T12:32:52Z</time>
      </trkpt>
      <trkpt lat="45.62865" lon="6.66327">
        <ele>2148</ele>
        <time>2018-02-10T12:33:03Z</time>
      </trkpt>
      <trkpt lat="45.6286" lon="6.66327">
        <ele>2148</ele>
        <time>2018-02-10T12:33:14Z</time>
      </trkpt>
      <trkpt lat="45.62857" lon="6.66326">
        <ele>2148</ele>
        <time>2018-02-10T12:33:25Z</time>
      </trkpt>
      <trkpt lat="45.62853" lon="6.66324">
        <ele>2148</ele>
        <time>2018-02-10T12:33:35Z</time>
      </trkpt>
      <trkpt lat="45.6285" lon="6.66321">
        <ele>2148</ele>
        <time>2018-02-10T12:33:45Z</time>
      </trkpt>
      <trkpt lat="45.62846" lon="6.6632">
        <ele>2148</ele>
        <time>2018-02-10T12:33:55Z</time>
      </trkpt>
      <trkpt lat="45.62841" lon="6.66319">
        <ele>2148</ele>
        <time>2018-02-10T12:34:06Z</time>
      </trkpt>
      <trkpt lat="45.62838" lon="6.66316">
        <ele>2148</ele>
        <time>2018-02-10T12:34:16Z</time>
      </trkpt>
      <trkpt lat="45.62834" lon="6.66314">
        <ele>2149</ele>
        <time>2018-02-10T12:34:25Z</time>
      </trkpt>
      <trkpt lat="45.6283" lon="6.66315">
        <ele>2153</ele>
        <time>2018-02-10T12:34:35Z</time>
      </trkpt>
      <trkpt lat="45.62824" lon="6.66316">
        <ele>2153</ele>
        <time>2018-02-10T12:34:46Z</time>
      </trkpt>
      <trkpt lat="45.6282" lon="6.66318">
        <ele>2154</ele>
        <time>2018-02-10T12:34:56Z</time>
      </trkpt>
      <trkpt lat="45.62815" lon="6.66314">
        <ele>2155</ele>
        <time>2018-02-10T12:35:06Z</time>
      </trkpt>
      <trkpt lat="45.62813" lon="6.66311">
        <ele>2156</ele>
        <time>2018-02-10T12:35:16Z</time>
      </trkpt>
      <trkpt lat="45.62808" lon="6.66306">
        <ele>2157</ele>
        <time>2018-02-10T12:35:27Z</time>
      </trkpt>
      <trkpt lat="45.62807" lon="6.66307">
        <ele>2158</ele>
        <time>2018-02-10T12:35:41Z</time>
      </trkpt>
      <trkpt lat="45.62805" lon="6.66302">
        <ele>2158</ele>
        <time>2018-02-10T12:35:48Z</time>
      </trkpt>
      <trkpt lat="45.62801" lon="6.66296">
        <ele>2159</ele>
        <time>2018-02-10T12:36:00Z</time>
      </trkpt>
      <trkpt lat="45.62802" lon="6.66291">
        <ele>2160</ele>
        <time>2018-02-10T12:36:10Z</time>
      </trkpt>
      <trkpt lat="45.62793" lon="6.66285">
        <ele>2161</ele>
        <time>2018-02-10T12:36:21Z</time>
      </trkpt>
      <trkpt lat="45.62794" lon="6.66284">
        <ele>2161</ele>
        <time>2018-02-10T12:36:31Z</time>
      </trkpt>
      <trkpt lat="45.62793" lon="6.66284">
        <ele>2161</ele>
        <time>2018-02-10T12:36:52Z</time>
      </trkpt>
      <trkpt lat="45.62785" lon="6.66274">
        <ele>2162</ele>
        <time>2018-02-10T12:37:04Z</time>
      </trkpt>
      <trkpt lat="45.62776" lon="6.66266">
        <ele>2163</ele>
        <time>2018-02-10T12:37:14Z</time>
      </trkpt>
      <trkpt lat="45.62769" lon="6.6626">
        <ele>2164</ele>
        <time>2018-02-10T12:37:26Z</time>
      </trkpt>
      <trkpt lat="45.6276" lon="6.66257">
        <ele>2165</ele>
        <time>2018-02-10T12:37:37Z</time>
      </trkpt>
      <trkpt lat="45.62754" lon="6.66256">
        <ele>2166</ele>
        <time>2018-02-10T12:37:47Z</time>
      </trkpt>
      <trkpt lat="45.62752" lon="6.66257">
        <ele>2166</ele>
        <time>2018-02-10T12:37:57Z</time>
      </trkpt>
      <trkpt lat="45.62752" lon="6.66254">
        <ele>2166</ele>
        <time>2018-02-10T12:38:08Z</time>
      </trkpt>
      <trkpt lat="45.62751" lon="6.66249">
        <ele>2168</ele>
        <time>2018-02-10T12:38:18Z</time>
      </trkpt>
      <trkpt lat="45.62752" lon="6.66244">
        <ele>2171</ele>
        <time>2018-02-10T12:38:28Z</time>
      </trkpt>
      <trkpt lat="45.62754" lon="6.66237">
        <ele>2174</ele>
        <time>2018-02-10T12:38:37Z</time>
      </trkpt>
      <trkpt lat="45.62748" lon="6.66231">
        <ele>2181</ele>
        <time>2018-02-10T12:38:47Z</time>
      </trkpt>
      <trkpt lat="45.62743" lon="6.66227">
        <ele>2183</ele>
        <time>2018-02-10T12:38:57Z</time>
      </trkpt>
      <trkpt lat="45.62738" lon="6.66226">
        <ele>2185</ele>
        <time>2018-02-10T12:39:08Z</time>
      </trkpt>
      <trkpt lat="45.62737" lon="6.66225">
        <ele>2185</ele>
        <time>2018-02-10T12:39:18Z</time>
      </trkpt>
      <trkpt lat="45.62733" lon="6.66223">
        <ele>2186</ele>
        <time>2018-02-10T12:39:26Z</time>
      </trkpt>
      <trkpt lat="45.62731" lon="6.66223">
        <ele>2187</ele>
        <time>2018-02-10T12:39:38Z</time>
      </trkpt>
      <trkpt lat="45.6273" lon="6.66223">
        <ele>2187</ele>
        <time>2018-02-10T12:39:49Z</time>
      </trkpt>
      <trkpt lat="45.6273" lon="6.66227">
        <ele>2186</ele>
        <time>2018-02-10T12:39:58Z</time>
      </trkpt>
      <trkpt lat="45.62725" lon="6.66227">
        <ele>2187</ele>
        <time>2018-02-10T12:40:08Z</time>
      </trkpt>
      <trkpt lat="45.62719" lon="6.66227">
        <ele>2188</ele>
        <time>2018-02-10T12:40:17Z</time>
      </trkpt>
      <trkpt lat="45.62715" lon="6.66226">
        <ele>2189</ele>
        <time>2018-02-10T12:40:27Z</time>
      </trkpt>
      <trkpt lat="45.62713" lon="6.66226">
        <ele>2189</ele>
        <time>2018-02-10T12:40:37Z</time>
      </trkpt>
      <trkpt lat="45.6271" lon="6.66226">
        <ele>2190</ele>
        <time>2018-02-10T12:40:46Z</time>
      </trkpt>
      <trkpt lat="45.62705" lon="6.66226">
        <ele>2190</ele>
        <time>2018-02-10T12:40:56Z</time>
      </trkpt>
      <trkpt lat="45.62704" lon="6.6623">
        <ele>2190</ele>
        <time>2018-02-10T12:41:06Z</time>
      </trkpt>
      <trkpt lat="45.62701" lon="6.66228">
        <ele>2191</ele>
        <time>2018-02-10T12:41:21Z</time>
      </trkpt>
      <trkpt lat="45.62696" lon="6.66224">
        <ele>2192</ele>
        <time>2018-02-10T12:41:32Z</time>
      </trkpt>
      <trkpt lat="45.62691" lon="6.66222">
        <ele>2193</ele>
        <time>2018-02-10T12:41:43Z</time>
      </trkpt>
      <trkpt lat="45.62687" lon="6.6622">
        <ele>2193</ele>
        <time>2018-02-10T12:41:54Z</time>
      </trkpt>
      <trkpt lat="45.62683" lon="6.66219">
        <ele>2193</ele>
        <time>2018-02-10T12:42:04Z</time>
      </trkpt>
      <trkpt lat="45.6268" lon="6.66217">
        <ele>2194</ele>
        <time>2018-02-10T12:42:13Z</time>
      </trkpt>
      <trkpt lat="45.62675" lon="6.66214">
        <ele>2195</ele>
        <time>2018-02-10T12:42:23Z</time>
      </trkpt>
      <trkpt lat="45.6267" lon="6.66212">
        <ele>2195</ele>
        <time>2018-02-10T12:42:33Z</time>
      </trkpt>
      <trkpt lat="45.62665" lon="6.6621">
        <ele>2207</ele>
        <time>2018-02-10T12:42:45Z</time>
      </trkpt>
      <trkpt lat="45.62659" lon="6.66208">
        <ele>2208</ele>
        <time>2018-02-10T12:42:57Z</time>
      </trkpt>
      <trkpt lat="45.62654" lon="6.66206">
        <ele>2209</ele>
        <time>2018-02-10T12:43:07Z</time>
      </trkpt>
      <trkpt lat="45.62648" lon="6.66203">
        <ele>2210</ele>
        <time>2018-02-10T12:43:18Z</time>
      </trkpt>
      <trkpt lat="45.62642" lon="6.66199">
        <ele>2210</ele>
        <time>2018-02-10T12:43:31Z</time>
      </trkpt>
      <trkpt lat="45.62635" lon="6.66195">
        <ele>2211</ele>
        <time>2018-02-10T12:43:42Z</time>
      </trkpt>
      <trkpt lat="45.62629" lon="6.66196">
        <ele>2212</ele>
        <time>2018-02-10T12:43:55Z</time>
      </trkpt>
      <trkpt lat="45.62624" lon="6.66193">
        <ele>2212</ele>
        <time>2018-02-10T12:44:07Z</time>
      </trkpt>
      <trkpt lat="45.62616" lon="6.6619">
        <ele>2213</ele>
        <time>2018-02-10T12:44:21Z</time>
      </trkpt>
      <trkpt lat="45.6261" lon="6.66189">
        <ele>2214</ele>
        <time>2018-02-10T12:44:32Z</time>
      </trkpt>
      <trkpt lat="45.62606" lon="6.66186">
        <ele>2215</ele>
        <time>2018-02-10T12:44:42Z</time>
      </trkpt>
      <trkpt lat="45.62601" lon="6.66183">
        <ele>2216</ele>
        <time>2018-02-10T12:44:53Z</time>
      </trkpt>
      <trkpt lat="45.62595" lon="6.66179">
        <ele>2217</ele>
        <time>2018-02-10T12:45:06Z</time>
      </trkpt>
      <trkpt lat="45.62588" lon="6.66176">
        <ele>2218</ele>
        <time>2018-02-10T12:45:17Z</time>
      </trkpt>
      <trkpt lat="45.62581" lon="6.66174">
        <ele>2225</ele>
        <time>2018-02-10T12:45:29Z</time>
      </trkpt>
      <trkpt lat="45.62577" lon="6.66172">
        <ele>2225</ele>
        <time>2018-02-10T12:45:39Z</time>
      </trkpt>
      <trkpt lat="45.62573" lon="6.6617">
        <ele>2227</ele>
        <time>2018-02-10T12:45:49Z</time>
      </trkpt>
      <trkpt lat="45.62569" lon="6.66168">
        <ele>2228</ele>
        <time>2018-02-10T12:45:58Z</time>
      </trkpt>
      <trkpt lat="45.62565" lon="6.66166">
        <ele>2233</ele>
        <time>2018-02-10T12:46:09Z</time>
      </trkpt>
      <trkpt lat="45.62561" lon="6.66164">
        <ele>2235</ele>
        <time>2018-02-10T12:46:18Z</time>
      </trkpt>
      <trkpt lat="45.62557" lon="6.66162">
        <ele>2236</ele>
        <time>2018-02-10T12:46:28Z</time>
      </trkpt>
      <trkpt lat="45.62553" lon="6.6616">
        <ele>2238</ele>
        <time>2018-02-10T12:46:37Z</time>
      </trkpt>
      <trkpt lat="45.6255" lon="6.66155">
        <ele>2239</ele>
        <time>2018-02-10T12:46:46Z</time>
      </trkpt>
      <trkpt lat="45.62546" lon="6.66152">
        <ele>2240</ele>
        <time>2018-02-10T12:46:57Z</time>
      </trkpt>
      <trkpt lat="45.62545" lon="6.66149">
        <ele>2241</ele>
        <time>2018-02-10T12:47:07Z</time>
      </trkpt>
      <trkpt lat="45.62543" lon="6.66143">
        <ele>2242</ele>
        <time>2018-02-10T12:47:19Z</time>
      </trkpt>
      <trkpt lat="45.62539" lon="6.66139">
        <ele>2242</ele>
        <time>2018-02-10T12:47:29Z</time>
      </trkpt>
      <trkpt lat="45.62535" lon="6.66138">
        <ele>2243</ele>
        <time>2018-02-10T12:47:40Z</time>
      </trkpt>
      <trkpt lat="45.62531" lon="6.66135">
        <ele>2243</ele>
        <time>2018-02-10T12:47:50Z</time>
      </trkpt>
      <trkpt lat="45.62527" lon="6.66131">
        <ele>2244</ele>
        <time>2018-02-10T12:48:00Z</time>
      </trkpt>
      <trkpt lat="45.62523" lon="6.66123">
        <ele>2245</ele>
        <time>2018-02-10T12:48:12Z</time>
      </trkpt>
      <trkpt lat="45.62519" lon="6.66112">
        <ele>2246</ele>
        <time>2018-02-10T12:48:24Z</time>
      </trkpt>
      <trkpt lat="45.62517" lon="6.66103">
        <ele>2246</ele>
        <time>2018-02-10T12:48:39Z</time>
      </trkpt>
      <trkpt lat="45.62517" lon="6.66093">
        <ele>2247</ele>
        <time>2018-02-10T12:48:50Z</time>
      </trkpt>
      <trkpt lat="45.62513" lon="6.66089">
        <ele>2247</ele>
        <time>2018-02-10T12:49:00Z</time>
      </trkpt>
      <trkpt lat="45.6251" lon="6.66078">
        <ele>2256</ele>
        <time>2018-02-10T12:49:12Z</time>
      </trkpt>
      <trkpt lat="45.62508" lon="6.66073">
        <ele>2257</ele>
        <time>2018-02-10T12:49:25Z</time>
      </trkpt>
      <trkpt lat="45.62506" lon="6.66061">
        <ele>2261</ele>
        <time>2018-02-10T12:49:35Z</time>
      </trkpt>
      <trkpt lat="45.62504" lon="6.66054">
        <ele>2264</ele>
        <time>2018-02-10T12:49:45Z</time>
      </trkpt>
      <trkpt lat="45.62503" lon="6.66053">
        <ele>2264</ele>
        <time>2018-02-10T12:49:47Z</time>
      </trkpt>
      <trkpt lat="45.62498" lon="6.66046">
        <ele>2262</ele>
        <time>2018-02-10T12:50:00Z</time>
      </trkpt>
      <trkpt lat="45.62494" lon="6.66039">
        <ele>2264</ele>
        <time>2018-02-10T12:50:09Z</time>
      </trkpt>
      <trkpt lat="45.62491" lon="6.66034">
        <ele>2264</ele>
        <time>2018-02-10T12:50:21Z</time>
      </trkpt>
      <trkpt lat="45.62489" lon="6.66028">
        <ele>2265</ele>
        <time>2018-02-10T12:50:29Z</time>
      </trkpt>
      <trkpt lat="45.62485" lon="6.66021">
        <ele>2266</ele>
        <time>2018-02-10T12:50:39Z</time>
      </trkpt>
      <trkpt lat="45.62479" lon="6.66015">
        <ele>2267</ele>
        <time>2018-02-10T12:50:53Z</time>
      </trkpt>
      <trkpt lat="45.62473" lon="6.66011">
        <ele>2267</ele>
        <time>2018-02-10T12:51:03Z</time>
      </trkpt>
      <trkpt lat="45.62467" lon="6.66006">
        <ele>2267</ele>
        <time>2018-02-10T12:51:17Z</time>
      </trkpt>
      <trkpt lat="45.62463" lon="6.66003">
        <ele>2267</ele>
        <time>2018-02-10T12:51:26Z</time>
      </trkpt>
      <trkpt lat="45.62456" lon="6.65994">
        <ele>2276</ele>
        <time>2018-02-10T12:51:42Z</time>
      </trkpt>
      <trkpt lat="45.62456" lon="6.65993">
        <ele>2276</ele>
        <time>2018-02-10T12:51:55Z</time>
      </trkpt>
      <trkpt lat="45.62455" lon="6.6599">
        <ele>2277</ele>
        <time>2018-02-10T12:52:08Z</time>
      </trkpt>
      <trkpt lat="45.62454" lon="6.6599">
        <ele>2277</ele>
        <time>2018-02-10T12:52:21Z</time>
      </trkpt>
      <trkpt lat="45.62455" lon="6.65993">
        <ele>2276</ele>
        <time>2018-02-10T12:53:22Z</time>
      </trkpt>
      <trkpt lat="45.62456" lon="6.65993">
        <ele>2276</ele>
        <time>2018-02-10T12:54:03Z</time>
      </trkpt>
      <trkpt lat="45.62455" lon="6.65991">
        <ele>2277</ele>
        <time>2018-02-10T12:54:20Z</time>
      </trkpt>
      <trkpt lat="45.62457" lon="6.65995">
        <ele>2276</ele>
        <time>2018-02-10T12:54:45Z</time>
      </trkpt>
      <trkpt lat="45.62457" lon="6.65995">
        <ele>2276</ele>
        <time>2018-02-10T12:55:14Z</time>
      </trkpt>
      <trkpt lat="45.62445" lon="6.65984">
        <ele>2277</ele>
        <time>2018-02-10T12:57:37Z</time>
      </trkpt>
      <trkpt lat="45.62443" lon="6.65985">
        <ele>2277</ele>
        <time>2018-02-10T12:57:48Z</time>
      </trkpt>
      <trkpt lat="45.62439" lon="6.65983">
        <ele>2277</ele>
        <time>2018-02-10T12:58:01Z</time>
      </trkpt>
      <trkpt lat="45.62437" lon="6.65978">
        <ele>2277</ele>
        <time>2018-02-10T12:58:15Z</time>
      </trkpt>
      <trkpt lat="45.62434" lon="6.65975">
        <ele>2277</ele>
        <time>2018-02-10T12:58:24Z</time>
      </trkpt>
      <trkpt lat="45.62434" lon="6.65977">
        <ele>2277</ele>
        <time>2018-02-10T12:58:30Z</time>
      </trkpt>
      <trkpt lat="45.62434" lon="6.65981">
        <ele>2276</ele>
        <time>2018-02-10T12:58:39Z</time>
      </trkpt>
      <trkpt lat="45.62433" lon="6.65984">
        <ele>2276</ele>
        <time>2018-02-10T12:58:48Z</time>
      </trkpt>
      <trkpt lat="45.62428" lon="6.65987">
        <ele>2276</ele>
        <time>2018-02-10T12:58:59Z</time>
      </trkpt>
      <trkpt lat="45.62424" lon="6.6599">
        <ele>2275</ele>
        <time>2018-02-10T12:59:08Z</time>
      </trkpt>
      <trkpt lat="45.6242" lon="6.65993">
        <ele>2274</ele>
        <time>2018-02-10T12:59:17Z</time>
      </trkpt>
      <trkpt lat="45.62414" lon="6.65996">
        <ele>2276</ele>
        <time>2018-02-10T12:59:27Z</time>
      </trkpt>
      <trkpt lat="45.62408" lon="6.65998">
        <ele>2279</ele>
        <time>2018-02-10T12:59:37Z</time>
      </trkpt>
      <trkpt lat="45.62407" lon="6.65998">
        <ele>2279</ele>
        <time>2018-02-10T12:59:38Z</time>
      </trkpt>
      <trkpt lat="45.62401" lon="6.65999">
        <ele>2282</ele>
        <time>2018-02-10T12:59:47Z</time>
      </trkpt>
      <trkpt lat="45.62396" lon="6.65999">
        <ele>2284</ele>
        <time>2018-02-10T12:59:58Z</time>
      </trkpt>
      <trkpt lat="45.62394" lon="6.66003">
        <ele>2287</ele>
        <time>2018-02-10T13:00:10Z</time>
      </trkpt>
      <trkpt lat="45.62391" lon="6.66">
        <ele>2288</ele>
        <time>2018-02-10T13:00:22Z</time>
      </trkpt>
      <trkpt lat="45.62387" lon="6.65994">
        <ele>2287</ele>
        <time>2018-02-10T13:00:32Z</time>
      </trkpt>
      <trkpt lat="45.62386" lon="6.6599">
        <ele>2288</ele>
        <time>2018-02-10T13:00:41Z</time>
      </trkpt>
      <trkpt lat="45.62385" lon="6.65982">
        <ele>2288</ele>
        <time>2018-02-10T13:00:53Z</time>
      </trkpt>
      <trkpt lat="45.62385" lon="6.65976">
        <ele>2289</ele>
        <time>2018-02-10T13:01:03Z</time>
      </trkpt>
      <trkpt lat="45.62382" lon="6.65971">
        <ele>2289</ele>
        <time>2018-02-10T13:01:12Z</time>
      </trkpt>
      <trkpt lat="45.62379" lon="6.65967">
        <ele>2290</ele>
        <time>2018-02-10T13:01:22Z</time>
      </trkpt>
      <trkpt lat="45.62376" lon="6.65962">
        <ele>2290</ele>
        <time>2018-02-10T13:01:30Z</time>
      </trkpt>
      <trkpt lat="45.62375" lon="6.65958">
        <ele>2291</ele>
        <time>2018-02-10T13:01:38Z</time>
      </trkpt>
      <trkpt lat="45.62371" lon="6.65955">
        <ele>2291</ele>
        <time>2018-02-10T13:01:48Z</time>
      </trkpt>
      <trkpt lat="45.62369" lon="6.65948">
        <ele>2291</ele>
        <time>2018-02-10T13:01:58Z</time>
      </trkpt>
      <trkpt lat="45.62365" lon="6.65945">
        <ele>2292</ele>
        <time>2018-02-10T13:02:08Z</time>
      </trkpt>
      <trkpt lat="45.62363" lon="6.65946">
        <ele>2292</ele>
        <time>2018-02-10T13:02:19Z</time>
      </trkpt>
      <trkpt lat="45.62359" lon="6.6594">
        <ele>2292</ele>
        <time>2018-02-10T13:02:31Z</time>
      </trkpt>
      <trkpt lat="45.62357" lon="6.65936">
        <ele>2293</ele>
        <time>2018-02-10T13:02:44Z</time>
      </trkpt>
      <trkpt lat="45.62356" lon="6.65932">
        <ele>2293</ele>
        <time>2018-02-10T13:02:55Z</time>
      </trkpt>
      <trkpt lat="45.62355" lon="6.6593">
        <ele>2293</ele>
        <time>2018-02-10T13:03:03Z</time>
      </trkpt>
      <trkpt lat="45.62354" lon="6.65932">
        <ele>2293</ele>
        <time>2018-02-10T13:03:12Z</time>
      </trkpt>
      <trkpt lat="45.62352" lon="6.65931">
        <ele>2293</ele>
        <time>2018-02-10T13:03:31Z</time>
      </trkpt>
      <trkpt lat="45.62351" lon="6.65935">
        <ele>2293</ele>
        <time>2018-02-10T13:03:47Z</time>
      </trkpt>
      <trkpt lat="45.62352" lon="6.65933">
        <ele>2293</ele>
        <time>2018-02-10T13:03:54Z</time>
      </trkpt>
      <trkpt lat="45.62351" lon="6.65941">
        <ele>2293</ele>
        <time>2018-02-10T13:04:04Z</time>
      </trkpt>
      <trkpt lat="45.62347" lon="6.65952">
        <ele>2294</ele>
        <time>2018-02-10T13:04:20Z</time>
      </trkpt>
      <trkpt lat="45.62346" lon="6.6596">
        <ele>2295</ele>
        <time>2018-02-10T13:04:29Z</time>
      </trkpt>
      <trkpt lat="45.62344" lon="6.65961">
        <ele>2295</ele>
        <time>2018-02-10T13:04:38Z</time>
      </trkpt>
      <trkpt lat="45.62342" lon="6.65958">
        <ele>2295</ele>
        <time>2018-02-10T13:04:48Z</time>
      </trkpt>
      <trkpt lat="45.62338" lon="6.65952">
        <ele>2295</ele>
        <time>2018-02-10T13:04:59Z</time>
      </trkpt>
      <trkpt lat="45.62336" lon="6.65949">
        <ele>2295</ele>
        <time>2018-02-10T13:05:06Z</time>
      </trkpt>
      <trkpt lat="45.62333" lon="6.65947">
        <ele>2316</ele>
        <time>2018-02-10T13:05:17Z</time>
      </trkpt>
      <trkpt lat="45.62332" lon="6.65943">
        <ele>2315</ele>
        <time>2018-02-10T13:05:30Z</time>
      </trkpt>
      <trkpt lat="45.62332" lon="6.65945">
        <ele>2315</ele>
        <time>2018-02-10T13:05:45Z</time>
      </trkpt>
      <trkpt lat="45.6233" lon="6.6594">
        <ele>2314</ele>
        <time>2018-02-10T13:06:07Z</time>
      </trkpt>
      <trkpt lat="45.62332" lon="6.65942">
        <ele>2314</ele>
        <time>2018-02-10T13:06:31Z</time>
      </trkpt>
      <trkpt lat="45.62331" lon="6.6594">
        <ele>2314</ele>
        <time>2018-02-10T13:06:40Z</time>
      </trkpt>
      <trkpt lat="45.62327" lon="6.65934">
        <ele>2312</ele>
        <time>2018-02-10T13:06:50Z</time>
      </trkpt>
      <trkpt lat="45.62324" lon="6.65928">
        <ele>2310</ele>
        <time>2018-02-10T13:06:59Z</time>
      </trkpt>
      <trkpt lat="45.62319" lon="6.65918">
        <ele>2310</ele>
        <time>2018-02-10T13:07:11Z</time>
      </trkpt>
      <trkpt lat="45.62315" lon="6.6591">
        <ele>2311</ele>
        <time>2018-02-10T13:07:21Z</time>
      </trkpt>
      <trkpt lat="45.62309" lon="6.65902">
        <ele>2315</ele>
        <time>2018-02-10T13:07:32Z</time>
      </trkpt>
      <trkpt lat="45.62302" lon="6.65897">
        <ele>2318</ele>
        <time>2018-02-10T13:07:43Z</time>
      </trkpt>
      <trkpt lat="45.62298" lon="6.65891">
        <ele>2320</ele>
        <time>2018-02-10T13:07:56Z</time>
      </trkpt>
      <trkpt lat="45.62295" lon="6.65889">
        <ele>2320</ele>
        <time>2018-02-10T13:08:08Z</time>
      </trkpt>
      <trkpt lat="45.6229" lon="6.65885">
        <ele>2322</ele>
        <time>2018-02-10T13:08:18Z</time>
      </trkpt>
      <trkpt lat="45.62285" lon="6.65882">
        <ele>2323</ele>
        <time>2018-02-10T13:08:30Z</time>
      </trkpt>
      <trkpt lat="45.62279" lon="6.65883">
        <ele>2324</ele>
        <time>2018-02-10T13:08:43Z</time>
      </trkpt>
      <trkpt lat="45.62273" lon="6.65883">
        <ele>2325</ele>
        <time>2018-02-10T13:08:52Z</time>
      </trkpt>
      <trkpt lat="45.62266" lon="6.6588">
        <ele>2326</ele>
        <time>2018-02-10T13:09:05Z</time>
      </trkpt>
      <trkpt lat="45.62264" lon="6.65878">
        <ele>2326</ele>
        <time>2018-02-10T13:09:07Z</time>
      </trkpt>
      <trkpt lat="45.62254" lon="6.65867">
        <ele>2328</ele>
        <time>2018-02-10T13:09:22Z</time>
      </trkpt>
      <trkpt lat="45.62245" lon="6.6586">
        <ele>2336</ele>
        <time>2018-02-10T13:09:34Z</time>
      </trkpt>
      <trkpt lat="45.62234" lon="6.65854">
        <ele>2335</ele>
        <time>2018-02-10T13:09:49Z</time>
      </trkpt>
      <trkpt lat="45.62227" lon="6.65848">
        <ele>2335</ele>
        <time>2018-02-10T13:10:01Z</time>
      </trkpt>
      <trkpt lat="45.62224" lon="6.65851">
        <ele>2335</ele>
        <time>2018-02-10T13:11:35Z</time>
      </trkpt>
      <trkpt lat="45.62221" lon="6.65861">
        <ele>2335</ele>
        <time>2018-02-10T13:14:54Z</time>
      </trkpt>
      <trkpt lat="45.62221" lon="6.65874">
        <ele>2336</ele>
        <time>2018-02-10T13:15:06Z</time>
      </trkpt>
      <trkpt lat="45.62221" lon="6.65889">
        <ele>2336</ele>
        <time>2018-02-10T13:15:21Z</time>
      </trkpt>
      <trkpt lat="45.62218" lon="6.65895">
        <ele>2336</ele>
        <time>2018-02-10T13:15:34Z</time>
      </trkpt>
      <trkpt lat="45.62218" lon="6.65897">
        <ele>2337</ele>
        <time>2018-02-10T13:15:47Z</time>
      </trkpt>
      <trkpt lat="45.62215" lon="6.65904">
        <ele>2337</ele>
        <time>2018-02-10T13:15:56Z</time>
      </trkpt>
      <trkpt lat="45.62215" lon="6.65905">
        <ele>2337</ele>
        <time>2018-02-10T13:15:57Z</time>
      </trkpt>
      <trkpt lat="45.62208" lon="6.65914">
        <ele>2337</ele>
        <time>2018-02-10T13:16:10Z</time>
      </trkpt>
      <trkpt lat="45.62201" lon="6.65923">
        <ele>2349</ele>
        <time>2018-02-10T13:16:24Z</time>
      </trkpt>
      <trkpt lat="45.62192" lon="6.65925">
        <ele>2348</ele>
        <time>2018-02-10T13:16:36Z</time>
      </trkpt>
      <trkpt lat="45.62184" lon="6.65925">
        <ele>2348</ele>
        <time>2018-02-10T13:16:49Z</time>
      </trkpt>
      <trkpt lat="45.62181" lon="6.65926">
        <ele>2348</ele>
        <time>2018-02-10T13:17:00Z</time>
      </trkpt>
      <trkpt lat="45.62177" lon="6.65925">
        <ele>2347</ele>
        <time>2018-02-10T13:17:13Z</time>
      </trkpt>
      <trkpt lat="45.62171" lon="6.65928">
        <ele>2346</ele>
        <time>2018-02-10T13:17:25Z</time>
      </trkpt>
      <trkpt lat="45.62164" lon="6.6593">
        <ele>2348</ele>
        <time>2018-02-10T13:17:37Z</time>
      </trkpt>
      <trkpt lat="45.62154" lon="6.65932">
        <ele>2350</ele>
        <time>2018-02-10T13:17:49Z</time>
      </trkpt>
      <trkpt lat="45.6215" lon="6.65935">
        <ele>2351</ele>
        <time>2018-02-10T13:18:01Z</time>
      </trkpt>
      <trkpt lat="45.62145" lon="6.65938">
        <ele>2352</ele>
        <time>2018-02-10T13:18:11Z</time>
      </trkpt>
      <trkpt lat="45.6214" lon="6.65939">
        <ele>2353</ele>
        <time>2018-02-10T13:18:19Z</time>
      </trkpt>
      <trkpt lat="45.62135" lon="6.65943">
        <ele>2353</ele>
        <time>2018-02-10T13:18:31Z</time>
      </trkpt>
      <trkpt lat="45.62125" lon="6.65945">
        <ele>2353</ele>
        <time>2018-02-10T13:18:45Z</time>
      </trkpt>
      <trkpt lat="45.62118" lon="6.65945">
        <ele>2353</ele>
        <time>2018-02-10T13:18:56Z</time>
      </trkpt>
      <trkpt lat="45.62115" lon="6.65946">
        <ele>2353</ele>
        <time>2018-02-10T13:19:06Z</time>
      </trkpt>
      <trkpt lat="45.6211" lon="6.65949">
        <ele>2354</ele>
        <time>2018-02-10T13:19:17Z</time>
      </trkpt>
      <trkpt lat="45.62106" lon="6.65951">
        <ele>2354</ele>
        <time>2018-02-10T13:19:27Z</time>
      </trkpt>
      <trkpt lat="45.62108" lon="6.65957">
        <ele>2355</ele>
        <time>2018-02-10T13:19:43Z</time>
      </trkpt>
      <trkpt lat="45.62105" lon="6.65957">
        <ele>2355</ele>
        <time>2018-02-10T13:19:55Z</time>
      </trkpt>
      <trkpt lat="45.62105" lon="6.65957">
        <ele>2355</ele>
        <time>2018-02-10T13:20:06Z</time>
      </trkpt>
      <trkpt lat="45.62104" lon="6.65959">
        <ele>2356</ele>
        <time>2018-02-10T13:20:19Z</time>
      </trkpt>
      <trkpt lat="45.62106" lon="6.6596">
        <ele>2356</ele>
        <time>2018-02-10T13:20:37Z</time>
      </trkpt>
      <trkpt lat="45.62103" lon="6.65959">
        <ele>2356</ele>
        <time>2018-02-10T13:20:47Z</time>
      </trkpt>
      <trkpt lat="45.62098" lon="6.65958">
        <ele>2355</ele>
        <time>2018-02-10T13:20:57Z</time>
      </trkpt>
      <trkpt lat="45.6209" lon="6.6596">
        <ele>2356</ele>
        <time>2018-02-10T13:21:09Z</time>
      </trkpt>
      <trkpt lat="45.62085" lon="6.65959">
        <ele>2356</ele>
        <time>2018-02-10T13:21:20Z</time>
      </trkpt>
      <trkpt lat="45.6208" lon="6.65963">
        <ele>2352</ele>
        <time>2018-02-10T13:21:30Z</time>
      </trkpt>
      <trkpt lat="45.62073" lon="6.65967">
        <ele>2353</ele>
        <time>2018-02-10T13:21:44Z</time>
      </trkpt>
      <trkpt lat="45.62066" lon="6.65969">
        <ele>2353</ele>
        <time>2018-02-10T13:21:54Z</time>
      </trkpt>
      <trkpt lat="45.62062" lon="6.65971">
        <ele>2353</ele>
        <time>2018-02-10T13:22:03Z</time>
      </trkpt>
      <trkpt lat="45.62056" lon="6.65971">
        <ele>2352</ele>
        <time>2018-02-10T13:22:12Z</time>
      </trkpt>
      <trkpt lat="45.62053" lon="6.65974">
        <ele>2352</ele>
        <time>2018-02-10T13:22:22Z</time>
      </trkpt>
      <trkpt lat="45.62051" lon="6.65976">
        <ele>2353</ele>
        <time>2018-02-10T13:22:32Z</time>
      </trkpt>
      <trkpt lat="45.6205" lon="6.65974">
        <ele>2352</ele>
        <time>2018-02-10T13:22:53Z</time>
      </trkpt>
      <trkpt lat="45.62045" lon="6.65978">
        <ele>2352</ele>
        <time>2018-02-10T13:23:03Z</time>
      </trkpt>
      <trkpt lat="45.6204" lon="6.65979">
        <ele>2352</ele>
        <time>2018-02-10T13:23:13Z</time>
      </trkpt>
      <trkpt lat="45.62034" lon="6.65984">
        <ele>2353</ele>
        <time>2018-02-10T13:23:24Z</time>
      </trkpt>
      <trkpt lat="45.62027" lon="6.65989">
        <ele>2353</ele>
        <time>2018-02-10T13:23:36Z</time>
      </trkpt>
      <trkpt lat="45.62022" lon="6.65991">
        <ele>2354</ele>
        <time>2018-02-10T13:23:45Z</time>
      </trkpt>
      <trkpt lat="45.62015" lon="6.65998">
        <ele>2356</ele>
        <time>2018-02-10T13:23:56Z</time>
      </trkpt>
      <trkpt lat="45.62008" lon="6.66002">
        <ele>2368</ele>
        <time>2018-02-10T13:24:10Z</time>
      </trkpt>
      <trkpt lat="45.62006" lon="6.66005">
        <ele>2368</ele>
        <time>2018-02-10T13:24:21Z</time>
      </trkpt>
      <trkpt lat="45.62004" lon="6.6601">
        <ele>2370</ele>
        <time>2018-02-10T13:24:32Z</time>
      </trkpt>
      <trkpt lat="45.62001" lon="6.6601">
        <ele>2369</ele>
        <time>2018-02-10T13:24:45Z</time>
      </trkpt>
      <trkpt lat="45.61994" lon="6.66014">
        <ele>2365</ele>
        <time>2018-02-10T13:24:58Z</time>
      </trkpt>
      <trkpt lat="45.61991" lon="6.66017">
        <ele>2365</ele>
        <time>2018-02-10T13:25:07Z</time>
      </trkpt>
      <trkpt lat="45.61989" lon="6.66015">
        <ele>2365</ele>
        <time>2018-02-10T13:25:30Z</time>
      </trkpt>
      <trkpt lat="45.61989" lon="6.66016">
        <ele>2365</ele>
        <time>2018-02-10T13:25:40Z</time>
      </trkpt>
      <trkpt lat="45.61984" lon="6.66016">
        <ele>2365</ele>
        <time>2018-02-10T13:25:51Z</time>
      </trkpt>
      <trkpt lat="45.61977" lon="6.66015">
        <ele>2365</ele>
        <time>2018-02-10T13:26:02Z</time>
      </trkpt>
      <trkpt lat="45.61975" lon="6.66019">
        <ele>2365</ele>
        <time>2018-02-10T13:26:12Z</time>
      </trkpt>
      <trkpt lat="45.61971" lon="6.66014">
        <ele>2364</ele>
        <time>2018-02-10T13:26:22Z</time>
      </trkpt>
      <trkpt lat="45.61967" lon="6.66018">
        <ele>2364</ele>
        <time>2018-02-10T13:26:30Z</time>
      </trkpt>
      <trkpt lat="45.61962" lon="6.66024">
        <ele>2364</ele>
        <time>2018-02-10T13:26:41Z</time>
      </trkpt>
      <trkpt lat="45.61956" lon="6.66023">
        <ele>2364</ele>
        <time>2018-02-10T13:26:52Z</time>
      </trkpt>
      <trkpt lat="45.61951" lon="6.66028">
        <ele>2363</ele>
        <time>2018-02-10T13:27:03Z</time>
      </trkpt>
      <trkpt lat="45.61945" lon="6.66028">
        <ele>2363</ele>
        <time>2018-02-10T13:27:15Z</time>
      </trkpt>
      <trkpt lat="45.61933" lon="6.66036">
        <ele>2362</ele>
        <time>2018-02-10T13:27:36Z</time>
      </trkpt>
      <trkpt lat="45.61939" lon="6.6605">
        <ele>2365</ele>
        <time>2018-02-10T13:29:49Z</time>
      </trkpt>
      <trkpt lat="45.61954" lon="6.66056">
        <ele>2367</ele>
        <time>2018-02-10T13:30:15Z</time>
      </trkpt>
      <trkpt lat="45.61968" lon="6.66058">
        <ele>2370</ele>
        <time>2018-02-10T13:30:38Z</time>
      </trkpt>
      <trkpt lat="45.61974" lon="6.66059">
        <ele>2372</ele>
        <time>2018-02-10T13:30:49Z</time>
      </trkpt>
      <trkpt lat="45.61981" lon="6.66059">
        <ele>2373</ele>
        <time>2018-02-10T13:31:01Z</time>
      </trkpt>
      <trkpt lat="45.61986" lon="6.66058">
        <ele>2374</ele>
        <time>2018-02-10T13:31:12Z</time>
      </trkpt>
      <trkpt lat="45.61985" lon="6.66057">
        <ele>2374</ele>
        <time>2018-02-10T13:31:19Z</time>
      </trkpt>
      <trkpt lat="45.61984" lon="6.66062">
        <ele>2375</ele>
        <time>2018-02-10T13:31:28Z</time>
      </trkpt>
      <trkpt lat="45.61986" lon="6.66069">
        <ele>2378</ele>
        <time>2018-02-10T13:31:36Z</time>
      </trkpt>
      <trkpt lat="45.61987" lon="6.66075">
        <ele>2380</ele>
        <time>2018-02-10T13:31:45Z</time>
      </trkpt>
      <trkpt lat="45.6199" lon="6.66072">
        <ele>2381</ele>
        <time>2018-02-10T13:31:55Z</time>
      </trkpt>
      <trkpt lat="45.61995" lon="6.66068">
        <ele>2380</ele>
        <time>2018-02-10T13:32:05Z</time>
      </trkpt>
      <trkpt lat="45.61997" lon="6.66065">
        <ele>2379</ele>
        <time>2018-02-10T13:32:15Z</time>
      </trkpt>
      <trkpt lat="45.61996" lon="6.66067">
        <ele>2380</ele>
        <time>2018-02-10T13:32:22Z</time>
      </trkpt>
      <trkpt lat="45.61998" lon="6.66073">
        <ele>2383</ele>
        <time>2018-02-10T13:32:34Z</time>
      </trkpt>
      <trkpt lat="45.62001" lon="6.66076">
        <ele>2391</ele>
        <time>2018-02-10T13:32:41Z</time>
      </trkpt>
      <trkpt lat="45.62004" lon="6.6608">
        <ele>2391</ele>
        <time>2018-02-10T13:32:48Z</time>
      </trkpt>
      <trkpt lat="45.62006" lon="6.66079">
        <ele>2391</ele>
        <time>2018-02-10T13:32:54Z</time>
      </trkpt>
      <trkpt lat="45.62006" lon="6.66075">
        <ele>2390</ele>
        <time>2018-02-10T13:33:04Z</time>
      </trkpt>
      <trkpt lat="45.62007" lon="6.66074">
        <ele>2390</ele>
        <time>2018-02-10T13:33:13Z</time>
      </trkpt>
      <trkpt lat="45.6201" lon="6.66072">
        <ele>2389</ele>
        <time>2018-02-10T13:33:22Z</time>
      </trkpt>
      <trkpt lat="45.62014" lon="6.66069">
        <ele>2388</ele>
        <time>2018-02-10T13:33:32Z</time>
      </trkpt>
      <trkpt lat="45.62015" lon="6.66067">
        <ele>2388</ele>
        <time>2018-02-10T13:33:39Z</time>
      </trkpt>
      <trkpt lat="45.62015" lon="6.6607">
        <ele>2388</ele>
        <time>2018-02-10T13:33:49Z</time>
      </trkpt>
      <trkpt lat="45.62019" lon="6.66077">
        <ele>2389</ele>
        <time>2018-02-10T13:33:57Z</time>
      </trkpt>
      <trkpt lat="45.6202" lon="6.66078">
        <ele>2389</ele>
        <time>2018-02-10T13:33:58Z</time>
      </trkpt>
      <trkpt lat="45.62022" lon="6.66079">
        <ele>2389</ele>
        <time>2018-02-10T13:34:01Z</time>
      </trkpt>
      <trkpt lat="45.6203" lon="6.66077">
        <ele>2389</ele>
        <time>2018-02-10T13:34:13Z</time>
      </trkpt>
      <trkpt lat="45.62038" lon="6.66077">
        <ele>2389</ele>
        <time>2018-02-10T13:34:26Z</time>
      </trkpt>
      <trkpt lat="45.62048" lon="6.66077">
        <ele>2391</ele>
        <time>2018-02-10T13:34:40Z</time>
      </trkpt>
      <trkpt lat="45.62049" lon="6.66078">
        <ele>2391</ele>
        <time>2018-02-10T13:34:41Z</time>
      </trkpt>
      <trkpt lat="45.62061" lon="6.66082">
        <ele>2395</ele>
        <time>2018-02-10T13:34:52Z</time>
      </trkpt>
      <trkpt lat="45.62071" lon="6.66085">
        <ele>2401</ele>
        <time>2018-02-10T13:35:04Z</time>
      </trkpt>
      <trkpt lat="45.62078" lon="6.66086">
        <ele>2405</ele>
        <time>2018-02-10T13:35:16Z</time>
      </trkpt>
      <trkpt lat="45.62085" lon="6.66089">
        <ele>2409</ele>
        <time>2018-02-10T13:35:30Z</time>
      </trkpt>
      <trkpt lat="45.62092" lon="6.66092">
        <ele>2408</ele>
        <time>2018-02-10T13:35:41Z</time>
      </trkpt>
      <trkpt lat="45.62097" lon="6.66096">
        <ele>2408</ele>
        <time>2018-02-10T13:35:53Z</time>
      </trkpt>
      <trkpt lat="45.62098" lon="6.66092">
        <ele>2408</ele>
        <time>2018-02-10T13:36:01Z</time>
      </trkpt>
      <trkpt lat="45.62103" lon="6.66085">
        <ele>2408</ele>
        <time>2018-02-10T13:36:14Z</time>
      </trkpt>
      <trkpt lat="45.62111" lon="6.66085">
        <ele>2408</ele>
        <time>2018-02-10T13:36:25Z</time>
      </trkpt>
      <trkpt lat="45.62116" lon="6.66095">
        <ele>2408</ele>
        <time>2018-02-10T13:36:40Z</time>
      </trkpt>
      <trkpt lat="45.62122" lon="6.66103">
        <ele>2409</ele>
        <time>2018-02-10T13:36:52Z</time>
      </trkpt>
      <trkpt lat="45.62127" lon="6.66107">
        <ele>2409</ele>
        <time>2018-02-10T13:37:04Z</time>
      </trkpt>
      <trkpt lat="45.62131" lon="6.66101">
        <ele>2409</ele>
        <time>2018-02-10T13:37:14Z</time>
      </trkpt>
      <trkpt lat="45.62135" lon="6.66097">
        <ele>2409</ele>
        <time>2018-02-10T13:37:28Z</time>
      </trkpt>
      <trkpt lat="45.62141" lon="6.661">
        <ele>2410</ele>
        <time>2018-02-10T13:37:40Z</time>
      </trkpt>
      <trkpt lat="45.62146" lon="6.66102">
        <ele>2410</ele>
        <time>2018-02-10T13:37:50Z</time>
      </trkpt>
      <trkpt lat="45.6215" lon="6.66103">
        <ele>2410</ele>
        <time>2018-02-10T13:38:00Z</time>
      </trkpt>
      <trkpt lat="45.62154" lon="6.66106">
        <ele>2410</ele>
        <time>2018-02-10T13:38:09Z</time>
      </trkpt>
      <trkpt lat="45.62158" lon="6.66109">
        <ele>2410</ele>
        <time>2018-02-10T13:38:20Z</time>
      </trkpt>
      <trkpt lat="45.6216" lon="6.66113">
        <ele>2411</ele>
        <time>2018-02-10T13:39:30Z</time>
      </trkpt>
      <trkpt lat="45.6217" lon="6.6611">
        <ele>2407</ele>
        <time>2018-02-10T13:40:42Z</time>
      </trkpt>
      <trkpt lat="45.6217" lon="6.6611">
        <ele>2407</ele>
        <time>2018-02-10T13:41:00Z</time>
      </trkpt>
      <trkpt lat="45.6217" lon="6.6611">
        <ele>2407</ele>
        <time>2018-02-10T13:41:26Z</time>
      </trkpt>
      <trkpt lat="45.6217" lon="6.66109">
        <ele>2407</ele>
        <time>2018-02-10T13:41:44Z</time>
      </trkpt>
      <trkpt lat="45.6217" lon="6.66109">
        <ele>2407</ele>
        <time>2018-02-10T13:42:14Z</time>
      </trkpt>
      <trkpt lat="45.6217" lon="6.66108">
        <ele>2407</ele>
        <time>2018-02-10T13:42:32Z</time>
      </trkpt>
      <trkpt lat="45.62171" lon="6.66107">
        <ele>2407</ele>
        <time>2018-02-10T13:42:45Z</time>
      </trkpt>
      <trkpt lat="45.62171" lon="6.66106">
        <ele>2407</ele>
        <time>2018-02-10T13:42:56Z</time>
      </trkpt>
      <trkpt lat="45.6217" lon="6.66107">
        <ele>2407</ele>
        <time>2018-02-10T13:43:08Z</time>
      </trkpt>
      <trkpt lat="45.62168" lon="6.66106">
        <ele>2407</ele>
        <time>2018-02-10T13:43:36Z</time>
      </trkpt>
      <trkpt lat="45.62169" lon="6.66108">
        <ele>2407</ele>
        <time>2018-02-10T13:43:50Z</time>
      </trkpt>
      <trkpt lat="45.6217" lon="6.66108">
        <ele>2407</ele>
        <time>2018-02-10T13:44:13Z</time>
      </trkpt>
      <trkpt lat="45.62171" lon="6.6611">
        <ele>2407</ele>
        <time>2018-02-10T13:44:28Z</time>
      </trkpt>
      <trkpt lat="45.6217" lon="6.66109">
        <ele>2407</ele>
        <time>2018-02-10T13:44:51Z</time>
      </trkpt>
      <trkpt lat="45.62173" lon="6.66108">
        <ele>2406</ele>
        <time>2018-02-10T13:45:17Z</time>
      </trkpt>
      <trkpt lat="45.62173" lon="6.66108">
        <ele>2406</ele>
        <time>2018-02-10T13:45:37Z</time>
      </trkpt>
      <trkpt lat="45.62171" lon="6.66106">
        <ele>2407</ele>
        <time>2018-02-10T13:47:01Z</time>
      </trkpt>
      <trkpt lat="45.62174" lon="6.66108">
        <ele>2406</ele>
        <time>2018-02-10T13:48:19Z</time>
      </trkpt>
      <trkpt lat="45.62174" lon="6.66107">
        <ele>2406</ele>
        <time>2018-02-10T13:49:07Z</time>
      </trkpt>
      <trkpt lat="45.62173" lon="6.66107">
        <ele>2406</ele>
        <time>2018-02-10T13:49:49Z</time>
      </trkpt>
      <trkpt lat="45.62172" lon="6.66106">
        <ele>2406</ele>
        <time>2018-02-10T13:50:24Z</time>
      </trkpt>
      <trkpt lat="45.62172" lon="6.66106">
        <ele>2407</ele>
        <time>2018-02-10T13:51:00Z</time>
      </trkpt>
      <trkpt lat="45.62172" lon="6.66105">
        <ele>2407</ele>
        <time>2018-02-10T13:52:24Z</time>
      </trkpt>
      <trkpt lat="45.62174" lon="6.66104">
        <ele>2406</ele>
        <time>2018-02-10T13:53:07Z</time>
      </trkpt>
      <trkpt lat="45.62174" lon="6.66103">
        <ele>2406</ele>
        <time>2018-02-10T13:53:41Z</time>
      </trkpt>
      <trkpt lat="45.62174" lon="6.66104">
        <ele>2406</ele>
        <time>2018-02-10T13:54:23Z</time>
      </trkpt>
      <trkpt lat="45.62175" lon="6.66104">
        <ele>2406</ele>
        <time>2018-02-10T13:55:01Z</time>
      </trkpt>
      <trkpt lat="45.62175" lon="6.66103">
        <ele>2406</ele>
        <time>2018-02-10T13:55:38Z</time>
      </trkpt>
      <trkpt lat="45.62175" lon="6.66104">
        <ele>2406</ele>
        <time>2018-02-10T13:56:11Z</time>
      </trkpt>
      <trkpt lat="45.62175" lon="6.66105">
        <ele>2406</ele>
        <time>2018-02-10T13:56:55Z</time>
      </trkpt>
      <trkpt lat="45.62173" lon="6.66105">
        <ele>2406</ele>
        <time>2018-02-10T13:57:30Z</time>
      </trkpt>
      <trkpt lat="45.62175" lon="6.66105">
        <ele>2406</ele>
        <time>2018-02-10T13:58:10Z</time>
      </trkpt>
      <trkpt lat="45.62175" lon="6.66105">
        <ele>2406</ele>
        <time>2018-02-10T13:58:56Z</time>
      </trkpt>
      <trkpt lat="45.62176" lon="6.66106">
        <ele>2406</ele>
        <time>2018-02-10T13:59:33Z</time>
      </trkpt>
      <trkpt lat="45.62174" lon="6.66104">
        <ele>2406</ele>
        <time>2018-02-10T13:59:54Z</time>
      </trkpt>
      <trkpt lat="45.62174" lon="6.66108">
        <ele>2406</ele>
        <time>2018-02-10T14:00:18Z</time>
      </trkpt>
      <trkpt lat="45.62174" lon="6.66108">
        <ele>2406</ele>
        <time>2018-02-10T14:00:30Z</time>
      </trkpt>
      <trkpt lat="45.62175" lon="6.66105">
        <ele>2406</ele>
        <time>2018-02-10T14:03:52Z</time>
      </trkpt>
      <trkpt lat="45.62175" lon="6.66104">
        <ele>2406</ele>
        <time>2018-02-10T14:04:14Z</time>
      </trkpt>
      <trkpt lat="45.62172" lon="6.66105">
        <ele>2407</ele>
        <time>2018-02-10T14:04:38Z</time>
      </trkpt>
      <trkpt lat="45.62171" lon="6.66105">
        <ele>2407</ele>
        <time>2018-02-10T14:04:51Z</time>
      </trkpt>
      <trkpt lat="45.62151" lon="6.66101">
        <ele>2410</ele>
        <time>2018-02-10T14:07:54Z</time>
      </trkpt>
      <trkpt lat="45.62142" lon="6.66097">
        <ele>2410</ele>
        <time>2018-02-10T14:07:57Z</time>
      </trkpt>
      <trkpt lat="45.62131" lon="6.66098">
        <ele>2409</ele>
        <time>2018-02-10T14:08:01Z</time>
      </trkpt>
      <trkpt lat="45.62127" lon="6.66094">
        <ele>2409</ele>
        <time>2018-02-10T14:08:03Z</time>
      </trkpt>
      <trkpt lat="45.62125" lon="6.66092">
        <ele>2409</ele>
        <time>2018-02-10T14:08:04Z</time>
      </trkpt>
      <trkpt lat="45.6212" lon="6.66092">
        <ele>2409</ele>
        <time>2018-02-10T14:08:08Z</time>
      </trkpt>
      <trkpt lat="45.62119" lon="6.66091">
        <ele>2409</ele>
        <time>2018-02-10T14:08:20Z</time>
      </trkpt>
      <trkpt lat="45.62119" lon="6.66091">
        <ele>2409</ele>
        <time>2018-02-10T14:08:21Z</time>
      </trkpt>
      <trkpt lat="45.62117" lon="6.66095">
        <ele>2408</ele>
        <time>2018-02-10T14:08:29Z</time>
      </trkpt>
      <trkpt lat="45.62118" lon="6.66095">
        <ele>2409</ele>
        <time>2018-02-10T14:08:45Z</time>
      </trkpt>
      <trkpt lat="45.62111" lon="6.66087">
        <ele>2408</ele>
        <time>2018-02-10T14:08:49Z</time>
      </trkpt>
      <trkpt lat="45.62096" lon="6.66088">
        <ele>2408</ele>
        <time>2018-02-10T14:08:53Z</time>
      </trkpt>
      <trkpt lat="45.62092" lon="6.66085">
        <ele>2408</ele>
        <time>2018-02-10T14:08:54Z</time>
      </trkpt>
      <trkpt lat="45.62069" lon="6.66077">
        <ele>2397</ele>
        <time>2018-02-10T14:08:59Z</time>
      </trkpt>
      <trkpt lat="45.62054" lon="6.66076">
        <ele>2392</ele>
        <time>2018-02-10T14:09:03Z</time>
      </trkpt>
      <trkpt lat="45.62051" lon="6.66075">
        <ele>2391</ele>
        <time>2018-02-10T14:09:06Z</time>
      </trkpt>
      <trkpt lat="45.62034" lon="6.66071">
        <ele>2388</ele>
        <time>2018-02-10T14:09:13Z</time>
      </trkpt>
      <trkpt lat="45.62032" lon="6.66069">
        <ele>2388</ele>
        <time>2018-02-10T14:09:20Z</time>
      </trkpt>
      <trkpt lat="45.62033" lon="6.66069">
        <ele>2388</ele>
        <time>2018-02-10T14:09:34Z</time>
      </trkpt>
      <trkpt lat="45.62034" lon="6.66069">
        <ele>2388</ele>
        <time>2018-02-10T14:10:00Z</time>
      </trkpt>
      <trkpt lat="45.62034" lon="6.66069">
        <ele>2388</ele>
        <time>2018-02-10T14:10:16Z</time>
      </trkpt>
      <trkpt lat="45.62033" lon="6.6607">
        <ele>2388</ele>
        <time>2018-02-10T14:10:32Z</time>
      </trkpt>
      <trkpt lat="45.62033" lon="6.66071">
        <ele>2388</ele>
        <time>2018-02-10T14:10:45Z</time>
      </trkpt>
      <trkpt lat="45.62033" lon="6.66072">
        <ele>2388</ele>
        <time>2018-02-10T14:10:58Z</time>
      </trkpt>
      <trkpt lat="45.62029" lon="6.6607">
        <ele>2388</ele>
        <time>2018-02-10T14:11:08Z</time>
      </trkpt>
      <trkpt lat="45.62022" lon="6.66069">
        <ele>2388</ele>
        <time>2018-02-10T14:11:15Z</time>
      </trkpt>
      <trkpt lat="45.62022" lon="6.66069">
        <ele>2388</ele>
        <time>2018-02-10T14:11:29Z</time>
      </trkpt>
      <trkpt lat="45.62021" lon="6.66069">
        <ele>2388</ele>
        <time>2018-02-10T14:11:51Z</time>
      </trkpt>
      <trkpt lat="45.6202" lon="6.66069">
        <ele>2388</ele>
        <time>2018-02-10T14:12:05Z</time>
      </trkpt>
      <trkpt lat="45.6202" lon="6.6607">
        <ele>2388</ele>
        <time>2018-02-10T14:12:22Z</time>
      </trkpt>
      <trkpt lat="45.62019" lon="6.66071">
        <ele>2388</ele>
        <time>2018-02-10T14:12:24Z</time>
      </trkpt>
      <trkpt lat="45.62013" lon="6.66074">
        <ele>2389</ele>
        <time>2018-02-10T14:12:31Z</time>
      </trkpt>
      <trkpt lat="45.62008" lon="6.66071">
        <ele>2389</ele>
        <time>2018-02-10T14:12:36Z</time>
      </trkpt>
      <trkpt lat="45.62001" lon="6.66067">
        <ele>2388</ele>
        <time>2018-02-10T14:12:40Z</time>
      </trkpt>
      <trkpt lat="45.61997" lon="6.66067">
        <ele>2380</ele>
        <time>2018-02-10T14:12:43Z</time>
      </trkpt>
      <trkpt lat="45.61987" lon="6.66059">
        <ele>2374</ele>
        <time>2018-02-10T14:12:48Z</time>
      </trkpt>
      <trkpt lat="45.61974" lon="6.66056">
        <ele>2371</ele>
        <time>2018-02-10T14:12:52Z</time>
      </trkpt>
      <trkpt lat="45.61966" lon="6.66054">
        <ele>2369</ele>
        <time>2018-02-10T14:12:54Z</time>
      </trkpt>
      <trkpt lat="45.61952" lon="6.66047">
        <ele>2366</ele>
        <time>2018-02-10T14:12:58Z</time>
      </trkpt>
      <trkpt lat="45.61924" lon="6.66038">
        <ele>2362</ele>
        <time>2018-02-10T14:13:05Z</time>
      </trkpt>
      <trkpt lat="45.61912" lon="6.66037">
        <ele>2352</ele>
        <time>2018-02-10T14:13:08Z</time>
      </trkpt>
      <trkpt lat="45.61882" lon="6.66034">
        <ele>2351</ele>
        <time>2018-02-10T14:13:13Z</time>
      </trkpt>
      <trkpt lat="45.61854" lon="6.66045">
        <ele>2350</ele>
        <time>2018-02-10T14:13:20Z</time>
      </trkpt>
      <trkpt lat="45.61848" lon="6.6605">
        <ele>2350</ele>
        <time>2018-02-10T14:13:28Z</time>
      </trkpt>
      <trkpt lat="45.61842" lon="6.66055">
        <ele>2350</ele>
        <time>2018-02-10T14:13:38Z</time>
      </trkpt>
      <trkpt lat="45.61839" lon="6.66056">
        <ele>2351</ele>
        <time>2018-02-10T14:13:43Z</time>
      </trkpt>
      <trkpt lat="45.61835" lon="6.66059">
        <ele>2351</ele>
        <time>2018-02-10T14:13:52Z</time>
      </trkpt>
      <trkpt lat="45.61828" lon="6.66061">
        <ele>2348</ele>
        <time>2018-02-10T14:14:03Z</time>
      </trkpt>
      <trkpt lat="45.61823" lon="6.66063">
        <ele>2348</ele>
        <time>2018-02-10T14:14:13Z</time>
      </trkpt>
      <trkpt lat="45.6182" lon="6.66064">
        <ele>2348</ele>
        <time>2018-02-10T14:14:21Z</time>
      </trkpt>
      <trkpt lat="45.61815" lon="6.66065">
        <ele>2347</ele>
        <time>2018-02-10T14:14:31Z</time>
      </trkpt>
      <trkpt lat="45.61807" lon="6.66069">
        <ele>2347</ele>
        <time>2018-02-10T14:15:35Z</time>
      </trkpt>
      <trkpt lat="45.61795" lon="6.66068">
        <ele>2347</ele>
        <time>2018-02-10T14:15:39Z</time>
      </trkpt>
      <trkpt lat="45.61779" lon="6.66066">
        <ele>2347</ele>
        <time>2018-02-10T14:15:43Z</time>
      </trkpt>
      <trkpt lat="45.61749" lon="6.66057">
        <ele>2341</ele>
        <time>2018-02-10T14:15:49Z</time>
      </trkpt>
      <trkpt lat="45.6174" lon="6.66053">
        <ele>2339</ele>
        <time>2018-02-10T14:15:51Z</time>
      </trkpt>
      <trkpt lat="45.61735" lon="6.66051">
        <ele>2338</ele>
        <time>2018-02-10T14:15:52Z</time>
      </trkpt>
      <trkpt lat="45.61711" lon="6.66044">
        <ele>2335</ele>
        <time>2018-02-10T14:15:57Z</time>
      </trkpt>
      <trkpt lat="45.61693" lon="6.66044">
        <ele>2333</ele>
        <time>2018-02-10T14:16:02Z</time>
      </trkpt>
      <trkpt lat="45.61688" lon="6.66038">
        <ele>2332</ele>
        <time>2018-02-10T14:16:04Z</time>
      </trkpt>
      <trkpt lat="45.61674" lon="6.66038">
        <ele>2331</ele>
        <time>2018-02-10T14:16:09Z</time>
      </trkpt>
      <trkpt lat="45.61672" lon="6.66036">
        <ele>2331</ele>
        <time>2018-02-10T14:16:10Z</time>
      </trkpt>
      <trkpt lat="45.61668" lon="6.66036">
        <ele>2330</ele>
        <time>2018-02-10T14:16:13Z</time>
      </trkpt>
      <trkpt lat="45.61667" lon="6.66036">
        <ele>2330</ele>
        <time>2018-02-10T14:16:14Z</time>
      </trkpt>
      <trkpt lat="45.61654" lon="6.66036">
        <ele>2319</ele>
        <time>2018-02-10T14:16:20Z</time>
      </trkpt>
      <trkpt lat="45.61645" lon="6.66043">
        <ele>2318</ele>
        <time>2018-02-10T14:16:23Z</time>
      </trkpt>
      <trkpt lat="45.61639" lon="6.66041">
        <ele>2317</ele>
        <time>2018-02-10T14:16:25Z</time>
      </trkpt>
      <trkpt lat="45.61627" lon="6.66039">
        <ele>2316</ele>
        <time>2018-02-10T14:16:29Z</time>
      </trkpt>
      <trkpt lat="45.61621" lon="6.66041">
        <ele>2315</ele>
        <time>2018-02-10T14:16:31Z</time>
      </trkpt>
      <trkpt lat="45.61618" lon="6.66039">
        <ele>2315</ele>
        <time>2018-02-10T14:16:32Z</time>
      </trkpt>
      <trkpt lat="45.61607" lon="6.6604">
        <ele>2314</ele>
        <time>2018-02-10T14:16:36Z</time>
      </trkpt>
      <trkpt lat="45.61599" lon="6.66041">
        <ele>2313</ele>
        <time>2018-02-10T14:16:39Z</time>
      </trkpt>
      <trkpt lat="45.61597" lon="6.66037">
        <ele>2313</ele>
        <time>2018-02-10T14:16:40Z</time>
      </trkpt>
      <trkpt lat="45.61584" lon="6.66031">
        <ele>2312</ele>
        <time>2018-02-10T14:16:44Z</time>
      </trkpt>
      <trkpt lat="45.61573" lon="6.66034">
        <ele>2295</ele>
        <time>2018-02-10T14:16:47Z</time>
      </trkpt>
      <trkpt lat="45.61566" lon="6.66025">
        <ele>2295</ele>
        <time>2018-02-10T14:16:49Z</time>
      </trkpt>
      <trkpt lat="45.61548" lon="6.66027">
        <ele>2292</ele>
        <time>2018-02-10T14:16:52Z</time>
      </trkpt>
      <trkpt lat="45.61544" lon="6.66024">
        <ele>2291</ele>
        <time>2018-02-10T14:16:53Z</time>
      </trkpt>
      <trkpt lat="45.61524" lon="6.66015">
        <ele>2285</ele>
        <time>2018-02-10T14:16:57Z</time>
      </trkpt>
      <trkpt lat="45.61514" lon="6.66021">
        <ele>2284</ele>
        <time>2018-02-10T14:16:59Z</time>
      </trkpt>
      <trkpt lat="45.61499" lon="6.66015">
        <ele>2269</ele>
        <time>2018-02-10T14:17:03Z</time>
      </trkpt>
      <trkpt lat="45.61499" lon="6.66012">
        <ele>2269</ele>
        <time>2018-02-10T14:17:04Z</time>
      </trkpt>
      <trkpt lat="45.615" lon="6.66016">
        <ele>2269</ele>
        <time>2018-02-10T14:17:19Z</time>
      </trkpt>
      <trkpt lat="45.61499" lon="6.66015">
        <ele>2269</ele>
        <time>2018-02-10T14:17:24Z</time>
      </trkpt>
      <trkpt lat="45.61496" lon="6.6601">
        <ele>2270</ele>
        <time>2018-02-10T14:17:33Z</time>
      </trkpt>
      <trkpt lat="45.61495" lon="6.66009">
        <ele>2270</ele>
        <time>2018-02-10T14:17:50Z</time>
      </trkpt>
      <trkpt lat="45.61493" lon="6.66008">
        <ele>2269</ele>
        <time>2018-02-10T14:18:04Z</time>
      </trkpt>
      <trkpt lat="45.61484" lon="6.66009">
        <ele>2268</ele>
        <time>2018-02-10T14:18:11Z</time>
      </trkpt>
      <trkpt lat="45.6148" lon="6.66005">
        <ele>2267</ele>
        <time>2018-02-10T14:18:14Z</time>
      </trkpt>
      <trkpt lat="45.61473" lon="6.66002">
        <ele>2266</ele>
        <time>2018-02-10T14:18:18Z</time>
      </trkpt>
      <trkpt lat="45.61472" lon="6.66002">
        <ele>2265</ele>
        <time>2018-02-10T14:18:19Z</time>
      </trkpt>
      <trkpt lat="45.61461" lon="6.66004">
        <ele>2263</ele>
        <time>2018-02-10T14:18:25Z</time>
      </trkpt>
      <trkpt lat="45.61456" lon="6.66007">
        <ele>2262</ele>
        <time>2018-02-10T14:18:27Z</time>
      </trkpt>
      <trkpt lat="45.61449" lon="6.65999">
        <ele>2256</ele>
        <time>2018-02-10T14:18:31Z</time>
      </trkpt>
      <trkpt lat="45.61443" lon="6.65996">
        <ele>2255</ele>
        <time>2018-02-10T14:18:33Z</time>
      </trkpt>
      <trkpt lat="45.61439" lon="6.65999">
        <ele>2254</ele>
        <time>2018-02-10T14:18:34Z</time>
      </trkpt>
      <trkpt lat="45.61433" lon="6.66003">
        <ele>2257</ele>
        <time>2018-02-10T14:18:36Z</time>
      </trkpt>
      <trkpt lat="45.61417" lon="6.65998">
        <ele>2251</ele>
        <time>2018-02-10T14:18:40Z</time>
      </trkpt>
      <trkpt lat="45.61404" lon="6.65991">
        <ele>2244</ele>
        <time>2018-02-10T14:18:43Z</time>
      </trkpt>
      <trkpt lat="45.6139" lon="6.65987">
        <ele>2240</ele>
        <time>2018-02-10T14:18:46Z</time>
      </trkpt>
      <trkpt lat="45.61375" lon="6.65981">
        <ele>2238</ele>
        <time>2018-02-10T14:18:49Z</time>
      </trkpt>
      <trkpt lat="45.61354" lon="6.65969">
        <ele>2235</ele>
        <time>2018-02-10T14:18:53Z</time>
      </trkpt>
      <trkpt lat="45.61349" lon="6.6597">
        <ele>2235</ele>
        <time>2018-02-10T14:18:54Z</time>
      </trkpt>
      <trkpt lat="45.61326" lon="6.65968">
        <ele>2223</ele>
        <time>2018-02-10T14:19:03Z</time>
      </trkpt>
      <trkpt lat="45.61322" lon="6.65969">
        <ele>2223</ele>
        <time>2018-02-10T14:19:05Z</time>
      </trkpt>
      <trkpt lat="45.61315" lon="6.65967">
        <ele>2222</ele>
        <time>2018-02-10T14:19:09Z</time>
      </trkpt>
      <trkpt lat="45.61315" lon="6.65972">
        <ele>2222</ele>
        <time>2018-02-10T14:19:19Z</time>
      </trkpt>
      <trkpt lat="45.61315" lon="6.65967">
        <ele>2222</ele>
        <time>2018-02-10T14:19:36Z</time>
      </trkpt>
      <trkpt lat="45.61308" lon="6.65955">
        <ele>2220</ele>
        <time>2018-02-10T14:19:40Z</time>
      </trkpt>
      <trkpt lat="45.61307" lon="6.6594">
        <ele>2220</ele>
        <time>2018-02-10T14:19:43Z</time>
      </trkpt>
      <trkpt lat="45.61297" lon="6.65929">
        <ele>2219</ele>
        <time>2018-02-10T14:19:46Z</time>
      </trkpt>
      <trkpt lat="45.61291" lon="6.65912">
        <ele>2210</ele>
        <time>2018-02-10T14:19:49Z</time>
      </trkpt>
      <trkpt lat="45.61282" lon="6.65903">
        <ele>2208</ele>
        <time>2018-02-10T14:19:51Z</time>
      </trkpt>
      <trkpt lat="45.61273" lon="6.65888">
        <ele>2206</ele>
        <time>2018-02-10T14:19:54Z</time>
      </trkpt>
      <trkpt lat="45.61264" lon="6.65882">
        <ele>2205</ele>
        <time>2018-02-10T14:19:56Z</time>
      </trkpt>
      <trkpt lat="45.61264" lon="6.65874">
        <ele>2204</ele>
        <time>2018-02-10T14:20:00Z</time>
      </trkpt>
      <trkpt lat="45.61264" lon="6.65875">
        <ele>2204</ele>
        <time>2018-02-10T14:20:16Z</time>
      </trkpt>
      <trkpt lat="45.61264" lon="6.65874">
        <ele>2204</ele>
        <time>2018-02-10T14:20:27Z</time>
      </trkpt>
      <trkpt lat="45.61263" lon="6.65873">
        <ele>2204</ele>
        <time>2018-02-10T14:20:49Z</time>
      </trkpt>
      <trkpt lat="45.61254" lon="6.65868">
        <ele>2203</ele>
        <time>2018-02-10T14:20:54Z</time>
      </trkpt>
      <trkpt lat="45.61243" lon="6.65861">
        <ele>2190</ele>
        <time>2018-02-10T14:20:58Z</time>
      </trkpt>
      <trkpt lat="45.6124" lon="6.65852">
        <ele>2190</ele>
        <time>2018-02-10T14:21:00Z</time>
      </trkpt>
      <trkpt lat="45.61236" lon="6.65853">
        <ele>2189</ele>
        <time>2018-02-10T14:21:01Z</time>
      </trkpt>
      <trkpt lat="45.61224" lon="6.65848">
        <ele>2188</ele>
        <time>2018-02-10T14:21:05Z</time>
      </trkpt>
      <trkpt lat="45.61219" lon="6.6584">
        <ele>2187</ele>
        <time>2018-02-10T14:21:07Z</time>
      </trkpt>
      <trkpt lat="45.61212" lon="6.65842">
        <ele>2186</ele>
        <time>2018-02-10T14:21:09Z</time>
      </trkpt>
      <trkpt lat="45.61203" lon="6.65837">
        <ele>2184</ele>
        <time>2018-02-10T14:21:11Z</time>
      </trkpt>
      <trkpt lat="45.61201" lon="6.65821">
        <ele>2174</ele>
        <time>2018-02-10T14:21:13Z</time>
      </trkpt>
      <trkpt lat="45.61196" lon="6.65805">
        <ele>2173</ele>
        <time>2018-02-10T14:21:16Z</time>
      </trkpt>
      <trkpt lat="45.61182" lon="6.65806">
        <ele>2172</ele>
        <time>2018-02-10T14:21:19Z</time>
      </trkpt>
      <trkpt lat="45.61178" lon="6.65794">
        <ele>2170</ele>
        <time>2018-02-10T14:21:21Z</time>
      </trkpt>
      <trkpt lat="45.61163" lon="6.65782">
        <ele>2155</ele>
        <time>2018-02-10T14:21:25Z</time>
      </trkpt>
      <trkpt lat="45.61158" lon="6.65777">
        <ele>2155</ele>
        <time>2018-02-10T14:21:26Z</time>
      </trkpt>
      <trkpt lat="45.61151" lon="6.65766">
        <ele>2154</ele>
        <time>2018-02-10T14:21:28Z</time>
      </trkpt>
      <trkpt lat="45.6114" lon="6.65754">
        <ele>2153</ele>
        <time>2018-02-10T14:21:31Z</time>
      </trkpt>
      <trkpt lat="45.61133" lon="6.65749">
        <ele>2146</ele>
        <time>2018-02-10T14:21:33Z</time>
      </trkpt>
      <trkpt lat="45.61123" lon="6.65733">
        <ele>2143</ele>
        <time>2018-02-10T14:21:39Z</time>
      </trkpt>
      <trkpt lat="45.61121" lon="6.65733">
        <ele>2143</ele>
        <time>2018-02-10T14:21:50Z</time>
      </trkpt>
      <trkpt lat="45.61119" lon="6.65734">
        <ele>2143</ele>
        <time>2018-02-10T14:21:52Z</time>
      </trkpt>
      <trkpt lat="45.6111" lon="6.65738">
        <ele>2142</ele>
        <time>2018-02-10T14:21:58Z</time>
      </trkpt>
      <trkpt lat="45.61109" lon="6.65735">
        <ele>2141</ele>
        <time>2018-02-10T14:22:00Z</time>
      </trkpt>
      <trkpt lat="45.61101" lon="6.65739">
        <ele>2140</ele>
        <time>2018-02-10T14:22:05Z</time>
      </trkpt>
      <trkpt lat="45.611" lon="6.65742">
        <ele>2140</ele>
        <time>2018-02-10T14:22:12Z</time>
      </trkpt>
      <trkpt lat="45.611" lon="6.65743">
        <ele>2140</ele>
        <time>2018-02-10T14:22:20Z</time>
      </trkpt>
      <trkpt lat="45.61095" lon="6.65759">
        <ele>2144</ele>
        <time>2018-02-10T14:22:26Z</time>
      </trkpt>
      <trkpt lat="45.61087" lon="6.65772">
        <ele>2145</ele>
        <time>2018-02-10T14:22:31Z</time>
      </trkpt>
      <trkpt lat="45.61087" lon="6.65788">
        <ele>2147</ele>
        <time>2018-02-10T14:22:34Z</time>
      </trkpt>
      <trkpt lat="45.61086" lon="6.65798">
        <ele>2147</ele>
        <time>2018-02-10T14:22:36Z</time>
      </trkpt>
      <trkpt lat="45.6108" lon="6.6581">
        <ele>2130</ele>
        <time>2018-02-10T14:22:38Z</time>
      </trkpt>
      <trkpt lat="45.61058" lon="6.65839">
        <ele>2132</ele>
        <time>2018-02-10T14:22:44Z</time>
      </trkpt>
      <trkpt lat="45.6105" lon="6.65852">
        <ele>2130</ele>
        <time>2018-02-10T14:22:46Z</time>
      </trkpt>
      <trkpt lat="45.61039" lon="6.65864">
        <ele>2128</ele>
        <time>2018-02-10T14:22:48Z</time>
      </trkpt>
      <trkpt lat="45.61016" lon="6.6587">
        <ele>2125</ele>
        <time>2018-02-10T14:22:53Z</time>
      </trkpt>
      <trkpt lat="45.6101" lon="6.65874">
        <ele>2125</ele>
        <time>2018-02-10T14:22:56Z</time>
      </trkpt>
      <trkpt lat="45.6101" lon="6.65874">
        <ele>2124</ele>
        <time>2018-02-10T14:23:08Z</time>
      </trkpt>
      <trkpt lat="45.61008" lon="6.65875">
        <ele>2124</ele>
        <time>2018-02-10T14:23:22Z</time>
      </trkpt>
      <trkpt lat="45.61009" lon="6.65875">
        <ele>2124</ele>
        <time>2018-02-10T14:23:33Z</time>
      </trkpt>
      <trkpt lat="45.61008" lon="6.65875">
        <ele>2124</ele>
        <time>2018-02-10T14:23:45Z</time>
      </trkpt>
      <trkpt lat="45.61009" lon="6.65875">
        <ele>2124</ele>
        <time>2018-02-10T14:24:01Z</time>
      </trkpt>
      <trkpt lat="45.6101" lon="6.65875">
        <ele>2125</ele>
        <time>2018-02-10T14:24:24Z</time>
      </trkpt>
      <trkpt lat="45.61009" lon="6.65876">
        <ele>2125</ele>
        <time>2018-02-10T14:24:40Z</time>
      </trkpt>
      <trkpt lat="45.61009" lon="6.65874">
        <ele>2124</ele>
        <time>2018-02-10T14:24:59Z</time>
      </trkpt>
      <trkpt lat="45.6101" lon="6.65874">
        <ele>2124</ele>
        <time>2018-02-10T14:25:24Z</time>
      </trkpt>
      <trkpt lat="45.6101" lon="6.65873">
        <ele>2124</ele>
        <time>2018-02-10T14:25:48Z</time>
      </trkpt>
      <trkpt lat="45.61009" lon="6.65873">
        <ele>2124</ele>
        <time>2018-02-10T14:26:03Z</time>
      </trkpt>
      <trkpt lat="45.6101" lon="6.65874">
        <ele>2124</ele>
        <time>2018-02-10T14:26:20Z</time>
      </trkpt>
      <trkpt lat="45.61009" lon="6.65875">
        <ele>2124</ele>
        <time>2018-02-10T14:26:31Z</time>
      </trkpt>
      <trkpt lat="45.60999" lon="6.65883">
        <ele>2106</ele>
        <time>2018-02-10T14:26:37Z</time>
      </trkpt>
      <trkpt lat="45.60996" lon="6.65888">
        <ele>2106</ele>
        <time>2018-02-10T14:26:44Z</time>
      </trkpt>
      <trkpt lat="45.60996" lon="6.65888">
        <ele>2107</ele>
        <time>2018-02-10T14:26:46Z</time>
      </trkpt>
      <trkpt lat="45.60986" lon="6.65901">
        <ele>2108</ele>
        <time>2018-02-10T14:26:52Z</time>
      </trkpt>
      <trkpt lat="45.60985" lon="6.65904">
        <ele>2109</ele>
        <time>2018-02-10T14:26:53Z</time>
      </trkpt>
      <trkpt lat="45.60984" lon="6.65914">
        <ele>2110</ele>
        <time>2018-02-10T14:26:58Z</time>
      </trkpt>
      <trkpt lat="45.60985" lon="6.65914">
        <ele>2110</ele>
        <time>2018-02-10T14:27:15Z</time>
      </trkpt>
      <trkpt lat="45.60985" lon="6.65917">
        <ele>2115</ele>
        <time>2018-02-10T14:27:24Z</time>
      </trkpt>
      <trkpt lat="45.60976" lon="6.6592">
        <ele>2112</ele>
        <time>2018-02-10T14:27:30Z</time>
      </trkpt>
      <trkpt lat="45.60971" lon="6.65907">
        <ele>2105</ele>
        <time>2018-02-10T14:27:36Z</time>
      </trkpt>
      <trkpt lat="45.60963" lon="6.65902">
        <ele>2102</ele>
        <time>2018-02-10T14:27:43Z</time>
      </trkpt>
      <trkpt lat="45.60954" lon="6.65914">
        <ele>2101</ele>
        <time>2018-02-10T14:27:47Z</time>
      </trkpt>
      <trkpt lat="45.60941" lon="6.65931">
        <ele>2105</ele>
        <time>2018-02-10T14:27:54Z</time>
      </trkpt>
      <trkpt lat="45.6093" lon="6.65923">
        <ele>2102</ele>
        <time>2018-02-10T14:28:00Z</time>
      </trkpt>
      <trkpt lat="45.60917" lon="6.65922">
        <ele>2098</ele>
        <time>2018-02-10T14:28:05Z</time>
      </trkpt>
      <trkpt lat="45.60907" lon="6.65928">
        <ele>2090</ele>
        <time>2018-02-10T14:28:09Z</time>
      </trkpt>
      <trkpt lat="45.60898" lon="6.65923">
        <ele>2088</ele>
        <time>2018-02-10T14:28:12Z</time>
      </trkpt>
      <trkpt lat="45.6089" lon="6.65928">
        <ele>2086</ele>
        <time>2018-02-10T14:28:15Z</time>
      </trkpt>
      <trkpt lat="45.60885" lon="6.65925">
        <ele>2085</ele>
        <time>2018-02-10T14:28:19Z</time>
      </trkpt>
      <trkpt lat="45.6087" lon="6.65924">
        <ele>2081</ele>
        <time>2018-02-10T14:29:04Z</time>
      </trkpt>
      <trkpt lat="45.60872" lon="6.65927">
        <ele>2081</ele>
        <time>2018-02-10T14:29:14Z</time>
      </trkpt>
      <trkpt lat="45.60859" lon="6.65923">
        <ele>2078</ele>
        <time>2018-02-10T14:29:27Z</time>
      </trkpt>
      <trkpt lat="45.60853" lon="6.65922">
        <ele>2076</ele>
        <time>2018-02-10T14:29:29Z</time>
      </trkpt>
      <trkpt lat="45.60851" lon="6.65921">
        <ele>2075</ele>
        <time>2018-02-10T14:29:31Z</time>
      </trkpt>
      <trkpt lat="45.60852" lon="6.65922">
        <ele>2075</ele>
        <time>2018-02-10T14:29:39Z</time>
      </trkpt>
      <trkpt lat="45.60843" lon="6.65921">
        <ele>2072</ele>
        <time>2018-02-10T14:29:45Z</time>
      </trkpt>
      <trkpt lat="45.60839" lon="6.65919">
        <ele>2070</ele>
        <time>2018-02-10T14:29:47Z</time>
      </trkpt>
      <trkpt lat="45.60834" lon="6.65929">
        <ele>2072</ele>
        <time>2018-02-10T14:29:51Z</time>
      </trkpt>
      <trkpt lat="45.60826" lon="6.65927">
        <ele>2063</ele>
        <time>2018-02-10T14:29:55Z</time>
      </trkpt>
      <trkpt lat="45.60823" lon="6.65928">
        <ele>2063</ele>
        <time>2018-02-10T14:29:56Z</time>
      </trkpt>
      <trkpt lat="45.60818" lon="6.65941">
        <ele>2061</ele>
        <time>2018-02-10T14:30:00Z</time>
      </trkpt>
      <trkpt lat="45.6081" lon="6.65951">
        <ele>2060</ele>
        <time>2018-02-10T14:30:03Z</time>
      </trkpt>
      <trkpt lat="45.60798" lon="6.65953">
        <ele>2059</ele>
        <time>2018-02-10T14:30:06Z</time>
      </trkpt>
      <trkpt lat="45.60778" lon="6.65942">
        <ele>2056</ele>
        <time>2018-02-10T14:30:11Z</time>
      </trkpt>
      <trkpt lat="45.60771" lon="6.65937">
        <ele>2055</ele>
        <time>2018-02-10T14:30:13Z</time>
      </trkpt>
      <trkpt lat="45.60756" lon="6.65944">
        <ele>2054</ele>
        <time>2018-02-10T14:30:17Z</time>
      </trkpt>
      <trkpt lat="45.60746" lon="6.65935">
        <ele>2042</ele>
        <time>2018-02-10T14:30:20Z</time>
      </trkpt>
      <trkpt lat="45.6073" lon="6.65938">
        <ele>2040</ele>
        <time>2018-02-10T14:30:24Z</time>
      </trkpt>
      <trkpt lat="45.60714" lon="6.65944">
        <ele>2038</ele>
        <time>2018-02-10T14:30:28Z</time>
      </trkpt>
      <trkpt lat="45.60708" lon="6.65938">
        <ele>2037</ele>
        <time>2018-02-10T14:30:30Z</time>
      </trkpt>
      <trkpt lat="45.60696" lon="6.65941">
        <ele>2035</ele>
        <time>2018-02-10T14:30:33Z</time>
      </trkpt>
      <trkpt lat="45.60681" lon="6.65941">
        <ele>2033</ele>
        <time>2018-02-10T14:30:38Z</time>
      </trkpt>
      <trkpt lat="45.60677" lon="6.65939">
        <ele>2032</ele>
        <time>2018-02-10T14:30:44Z</time>
      </trkpt>
      <trkpt lat="45.60677" lon="6.65939">
        <ele>2032</ele>
        <time>2018-02-10T14:30:56Z</time>
      </trkpt>
      <trkpt lat="45.60676" lon="6.6594">
        <ele>2032</ele>
        <time>2018-02-10T14:31:01Z</time>
      </trkpt>
      <trkpt lat="45.60667" lon="6.65944">
        <ele>2032</ele>
        <time>2018-02-10T14:31:08Z</time>
      </trkpt>
      <trkpt lat="45.60672" lon="6.65961">
        <ele>2033</ele>
        <time>2018-02-10T14:31:13Z</time>
      </trkpt>
      <trkpt lat="45.60667" lon="6.6598">
        <ele>2032</ele>
        <time>2018-02-10T14:31:18Z</time>
      </trkpt>
      <trkpt lat="45.60652" lon="6.65982">
        <ele>2019</ele>
        <time>2018-02-10T14:31:21Z</time>
      </trkpt>
      <trkpt lat="45.60649" lon="6.65988">
        <ele>2020</ele>
        <time>2018-02-10T14:31:22Z</time>
      </trkpt>
      <trkpt lat="45.60628" lon="6.65998">
        <ele>2015</ele>
        <time>2018-02-10T14:31:27Z</time>
      </trkpt>
      <trkpt lat="45.60619" lon="6.66005">
        <ele>2014</ele>
        <time>2018-02-10T14:31:29Z</time>
      </trkpt>
      <trkpt lat="45.60611" lon="6.66005">
        <ele>2012</ele>
        <time>2018-02-10T14:31:31Z</time>
      </trkpt>
      <trkpt lat="45.606" lon="6.65994">
        <ele>2008</ele>
        <time>2018-02-10T14:31:35Z</time>
      </trkpt>
      <trkpt lat="45.60587" lon="6.65998">
        <ele>2003</ele>
        <time>2018-02-10T14:31:37Z</time>
      </trkpt>
      <trkpt lat="45.60581" lon="6.65994">
        <ele>1998</ele>
        <time>2018-02-10T14:31:38Z</time>
      </trkpt>
      <trkpt lat="45.60562" lon="6.65994">
        <ele>1994</ele>
        <time>2018-02-10T14:31:42Z</time>
      </trkpt>
      <trkpt lat="45.60551" lon="6.65999">
        <ele>1991</ele>
        <time>2018-02-10T14:31:44Z</time>
      </trkpt>
      <trkpt lat="45.60539" lon="6.66005">
        <ele>1989</ele>
        <time>2018-02-10T14:31:46Z</time>
      </trkpt>
      <trkpt lat="45.60527" lon="6.66001">
        <ele>1986</ele>
        <time>2018-02-10T14:31:48Z</time>
      </trkpt>
      <trkpt lat="45.60515" lon="6.66005">
        <ele>1983</ele>
        <time>2018-02-10T14:32:42Z</time>
      </trkpt>
      <trkpt lat="45.60503" lon="6.66013">
        <ele>1981</ele>
        <time>2018-02-10T14:32:45Z</time>
      </trkpt>
      <trkpt lat="45.60497" lon="6.66019">
        <ele>1966</ele>
        <time>2018-02-10T14:32:47Z</time>
      </trkpt>
      <trkpt lat="45.60484" lon="6.66005">
        <ele>1966</ele>
        <time>2018-02-10T14:32:50Z</time>
      </trkpt>
      <trkpt lat="45.60475" lon="6.65982">
        <ele>1960</ele>
        <time>2018-02-10T14:32:53Z</time>
      </trkpt>
      <trkpt lat="45.60473" lon="6.65974">
        <ele>1959</ele>
        <time>2018-02-10T14:32:54Z</time>
      </trkpt>
      <trkpt lat="45.60466" lon="6.6592">
        <ele>1958</ele>
        <time>2018-02-10T14:33:04Z</time>
      </trkpt>
      <trkpt lat="45.60464" lon="6.65876">
        <ele>1953</ele>
        <time>2018-02-10T14:33:14Z</time>
      </trkpt>
      <trkpt lat="45.60465" lon="6.65845">
        <ele>1953</ele>
        <time>2018-02-10T14:33:19Z</time>
      </trkpt>
      <trkpt lat="45.60465" lon="6.65844">
        <ele>1953</ele>
        <time>2018-02-10T14:33:26Z</time>
      </trkpt>
      <trkpt lat="45.60465" lon="6.65843">
        <ele>1953</ele>
        <time>2018-02-10T14:33:43Z</time>
      </trkpt>
      <trkpt lat="45.60466" lon="6.65842">
        <ele>1953</ele>
        <time>2018-02-10T14:33:58Z</time>
      </trkpt>
      <trkpt lat="45.60465" lon="6.65842">
        <ele>1953</ele>
        <time>2018-02-10T14:34:11Z</time>
      </trkpt>
      <trkpt lat="45.6046" lon="6.65833">
        <ele>1951</ele>
        <time>2018-02-10T14:34:19Z</time>
      </trkpt>
      <trkpt lat="45.60453" lon="6.65836">
        <ele>1948</ele>
        <time>2018-02-10T14:34:23Z</time>
      </trkpt>
      <trkpt lat="45.60451" lon="6.65846">
        <ele>1948</ele>
        <time>2018-02-10T14:34:26Z</time>
      </trkpt>
      <trkpt lat="45.6045" lon="6.65849">
        <ele>1947</ele>
        <time>2018-02-10T14:34:27Z</time>
      </trkpt>
      <trkpt lat="45.60446" lon="6.65856">
        <ele>1947</ele>
        <time>2018-02-10T14:34:30Z</time>
      </trkpt>
      <trkpt lat="45.60438" lon="6.65852">
        <ele>1943</ele>
        <time>2018-02-10T14:34:33Z</time>
      </trkpt>
      <trkpt lat="45.60437" lon="6.65845">
        <ele>1942</ele>
        <time>2018-02-10T14:34:36Z</time>
      </trkpt>
      <trkpt lat="45.60428" lon="6.65844">
        <ele>1938</ele>
        <time>2018-02-10T14:34:40Z</time>
      </trkpt>
      <trkpt lat="45.60427" lon="6.65847">
        <ele>1938</ele>
        <time>2018-02-10T14:34:42Z</time>
      </trkpt>
      <trkpt lat="45.60425" lon="6.65851">
        <ele>1939</ele>
        <time>2018-02-10T14:34:47Z</time>
      </trkpt>
      <trkpt lat="45.6042" lon="6.65844">
        <ele>1935</ele>
        <time>2018-02-10T14:34:52Z</time>
      </trkpt>
      <trkpt lat="45.60417" lon="6.65831">
        <ele>1927</ele>
        <time>2018-02-10T14:35:00Z</time>
      </trkpt>
      <trkpt lat="45.60417" lon="6.6583">
        <ele>1928</ele>
        <time>2018-02-10T14:35:01Z</time>
      </trkpt>
      <trkpt lat="45.60412" lon="6.65832">
        <ele>1921</ele>
        <time>2018-02-10T14:35:05Z</time>
      </trkpt>
      <trkpt lat="45.60411" lon="6.65828">
        <ele>1919</ele>
        <time>2018-02-10T14:35:12Z</time>
      </trkpt>
      <trkpt lat="45.60405" lon="6.65837">
        <ele>1918</ele>
        <time>2018-02-10T14:35:17Z</time>
      </trkpt>
      <trkpt lat="45.60403" lon="6.65842">
        <ele>1916</ele>
        <time>2018-02-10T14:35:20Z</time>
      </trkpt>
      <trkpt lat="45.60395" lon="6.65835">
        <ele>1913</ele>
        <time>2018-02-10T14:35:24Z</time>
      </trkpt>
      <trkpt lat="45.60394" lon="6.65833">
        <ele>1909</ele>
        <time>2018-02-10T14:35:25Z</time>
      </trkpt>
      <trkpt lat="45.60392" lon="6.65832">
        <ele>1908</ele>
        <time>2018-02-10T14:35:28Z</time>
      </trkpt>
      <trkpt lat="45.60384" lon="6.6584">
        <ele>1908</ele>
        <time>2018-02-10T14:35:34Z</time>
      </trkpt>
      <trkpt lat="45.60379" lon="6.65845">
        <ele>1907</ele>
        <time>2018-02-10T14:35:49Z</time>
      </trkpt>
      <trkpt lat="45.60381" lon="6.65816">
        <ele>1902</ele>
        <time>2018-02-10T14:35:59Z</time>
      </trkpt>
      <trkpt lat="45.60386" lon="6.65776">
        <ele>1901</ele>
        <time>2018-02-10T14:36:08Z</time>
      </trkpt>
      <trkpt lat="45.6039" lon="6.65755">
        <ele>1903</ele>
        <time>2018-02-10T14:36:12Z</time>
      </trkpt>
      <trkpt lat="45.60393" lon="6.65735">
        <ele>1900</ele>
        <time>2018-02-10T14:36:15Z</time>
      </trkpt>
      <trkpt lat="45.60394" lon="6.65728">
        <ele>1899</ele>
        <time>2018-02-10T14:36:16Z</time>
      </trkpt>
      <trkpt lat="45.6039" lon="6.657">
        <ele>1897</ele>
        <time>2018-02-10T14:36:20Z</time>
      </trkpt>
      <trkpt lat="45.60373" lon="6.65682">
        <ele>1893</ele>
        <time>2018-02-10T14:36:24Z</time>
      </trkpt>
      <trkpt lat="45.60358" lon="6.65677">
        <ele>1888</ele>
        <time>2018-02-10T14:36:27Z</time>
      </trkpt>
      <trkpt lat="45.60348" lon="6.65654">
        <ele>1882</ele>
        <time>2018-02-10T14:36:32Z</time>
      </trkpt>
      <trkpt lat="45.6035" lon="6.65649">
        <ele>1883</ele>
        <time>2018-02-10T14:36:33Z</time>
      </trkpt>
      <trkpt lat="45.60364" lon="6.65618">
        <ele>1885</ele>
        <time>2018-02-10T14:36:40Z</time>
      </trkpt>
      <trkpt lat="45.60376" lon="6.65582">
        <ele>1880</ele>
        <time>2018-02-10T14:36:48Z</time>
      </trkpt>
      <trkpt lat="45.60378" lon="6.65563">
        <ele>1880</ele>
        <time>2018-02-10T14:36:53Z</time>
      </trkpt>
      <trkpt lat="45.60379" lon="6.6556">
        <ele>1880</ele>
        <time>2018-02-10T14:37:02Z</time>
      </trkpt>
      <trkpt lat="45.60379" lon="6.6556">
        <ele>1880</ele>
        <time>2018-02-10T14:37:16Z</time>
      </trkpt>
      <trkpt lat="45.60379" lon="6.6556">
        <ele>1880</ele>
        <time>2018-02-10T14:37:31Z</time>
      </trkpt>
      <trkpt lat="45.6038" lon="6.6556">
        <ele>1880</ele>
        <time>2018-02-10T14:37:47Z</time>
      </trkpt>
      <trkpt lat="45.60378" lon="6.6556">
        <ele>1880</ele>
        <time>2018-02-10T14:38:02Z</time>
      </trkpt>
      <trkpt lat="45.60378" lon="6.65559">
        <ele>1880</ele>
        <time>2018-02-10T14:38:08Z</time>
      </trkpt>
      <trkpt lat="45.60379" lon="6.65552">
        <ele>1879</ele>
        <time>2018-02-10T14:38:19Z</time>
      </trkpt>
      <trkpt lat="45.60379" lon="6.65551">
        <ele>1879</ele>
        <time>2018-02-10T14:38:27Z</time>
      </trkpt>
      <trkpt lat="45.60376" lon="6.65536">
        <ele>1878</ele>
        <time>2018-02-10T14:38:31Z</time>
      </trkpt>
      <trkpt lat="45.60366" lon="6.65536">
        <ele>1876</ele>
        <time>2018-02-10T14:38:34Z</time>
      </trkpt>
      <trkpt lat="45.60357" lon="6.65547">
        <ele>1875</ele>
        <time>2018-02-10T14:38:38Z</time>
      </trkpt>
      <trkpt lat="45.60347" lon="6.65539">
        <ele>1874</ele>
        <time>2018-02-10T14:38:41Z</time>
      </trkpt>
      <trkpt lat="45.60347" lon="6.65526">
        <ele>1872</ele>
        <time>2018-02-10T14:38:44Z</time>
      </trkpt>
      <trkpt lat="45.60335" lon="6.65526">
        <ele>1871</ele>
        <time>2018-02-10T14:38:48Z</time>
      </trkpt>
      <trkpt lat="45.60319" lon="6.65541">
        <ele>1854</ele>
        <time>2018-02-10T14:38:53Z</time>
      </trkpt>
      <trkpt lat="45.60312" lon="6.65552">
        <ele>1854</ele>
        <time>2018-02-10T14:38:55Z</time>
      </trkpt>
      <trkpt lat="45.60304" lon="6.65563">
        <ele>1853</ele>
        <time>2018-02-10T14:38:58Z</time>
      </trkpt>
      <trkpt lat="45.60297" lon="6.65579">
        <ele>1852</ele>
        <time>2018-02-10T14:39:03Z</time>
      </trkpt>
      <trkpt lat="45.60292" lon="6.65579">
        <ele>1850</ele>
        <time>2018-02-10T14:39:08Z</time>
      </trkpt>
      <trkpt lat="45.60293" lon="6.65579">
        <ele>1851</ele>
        <time>2018-02-10T14:39:18Z</time>
      </trkpt>
      <trkpt lat="45.60295" lon="6.6558">
        <ele>1851</ele>
        <time>2018-02-10T14:39:36Z</time>
      </trkpt>
      <trkpt lat="45.60296" lon="6.6558">
        <ele>1851</ele>
        <time>2018-02-10T14:39:52Z</time>
      </trkpt>
      <trkpt lat="45.60295" lon="6.65581">
        <ele>1851</ele>
        <time>2018-02-10T14:40:04Z</time>
      </trkpt>
      <trkpt lat="45.60284" lon="6.65578">
        <ele>1848</ele>
        <time>2018-02-10T14:40:10Z</time>
      </trkpt>
      <trkpt lat="45.60279" lon="6.65583">
        <ele>1847</ele>
        <time>2018-02-10T14:40:13Z</time>
      </trkpt>
      <trkpt lat="45.60272" lon="6.65577">
        <ele>1844</ele>
        <time>2018-02-10T14:40:16Z</time>
      </trkpt>
      <trkpt lat="45.60261" lon="6.65584">
        <ele>1841</ele>
        <time>2018-02-10T14:40:20Z</time>
      </trkpt>
      <trkpt lat="45.60253" lon="6.65601">
        <ele>1843</ele>
        <time>2018-02-10T14:40:23Z</time>
      </trkpt>
      <trkpt lat="45.60251" lon="6.65612">
        <ele>1845</ele>
        <time>2018-02-10T14:40:25Z</time>
      </trkpt>
      <trkpt lat="45.60241" lon="6.65611">
        <ele>1824</ele>
        <time>2018-02-10T14:40:30Z</time>
      </trkpt>
      <trkpt lat="45.60234" lon="6.65623">
        <ele>1822</ele>
        <time>2018-02-10T14:40:34Z</time>
      </trkpt>
      <trkpt lat="45.60232" lon="6.65629">
        <ele>1822</ele>
        <time>2018-02-10T14:40:36Z</time>
      </trkpt>
      <trkpt lat="45.60226" lon="6.65625">
        <ele>1821</ele>
        <time>2018-02-10T14:40:39Z</time>
      </trkpt>
      <trkpt lat="45.60225" lon="6.65622">
        <ele>1821</ele>
        <time>2018-02-10T14:40:40Z</time>
      </trkpt>
      <trkpt lat="45.60219" lon="6.65617">
        <ele>1820</ele>
        <time>2018-02-10T14:40:43Z</time>
      </trkpt>
      <trkpt lat="45.60215" lon="6.65623">
        <ele>1819</ele>
        <time>2018-02-10T14:40:45Z</time>
      </trkpt>
      <trkpt lat="45.60213" lon="6.65631">
        <ele>1818</ele>
        <time>2018-02-10T14:40:48Z</time>
      </trkpt>
      <trkpt lat="45.60203" lon="6.65631">
        <ele>1816</ele>
        <time>2018-02-10T14:40:53Z</time>
      </trkpt>
      <trkpt lat="45.60194" lon="6.65632">
        <ele>1814</ele>
        <time>2018-02-10T14:40:56Z</time>
      </trkpt>
      <trkpt lat="45.60193" lon="6.65637">
        <ele>1814</ele>
        <time>2018-02-10T14:41:00Z</time>
      </trkpt>
      <trkpt lat="45.60184" lon="6.6565">
        <ele>1810</ele>
        <time>2018-02-10T14:41:05Z</time>
      </trkpt>
      <trkpt lat="45.60185" lon="6.65649">
        <ele>1810</ele>
        <time>2018-02-10T14:41:14Z</time>
      </trkpt>
      <trkpt lat="45.60184" lon="6.6565">
        <ele>1810</ele>
        <time>2018-02-10T14:41:29Z</time>
      </trkpt>
      <trkpt lat="45.60183" lon="6.6565">
        <ele>1809</ele>
        <time>2018-02-10T14:41:35Z</time>
      </trkpt>
      <trkpt lat="45.60172" lon="6.65646">
        <ele>1808</ele>
        <time>2018-02-10T14:41:40Z</time>
      </trkpt>
      <trkpt lat="45.60161" lon="6.65656">
        <ele>1797</ele>
        <time>2018-02-10T14:41:43Z</time>
      </trkpt>
      <trkpt lat="45.60159" lon="6.65666">
        <ele>1797</ele>
        <time>2018-02-10T14:41:46Z</time>
      </trkpt>
      <trkpt lat="45.60145" lon="6.65678">
        <ele>1790</ele>
        <time>2018-02-10T14:41:50Z</time>
      </trkpt>
      <trkpt lat="45.60143" lon="6.65689">
        <ele>1789</ele>
        <time>2018-02-10T14:41:53Z</time>
      </trkpt>
      <trkpt lat="45.60128" lon="6.65702">
        <ele>1786</ele>
        <time>2018-02-10T14:41:57Z</time>
      </trkpt>
      <trkpt lat="45.60128" lon="6.65708">
        <ele>1786</ele>
        <time>2018-02-10T14:41:58Z</time>
      </trkpt>
      <trkpt lat="45.60128" lon="6.65725">
        <ele>1785</ele>
        <time>2018-02-10T14:42:02Z</time>
      </trkpt>
      <trkpt lat="45.60114" lon="6.65728">
        <ele>1783</ele>
        <time>2018-02-10T14:42:06Z</time>
      </trkpt>
      <trkpt lat="45.60111" lon="6.65742">
        <ele>1781</ele>
        <time>2018-02-10T14:42:09Z</time>
      </trkpt>
      <trkpt lat="45.60102" lon="6.65745">
        <ele>1778</ele>
        <time>2018-02-10T14:42:16Z</time>
      </trkpt>
      <trkpt lat="45.60099" lon="6.65744">
        <ele>1777</ele>
        <time>2018-02-10T14:42:19Z</time>
      </trkpt>
      <trkpt lat="45.60098" lon="6.65745">
        <ele>1777</ele>
        <time>2018-02-10T14:42:27Z</time>
      </trkpt>
      <trkpt lat="45.60098" lon="6.65743">
        <ele>1777</ele>
        <time>2018-02-10T14:42:40Z</time>
      </trkpt>
      <trkpt lat="45.60095" lon="6.65743">
        <ele>1776</ele>
        <time>2018-02-10T14:42:51Z</time>
      </trkpt>
      <trkpt lat="45.60095" lon="6.65743">
        <ele>1776</ele>
        <time>2018-02-10T14:42:55Z</time>
      </trkpt>
      <trkpt lat="45.60092" lon="6.65753">
        <ele>1771</ele>
        <time>2018-02-10T14:42:59Z</time>
      </trkpt>
      <trkpt lat="45.6009" lon="6.65768">
        <ele>1772</ele>
        <time>2018-02-10T14:43:02Z</time>
      </trkpt>
      <trkpt lat="45.60091" lon="6.65798">
        <ele>1771</ele>
        <time>2018-02-10T14:43:07Z</time>
      </trkpt>
      <trkpt lat="45.60091" lon="6.65822">
        <ele>1766</ele>
        <time>2018-02-10T14:43:11Z</time>
      </trkpt>
      <trkpt lat="45.60091" lon="6.65835">
        <ele>1760</ele>
        <time>2018-02-10T14:43:13Z</time>
      </trkpt>
      <trkpt lat="45.60091" lon="6.65876">
        <ele>1762</ele>
        <time>2018-02-10T14:43:19Z</time>
      </trkpt>
      <trkpt lat="45.60093" lon="6.65894">
        <ele>1759</ele>
        <time>2018-02-10T14:43:22Z</time>
      </trkpt>
      <trkpt lat="45.601" lon="6.65914">
        <ele>1757</ele>
        <time>2018-02-10T14:43:26Z</time>
      </trkpt>
      <trkpt lat="45.60094" lon="6.65919">
        <ele>1751</ele>
        <time>2018-02-10T14:43:31Z</time>
      </trkpt>
      <trkpt lat="45.60095" lon="6.65919">
        <ele>1751</ele>
        <time>2018-02-10T14:43:40Z</time>
      </trkpt>
      <trkpt lat="45.60095" lon="6.65921">
        <ele>1751</ele>
        <time>2018-02-10T14:43:52Z</time>
      </trkpt>
      <trkpt lat="45.60081" lon="6.65902">
        <ele>1748</ele>
        <time>2018-02-10T14:44:18Z</time>
      </trkpt>
      <trkpt lat="45.60078" lon="6.65899">
        <ele>1749</ele>
        <time>2018-02-10T14:44:19Z</time>
      </trkpt>
      <trkpt lat="45.60071" lon="6.65887">
        <ele>1750</ele>
        <time>2018-02-10T14:44:22Z</time>
      </trkpt>
      <trkpt lat="45.6006" lon="6.65892">
        <ele>1750</ele>
        <time>2018-02-10T14:44:26Z</time>
      </trkpt>
      <trkpt lat="45.60064" lon="6.65903">
        <ele>1749</ele>
        <time>2018-02-10T14:44:28Z</time>
      </trkpt>
      <trkpt lat="45.60072" lon="6.65958">
        <ele>1737</ele>
        <time>2018-02-10T14:44:36Z</time>
      </trkpt>
      <trkpt lat="45.60077" lon="6.65969">
        <ele>1736</ele>
        <time>2018-02-10T14:44:38Z</time>
      </trkpt>
      <trkpt lat="45.60094" lon="6.66002">
        <ele>1739</ele>
        <time>2018-02-10T14:44:45Z</time>
      </trkpt>
      <trkpt lat="45.601" lon="6.66019">
        <ele>1743</ele>
        <time>2018-02-10T14:44:51Z</time>
      </trkpt>
      <trkpt lat="45.60099" lon="6.66027">
        <ele>1743</ele>
        <time>2018-02-10T14:44:56Z</time>
      </trkpt>
      <trkpt lat="45.60099" lon="6.66027">
        <ele>1743</ele>
        <time>2018-02-10T14:45:09Z</time>
      </trkpt>
      <trkpt lat="45.60097" lon="6.66026">
        <ele>1743</ele>
        <time>2018-02-10T14:45:13Z</time>
      </trkpt>
      <trkpt lat="45.60087" lon="6.66015">
        <ele>1740</ele>
        <time>2018-02-10T14:45:21Z</time>
      </trkpt>
      <trkpt lat="45.60064" lon="6.65998">
        <ele>1734</ele>
        <time>2018-02-10T14:45:31Z</time>
      </trkpt>
      <trkpt lat="45.60047" lon="6.65975">
        <ele>1734</ele>
        <time>2018-02-10T14:45:37Z</time>
      </trkpt>
      <trkpt lat="45.6004" lon="6.65965">
        <ele>1735</ele>
        <time>2018-02-10T14:45:39Z</time>
      </trkpt>
      <trkpt lat="45.60028" lon="6.6596">
        <ele>1734</ele>
        <time>2018-02-10T14:45:43Z</time>
      </trkpt>
      <trkpt lat="45.60031" lon="6.65987">
        <ele>1732</ele>
        <time>2018-02-10T14:45:48Z</time>
      </trkpt>
      <trkpt lat="45.60034" lon="6.66001">
        <ele>1721</ele>
        <time>2018-02-10T14:45:51Z</time>
      </trkpt>
      <trkpt lat="45.60041" lon="6.66027">
        <ele>1719</ele>
        <time>2018-02-10T14:45:56Z</time>
      </trkpt>
      <trkpt lat="45.60045" lon="6.66036">
        <ele>1719</ele>
        <time>2018-02-10T14:45:58Z</time>
      </trkpt>
      <trkpt lat="45.60048" lon="6.66046">
        <ele>1718</ele>
        <time>2018-02-10T14:46:00Z</time>
      </trkpt>
      <trkpt lat="45.60063" lon="6.66068">
        <ele>1717</ele>
        <time>2018-02-10T14:46:06Z</time>
      </trkpt>
      <trkpt lat="45.6007" lon="6.6609">
        <ele>1709</ele>
        <time>2018-02-10T14:46:10Z</time>
      </trkpt>
      <trkpt lat="45.60074" lon="6.6611">
        <ele>1705</ele>
        <time>2018-02-10T14:46:13Z</time>
      </trkpt>
      <trkpt lat="45.60078" lon="6.66123">
        <ele>1703</ele>
        <time>2018-02-10T14:46:15Z</time>
      </trkpt>
      <trkpt lat="45.60083" lon="6.66152">
        <ele>1701</ele>
        <time>2018-02-10T14:46:19Z</time>
      </trkpt>
      <trkpt lat="45.60088" lon="6.66179">
        <ele>1712</ele>
        <time>2018-02-10T14:46:23Z</time>
      </trkpt>
      <trkpt lat="45.60089" lon="6.66191">
        <ele>1717</ele>
        <time>2018-02-10T14:46:25Z</time>
      </trkpt>
      <trkpt lat="45.60088" lon="6.66233">
        <ele>1713</ele>
        <time>2018-02-10T14:46:31Z</time>
      </trkpt>
      <trkpt lat="45.60088" lon="6.66255">
        <ele>1706</ele>
        <time>2018-02-10T14:46:34Z</time>
      </trkpt>
      <trkpt lat="45.60087" lon="6.66276">
        <ele>1716</ele>
        <time>2018-02-10T14:46:37Z</time>
      </trkpt>
      <trkpt lat="45.60088" lon="6.66303">
        <ele>1717</ele>
        <time>2018-02-10T14:46:41Z</time>
      </trkpt>
      <trkpt lat="45.60086" lon="6.66318">
        <ele>1712</ele>
        <time>2018-02-10T14:46:43Z</time>
      </trkpt>
      <trkpt lat="45.60081" lon="6.66351">
        <ele>1690</ele>
        <time>2018-02-10T14:46:47Z</time>
      </trkpt>
      <trkpt lat="45.60079" lon="6.66359">
        <ele>1688</ele>
        <time>2018-02-10T14:46:48Z</time>
      </trkpt>
      <trkpt lat="45.60077" lon="6.66383">
        <ele>1687</ele>
        <time>2018-02-10T14:46:51Z</time>
      </trkpt>
      <trkpt lat="45.6007" lon="6.66392">
        <ele>1687</ele>
        <time>2018-02-10T14:47:24Z</time>
      </trkpt>
      <trkpt lat="45.60068" lon="6.66364">
        <ele>1685</ele>
        <time>2018-02-10T14:48:54Z</time>
      </trkpt>
      <trkpt lat="45.60059" lon="6.66327">
        <ele>1686</ele>
        <time>2018-02-10T14:49:02Z</time>
      </trkpt>
      <trkpt lat="45.6005" lon="6.66296">
        <ele>1681</ele>
        <time>2018-02-10T14:49:08Z</time>
      </trkpt>
      <trkpt lat="45.60038" lon="6.66258">
        <ele>1679</ele>
        <time>2018-02-10T14:49:15Z</time>
      </trkpt>
      <trkpt lat="45.60036" lon="6.66249">
        <ele>1683</ele>
        <time>2018-02-10T14:49:17Z</time>
      </trkpt>
      <trkpt lat="45.60033" lon="6.66236">
        <ele>1683</ele>
        <time>2018-02-10T14:49:22Z</time>
      </trkpt>
      <trkpt lat="45.60028" lon="6.66233">
        <ele>1681</ele>
        <time>2018-02-10T14:49:32Z</time>
      </trkpt>
      <trkpt lat="45.60027" lon="6.66232">
        <ele>1681</ele>
        <time>2018-02-10T14:49:41Z</time>
      </trkpt>
      <trkpt lat="45.60025" lon="6.66233">
        <ele>1681</ele>
        <time>2018-02-10T14:49:57Z</time>
      </trkpt>
      <trkpt lat="45.60025" lon="6.66233">
        <ele>1680</ele>
        <time>2018-02-10T14:50:11Z</time>
      </trkpt>
      <trkpt lat="45.60025" lon="6.66233">
        <ele>1680</ele>
        <time>2018-02-10T14:50:33Z</time>
      </trkpt>
      <trkpt lat="45.60025" lon="6.66233">
        <ele>1681</ele>
        <time>2018-02-10T14:50:53Z</time>
      </trkpt>
      <trkpt lat="45.6002" lon="6.66248">
        <ele>1677</ele>
        <time>2018-02-10T14:50:59Z</time>
      </trkpt>
      <trkpt lat="45.60011" lon="6.66258">
        <ele>1670</ele>
        <time>2018-02-10T14:51:03Z</time>
      </trkpt>
      <trkpt lat="45.60006" lon="6.66263">
        <ele>1670</ele>
        <time>2018-02-10T14:51:05Z</time>
      </trkpt>
      <trkpt lat="45.60001" lon="6.66275">
        <ele>1672</ele>
        <time>2018-02-10T14:51:07Z</time>
      </trkpt>
      <trkpt lat="45.59998" lon="6.6629">
        <ele>1657</ele>
        <time>2018-02-10T14:51:09Z</time>
      </trkpt>
      <trkpt lat="45.59998" lon="6.66336">
        <ele>1652</ele>
        <time>2018-02-10T14:51:15Z</time>
      </trkpt>
      <trkpt lat="45.6" lon="6.66351">
        <ele>1664</ele>
        <time>2018-02-10T14:51:17Z</time>
      </trkpt>
      <trkpt lat="45.60003" lon="6.66387">
        <ele>1667</ele>
        <time>2018-02-10T14:51:22Z</time>
      </trkpt>
      <trkpt lat="45.60003" lon="6.6642">
        <ele>1654</ele>
        <time>2018-02-10T14:51:27Z</time>
      </trkpt>
      <trkpt lat="45.59996" lon="6.66448">
        <ele>1637</ele>
        <time>2018-02-10T14:51:34Z</time>
      </trkpt>
      <trkpt lat="45.60001" lon="6.66476">
        <ele>1660</ele>
        <time>2018-02-10T14:51:55Z</time>
      </trkpt>
      <trkpt lat="45.6" lon="6.66516">
        <ele>1630</ele>
        <time>2018-02-10T14:52:05Z</time>
      </trkpt>
      <trkpt lat="45.60001" lon="6.66528">
        <ele>1651</ele>
        <time>2018-02-10T14:52:07Z</time>
      </trkpt>
      <trkpt lat="45.60016" lon="6.6656">
        <ele>1647</ele>
        <time>2018-02-10T14:52:14Z</time>
      </trkpt>
      <trkpt lat="45.6002" lon="6.66568">
        <ele>1646</ele>
        <time>2018-02-10T14:52:16Z</time>
      </trkpt>
      <trkpt lat="45.60033" lon="6.66595">
        <ele>1636</ele>
        <time>2018-02-10T14:52:25Z</time>
      </trkpt>
      <trkpt lat="45.60037" lon="6.66613">
        <ele>1636</ele>
        <time>2018-02-10T14:53:39Z</time>
      </trkpt>
      <trkpt lat="45.60044" lon="6.66632">
        <ele>1635</ele>
        <time>2018-02-10T14:55:14Z</time>
      </trkpt>
      <trkpt lat="45.60065" lon="6.6666">
        <ele>1638</ele>
        <time>2018-02-10T14:55:22Z</time>
      </trkpt>
      <trkpt lat="45.6008" lon="6.66689">
        <ele>1624</ele>
        <time>2018-02-10T14:55:28Z</time>
      </trkpt>
      <trkpt lat="45.60092" lon="6.66712">
        <ele>1642</ele>
        <time>2018-02-10T14:55:32Z</time>
      </trkpt>
      <trkpt lat="45.60099" lon="6.66731">
        <ele>1638</ele>
        <time>2018-02-10T14:55:35Z</time>
      </trkpt>
      <trkpt lat="45.60102" lon="6.66737">
        <ele>1637</ele>
        <time>2018-02-10T14:55:36Z</time>
      </trkpt>
      <trkpt lat="45.6011" lon="6.66752">
        <ele>1621</ele>
        <time>2018-02-10T14:55:39Z</time>
      </trkpt>
      <trkpt lat="45.60113" lon="6.66756">
        <ele>1621</ele>
        <time>2018-02-10T14:55:40Z</time>
      </trkpt>
      <trkpt lat="45.60119" lon="6.66762">
        <ele>1623</ele>
        <time>2018-02-10T14:55:42Z</time>
      </trkpt>
      <trkpt lat="45.60131" lon="6.6678">
        <ele>1623</ele>
        <time>2018-02-10T14:55:46Z</time>
      </trkpt>
      <trkpt lat="45.60156" lon="6.6681">
        <ele>1622</ele>
        <time>2018-02-10T14:55:54Z</time>
      </trkpt>
      <trkpt lat="45.60168" lon="6.66826">
        <ele>1632</ele>
        <time>2018-02-10T14:55:59Z</time>
      </trkpt>
      <trkpt lat="45.6016" lon="6.66825">
        <ele>1622</ele>
        <time>2018-02-10T14:56:55Z</time>
      </trkpt>
      <trkpt lat="45.60142" lon="6.66813">
        <ele>1620</ele>
        <time>2018-02-10T14:57:06Z</time>
      </trkpt>
      <trkpt lat="45.60136" lon="6.66811">
        <ele>1619</ele>
        <time>2018-02-10T14:57:12Z</time>
      </trkpt>
      <trkpt lat="45.60133" lon="6.66811">
        <ele>1618</ele>
        <time>2018-02-10T14:57:15Z</time>
      </trkpt>
      <trkpt lat="45.60129" lon="6.66818">
        <ele>1616</ele>
        <time>2018-02-10T14:57:19Z</time>
      </trkpt>
      <trkpt lat="45.60123" lon="6.66815">
        <ele>1615</ele>
        <time>2018-02-10T14:57:21Z</time>
      </trkpt>
      <trkpt lat="45.60101" lon="6.66796">
        <ele>1613</ele>
        <time>2018-02-10T14:57:28Z</time>
      </trkpt>
      <trkpt lat="45.6009" lon="6.66789">
        <ele>1613</ele>
        <time>2018-02-10T14:57:31Z</time>
      </trkpt>
      <trkpt lat="45.60071" lon="6.6678">
        <ele>1593</ele>
        <time>2018-02-10T14:57:35Z</time>
      </trkpt>
      <trkpt lat="45.60054" lon="6.66767">
        <ele>1592</ele>
        <time>2018-02-10T14:57:39Z</time>
      </trkpt>
      <trkpt lat="45.60031" lon="6.66755">
        <ele>1586</ele>
        <time>2018-02-10T14:57:44Z</time>
      </trkpt>
      <trkpt lat="45.6002" lon="6.66751">
        <ele>1584</ele>
        <time>2018-02-10T14:57:46Z</time>
      </trkpt>
      <trkpt lat="45.59994" lon="6.66743">
        <ele>1579</ele>
        <time>2018-02-10T14:57:51Z</time>
      </trkpt>
      <trkpt lat="45.59989" lon="6.66742">
        <ele>1578</ele>
        <time>2018-02-10T14:57:56Z</time>
      </trkpt>
      <trkpt lat="45.59984" lon="6.66741">
        <ele>1577</ele>
        <time>2018-02-10T14:58:04Z</time>
      </trkpt>
      <trkpt lat="45.5998" lon="6.66752">
        <ele>1565</ele>
        <time>2018-02-10T14:58:08Z</time>
      </trkpt>
      <trkpt lat="45.59982" lon="6.66759">
        <ele>1565</ele>
        <time>2018-02-10T14:58:11Z</time>
      </trkpt>
      <trkpt lat="45.59977" lon="6.66764">
        <ele>1562</ele>
        <time>2018-02-10T14:58:16Z</time>
      </trkpt>
      <trkpt lat="45.59977" lon="6.66762">
        <ele>1562</ele>
        <time>2018-02-10T14:58:29Z</time>
      </trkpt>
      <trkpt lat="45.59975" lon="6.66763">
        <ele>1562</ele>
        <time>2018-02-10T14:58:42Z</time>
      </trkpt>
      <trkpt lat="45.59968" lon="6.66763">
        <ele>1559</ele>
        <time>2018-02-10T14:58:50Z</time>
      </trkpt>
      <trkpt lat="45.59971" lon="6.66776">
        <ele>1558</ele>
        <time>2018-02-10T14:58:56Z</time>
      </trkpt>
      <trkpt lat="45.59973" lon="6.66778">
        <ele>1558</ele>
        <time>2018-02-10T14:58:58Z</time>
      </trkpt>
      <trkpt lat="45.59964" lon="6.66785">
        <ele>1555</ele>
        <time>2018-02-10T14:59:03Z</time>
      </trkpt>
      <trkpt lat="45.59961" lon="6.66785">
        <ele>1554</ele>
        <time>2018-02-10T14:59:04Z</time>
      </trkpt>
      <trkpt lat="45.5995" lon="6.66781">
        <ele>1552</ele>
        <time>2018-02-10T14:59:07Z</time>
      </trkpt>
      <trkpt lat="45.59941" lon="6.66775">
        <ele>1551</ele>
        <time>2018-02-10T14:59:10Z</time>
      </trkpt>
      <trkpt lat="45.59928" lon="6.66763">
        <ele>1549</ele>
        <time>2018-02-10T14:59:15Z</time>
      </trkpt>
      <trkpt lat="45.59919" lon="6.6675">
        <ele>1547</ele>
        <time>2018-02-10T14:59:21Z</time>
      </trkpt>
      <trkpt lat="45.59912" lon="6.66757">
        <ele>1540</ele>
        <time>2018-02-10T14:59:25Z</time>
      </trkpt>
      <trkpt lat="45.59911" lon="6.66766">
        <ele>1535</ele>
        <time>2018-02-10T14:59:28Z</time>
      </trkpt>
      <trkpt lat="45.59909" lon="6.66776">
        <ele>1532</ele>
        <time>2018-02-10T14:59:31Z</time>
      </trkpt>
      <trkpt lat="45.599" lon="6.66775">
        <ele>1531</ele>
        <time>2018-02-10T14:59:34Z</time>
      </trkpt>
      <trkpt lat="45.59898" lon="6.66773">
        <ele>1531</ele>
        <time>2018-02-10T14:59:35Z</time>
      </trkpt>
      <trkpt lat="45.59892" lon="6.66767">
        <ele>1530</ele>
        <time>2018-02-10T14:59:39Z</time>
      </trkpt>
      <trkpt lat="45.59883" lon="6.66779">
        <ele>1527</ele>
        <time>2018-02-10T14:59:44Z</time>
      </trkpt>
      <trkpt lat="45.59886" lon="6.668">
        <ele>1525</ele>
        <time>2018-02-10T14:59:50Z</time>
      </trkpt>
      <trkpt lat="45.59892" lon="6.66819">
        <ele>1524</ele>
        <time>2018-02-10T14:59:58Z</time>
      </trkpt>
      <trkpt lat="45.59885" lon="6.66821">
        <ele>1523</ele>
        <time>2018-02-10T15:00:02Z</time>
      </trkpt>
      <trkpt lat="45.59877" lon="6.66815">
        <ele>1522</ele>
        <time>2018-02-10T15:00:06Z</time>
      </trkpt>
      <trkpt lat="45.59874" lon="6.66814">
        <ele>1521</ele>
        <time>2018-02-10T15:00:08Z</time>
      </trkpt>
      <trkpt lat="45.59871" lon="6.66822">
        <ele>1520</ele>
        <time>2018-02-10T15:00:13Z</time>
      </trkpt>
      <trkpt lat="45.59863" lon="6.66828">
        <ele>1518</ele>
        <time>2018-02-10T15:00:18Z</time>
      </trkpt>
      <trkpt lat="45.59861" lon="6.66829">
        <ele>1517</ele>
        <time>2018-02-10T15:00:19Z</time>
      </trkpt>
      <trkpt lat="45.59862" lon="6.66841">
        <ele>1507</ele>
        <time>2018-02-10T15:00:22Z</time>
      </trkpt>
      <trkpt lat="45.59856" lon="6.66845">
        <ele>1506</ele>
        <time>2018-02-10T15:00:26Z</time>
      </trkpt>
      <trkpt lat="45.59853" lon="6.66845">
        <ele>1505</ele>
        <time>2018-02-10T15:00:27Z</time>
      </trkpt>
      <trkpt lat="45.59853" lon="6.66853">
        <ele>1505</ele>
        <time>2018-02-10T15:00:29Z</time>
      </trkpt>
      <trkpt lat="45.59862" lon="6.66882">
        <ele>1504</ele>
        <time>2018-02-10T15:00:38Z</time>
      </trkpt>
      <trkpt lat="45.59863" lon="6.66884">
        <ele>1504</ele>
        <time>2018-02-10T15:00:39Z</time>
      </trkpt>
      <trkpt lat="45.59855" lon="6.66887">
        <ele>1502</ele>
        <time>2018-02-10T15:00:44Z</time>
      </trkpt>
      <trkpt lat="45.59829" lon="6.6689">
        <ele>1488</ele>
        <time>2018-02-10T15:00:50Z</time>
      </trkpt>
      <trkpt lat="45.59816" lon="6.66893">
        <ele>1487</ele>
        <time>2018-02-10T15:00:53Z</time>
      </trkpt>
      <trkpt lat="45.59807" lon="6.66897">
        <ele>1486</ele>
        <time>2018-02-10T15:01:00Z</time>
      </trkpt>
      <trkpt lat="45.59811" lon="6.66912">
        <ele>1486</ele>
        <time>2018-02-10T15:01:57Z</time>
      </trkpt>
      <trkpt lat="45.59806" lon="6.66925">
        <ele>1478</ele>
        <time>2018-02-10T15:02:01Z</time>
      </trkpt>
      <trkpt lat="45.59799" lon="6.66929">
        <ele>1477</ele>
        <time>2018-02-10T15:02:03Z</time>
      </trkpt>
      <trkpt lat="45.59796" lon="6.6694">
        <ele>1476</ele>
        <time>2018-02-10T15:02:07Z</time>
      </trkpt>
      <trkpt lat="45.59803" lon="6.66946">
        <ele>1476</ele>
        <time>2018-02-10T15:02:10Z</time>
      </trkpt>
      <trkpt lat="45.59798" lon="6.6695">
        <ele>1475</ele>
        <time>2018-02-10T15:02:15Z</time>
      </trkpt>
      <trkpt lat="45.59781" lon="6.66951">
        <ele>1474</ele>
        <time>2018-02-10T15:02:20Z</time>
      </trkpt>
      <trkpt lat="45.59774" lon="6.6695">
        <ele>1474</ele>
        <time>2018-02-10T15:02:22Z</time>
      </trkpt>
      <trkpt lat="45.59763" lon="6.66952">
        <ele>1473</ele>
        <time>2018-02-10T15:02:25Z</time>
      </trkpt>
      <trkpt lat="45.59745" lon="6.66946">
        <ele>1464</ele>
        <time>2018-02-10T15:02:30Z</time>
      </trkpt>
      <trkpt lat="45.59738" lon="6.66934">
        <ele>1465</ele>
        <time>2018-02-10T15:02:34Z</time>
      </trkpt>
      <trkpt lat="45.59734" lon="6.66914">
        <ele>1470</ele>
        <time>2018-02-10T15:02:38Z</time>
      </trkpt>
      <trkpt lat="45.59733" lon="6.66904">
        <ele>1469</ele>
        <time>2018-02-10T15:02:40Z</time>
      </trkpt>
      <trkpt lat="45.59733" lon="6.66899">
        <ele>1469</ele>
        <time>2018-02-10T15:02:41Z</time>
      </trkpt>
      <trkpt lat="45.59735" lon="6.6688">
        <ele>1468</ele>
        <time>2018-02-10T15:02:44Z</time>
      </trkpt>
      <trkpt lat="45.59732" lon="6.66859">
        <ele>1469</ele>
        <time>2018-02-10T15:02:48Z</time>
      </trkpt>
      <trkpt lat="45.59732" lon="6.66847">
        <ele>1470</ele>
        <time>2018-02-10T15:02:50Z</time>
      </trkpt>
      <trkpt lat="45.59718" lon="6.66816">
        <ele>1475</ele>
        <time>2018-02-10T15:02:56Z</time>
      </trkpt>
      <trkpt lat="45.59703" lon="6.66801">
        <ele>1474</ele>
        <time>2018-02-10T15:03:00Z</time>
      </trkpt>
      <trkpt lat="45.59685" lon="6.66782">
        <ele>1474</ele>
        <time>2018-02-10T15:03:05Z</time>
      </trkpt>
      <trkpt lat="45.59677" lon="6.66777">
        <ele>1475</ele>
        <time>2018-02-10T15:03:07Z</time>
      </trkpt>
      <trkpt lat="45.59661" lon="6.66771">
        <ele>1468</ele>
        <time>2018-02-10T15:03:12Z</time>
      </trkpt>
      <trkpt lat="45.59642" lon="6.66771">
        <ele>1466</ele>
        <time>2018-02-10T15:03:24Z</time>
      </trkpt>
      <trkpt lat="45.59625" lon="6.66774">
        <ele>1465</ele>
        <time>2018-02-10T15:03:30Z</time>
      </trkpt>
      <trkpt lat="45.59618" lon="6.66773">
        <ele>1465</ele>
        <time>2018-02-10T15:03:32Z</time>
      </trkpt>
      <trkpt lat="45.5961" lon="6.66774">
        <ele>1465</ele>
        <time>2018-02-10T15:03:34Z</time>
      </trkpt>
      <trkpt lat="45.59597" lon="6.66786">
        <ele>1463</ele>
        <time>2018-02-10T15:03:39Z</time>
      </trkpt>
      <trkpt lat="45.59613" lon="6.66813">
        <ele>1459</ele>
        <time>2018-02-10T15:03:45Z</time>
      </trkpt>
      <trkpt lat="45.59625" lon="6.66825">
        <ele>1459</ele>
        <time>2018-02-10T15:03:48Z</time>
      </trkpt>
      <trkpt lat="45.59633" lon="6.66866">
        <ele>1448</ele>
        <time>2018-02-10T15:03:55Z</time>
      </trkpt>
      <trkpt lat="45.59631" lon="6.66891">
        <ele>1446</ele>
        <time>2018-02-10T15:03:59Z</time>
      </trkpt>
      <trkpt lat="45.59631" lon="6.6691">
        <ele>1446</ele>
        <time>2018-02-10T15:04:02Z</time>
      </trkpt>
      <trkpt lat="45.59629" lon="6.66946">
        <ele>1440</ele>
        <time>2018-02-10T15:04:07Z</time>
      </trkpt>
      <trkpt lat="45.59634" lon="6.66967">
        <ele>1440</ele>
        <time>2018-02-10T15:04:10Z</time>
      </trkpt>
      <trkpt lat="45.59637" lon="6.6698">
        <ele>1440</ele>
        <time>2018-02-10T15:04:12Z</time>
      </trkpt>
      <trkpt lat="45.5963" lon="6.67015">
        <ele>1448</ele>
        <time>2018-02-10T15:04:19Z</time>
      </trkpt>
      <trkpt lat="45.59622" lon="6.67015">
        <ele>1447</ele>
        <time>2018-02-10T15:04:21Z</time>
      </trkpt>
      <trkpt lat="45.59602" lon="6.67007">
        <ele>1442</ele>
        <time>2018-02-10T15:04:26Z</time>
      </trkpt>
      <trkpt lat="45.59567" lon="6.66998">
        <ele>1427</ele>
        <time>2018-02-10T15:04:35Z</time>
      </trkpt>
      <trkpt lat="45.59551" lon="6.66998">
        <ele>1424</ele>
        <time>2018-02-10T15:04:39Z</time>
      </trkpt>
      <trkpt lat="45.59534" lon="6.66993">
        <ele>1422</ele>
        <time>2018-02-10T15:04:43Z</time>
      </trkpt>
      <trkpt lat="45.59511" lon="6.66995">
        <ele>1419</ele>
        <time>2018-02-10T15:04:48Z</time>
      </trkpt>
      <trkpt lat="45.59479" lon="6.67012">
        <ele>1421</ele>
        <time>2018-02-10T15:04:56Z</time>
      </trkpt>
      <trkpt lat="45.59469" lon="6.67023">
        <ele>1422</ele>
        <time>2018-02-10T15:04:59Z</time>
      </trkpt>
      <trkpt lat="45.59435" lon="6.67038">
        <ele>1421</ele>
        <time>2018-02-10T15:05:07Z</time>
      </trkpt>
      <trkpt lat="45.59409" lon="6.67057">
        <ele>1416</ele>
        <time>2018-02-10T15:05:13Z</time>
      </trkpt>
      <trkpt lat="45.59397" lon="6.67067">
        <ele>1417</ele>
        <time>2018-02-10T15:05:16Z</time>
      </trkpt>
      <trkpt lat="45.59362" lon="6.67079">
        <ele>1415</ele>
        <time>2018-02-10T15:05:25Z</time>
      </trkpt>
      <trkpt lat="45.5935" lon="6.67082">
        <ele>1416</ele>
        <time>2018-02-10T15:05:29Z</time>
      </trkpt>
      <trkpt lat="45.59327" lon="6.67076">
        <ele>1415</ele>
        <time>2018-02-10T15:05:37Z</time>
      </trkpt>
      <trkpt lat="45.59314" lon="6.67073">
        <ele>1411</ele>
        <time>2018-02-10T15:05:42Z</time>
      </trkpt>
      <trkpt lat="45.59293" lon="6.67073">
        <ele>1408</ele>
        <time>2018-02-10T15:05:53Z</time>
      </trkpt>
      <trkpt lat="45.59278" lon="6.67073">
        <ele>1408</ele>
        <time>2018-02-10T15:05:59Z</time>
      </trkpt>
      <trkpt lat="45.59271" lon="6.67074">
        <ele>1409</ele>
        <time>2018-02-10T15:06:03Z</time>
      </trkpt>
      <trkpt lat="45.59248" lon="6.67077">
        <ele>1413</ele>
        <time>2018-02-10T15:06:13Z</time>
      </trkpt>
      <trkpt lat="45.59231" lon="6.67079">
        <ele>1408</ele>
        <time>2018-02-10T15:06:23Z</time>
      </trkpt>
      <trkpt lat="45.5923" lon="6.67084">
        <ele>1423</ele>
        <time>2018-02-10T15:06:30Z</time>
      </trkpt>
      <trkpt lat="45.5922" lon="6.67088">
        <ele>1424</ele>
        <time>2018-02-10T15:06:37Z</time>
      </trkpt>
      <trkpt lat="45.59203" lon="6.67091">
        <ele>1424</ele>
        <time>2018-02-10T15:06:47Z</time>
      </trkpt>
      <trkpt lat="45.59199" lon="6.67092">
        <ele>1423</ele>
        <time>2018-02-10T15:06:54Z</time>
      </trkpt>
      <trkpt lat="45.59199" lon="6.67089">
        <ele>1423</ele>
        <time>2018-02-10T15:07:09Z</time>
      </trkpt>
      <trkpt lat="45.59199" lon="6.67089">
        <ele>1423</ele>
        <time>2018-02-10T15:07:20Z</time>
      </trkpt>
      <trkpt lat="45.59196" lon="6.67091">
        <ele>1423</ele>
        <time>2018-02-10T15:07:36Z</time>
      </trkpt>
      <trkpt lat="45.59188" lon="6.67091">
        <ele>1421</ele>
        <time>2018-02-10T15:07:45Z</time>
      </trkpt>
      <trkpt lat="45.59178" lon="6.67092">
        <ele>1419</ele>
        <time>2018-02-10T15:07:56Z</time>
      </trkpt>
      <trkpt lat="45.59175" lon="6.67097">
        <ele>1419</ele>
      </trkpt>
      <trkpt lat="45.5917" lon="6.67098">
        <ele>1419</ele>
        <time>2018-02-10T15:09:33Z</time>
      </trkpt>
    </trkseg>
  </trk>
</gpx>